<?xml version="1.0" encoding="UTF-8" standalone="no" ?>
<gpx xmlns="http://www.topografix.com/GPX/1/1" xmlns:xsi="http://www.w3.org/2001/XMLSchema-instance" xsi:schemaLocation="http://www.topografix.com/GPX/1/1 http://www.topografix.com/GPX/1/1/gpx.xsd" version="1.1" creator="VisuGPX - https://www.visugpx.com">
  <metadata>
    <name>Baumes les Messieurs,Cascade des Tufs,Sermu....</name>
  </metadata>
  <trk>
    <name><![CDATA[Baumes les Messieurs,Cascade des Tufs,Sermu...._1]]></name>
    <trkseg>
      <trkpt lat="46.71174" lon="5.64144">
        <ele>278.8</ele>
        <time>2021-03-29T11:41:16Z</time>
      </trkpt>
      <trkpt lat="46.71169" lon="5.64145">
        <ele>287.3</ele>
        <time>2021-03-29T11:41:24Z</time>
      </trkpt>
      <trkpt lat="46.71165" lon="5.64143">
        <ele>293</ele>
        <time>2021-03-29T11:41:38Z</time>
      </trkpt>
      <trkpt lat="46.7116" lon="5.64144">
        <ele>297</ele>
        <time>2021-03-29T11:42:03Z</time>
      </trkpt>
      <trkpt lat="46.71155" lon="5.64142">
        <ele>297.2</ele>
        <time>2021-03-29T11:42:07Z</time>
      </trkpt>
      <trkpt lat="46.7115" lon="5.64142">
        <ele>296</ele>
        <time>2021-03-29T11:42:12Z</time>
      </trkpt>
      <trkpt lat="46.71145" lon="5.64142">
        <ele>295</ele>
        <time>2021-03-29T11:42:17Z</time>
      </trkpt>
      <trkpt lat="46.71141" lon="5.64145">
        <ele>295</ele>
        <time>2021-03-29T11:42:25Z</time>
      </trkpt>
      <trkpt lat="46.71138" lon="5.64152">
        <ele>295.1</ele>
        <time>2021-03-29T11:42:31Z</time>
      </trkpt>
      <trkpt lat="46.71137" lon="5.64158">
        <ele>295.4</ele>
        <time>2021-03-29T11:42:35Z</time>
      </trkpt>
      <trkpt lat="46.71136" lon="5.64165">
        <ele>295.5</ele>
        <time>2021-03-29T11:42:40Z</time>
      </trkpt>
      <trkpt lat="46.71136" lon="5.64172">
        <ele>296.1</ele>
        <time>2021-03-29T11:42:45Z</time>
      </trkpt>
      <trkpt lat="46.71135" lon="5.64179">
        <ele>296.9</ele>
        <time>2021-03-29T11:42:50Z</time>
      </trkpt>
      <trkpt lat="46.71136" lon="5.64186">
        <ele>298.8</ele>
        <time>2021-03-29T11:42:55Z</time>
      </trkpt>
      <trkpt lat="46.71133" lon="5.64192">
        <ele>299.6</ele>
        <time>2021-03-29T11:43:00Z</time>
      </trkpt>
      <trkpt lat="46.71132" lon="5.64199">
        <ele>300</ele>
        <time>2021-03-29T11:43:06Z</time>
      </trkpt>
      <trkpt lat="46.7113" lon="5.64206">
        <ele>300.7</ele>
        <time>2021-03-29T11:43:11Z</time>
      </trkpt>
      <trkpt lat="46.71128" lon="5.64212">
        <ele>301.5</ele>
        <time>2021-03-29T11:43:16Z</time>
      </trkpt>
      <trkpt lat="46.71126" lon="5.64217">
        <ele>302.2</ele>
        <time>2021-03-29T11:43:21Z</time>
      </trkpt>
      <trkpt lat="46.71125" lon="5.64225">
        <ele>303</ele>
        <time>2021-03-29T11:43:27Z</time>
      </trkpt>
      <trkpt lat="46.71124" lon="5.64232">
        <ele>303.5</ele>
        <time>2021-03-29T11:43:32Z</time>
      </trkpt>
      <trkpt lat="46.71122" lon="5.64239">
        <ele>304.2</ele>
        <time>2021-03-29T11:43:37Z</time>
      </trkpt>
      <trkpt lat="46.7112" lon="5.64246">
        <ele>304.8</ele>
        <time>2021-03-29T11:43:42Z</time>
      </trkpt>
      <trkpt lat="46.71121" lon="5.64254">
        <ele>305.5</ele>
        <time>2021-03-29T11:43:47Z</time>
      </trkpt>
      <trkpt lat="46.71121" lon="5.6426">
        <ele>305.7</ele>
        <time>2021-03-29T11:43:51Z</time>
      </trkpt>
      <trkpt lat="46.71121" lon="5.64267">
        <ele>305.4</ele>
        <time>2021-03-29T11:43:55Z</time>
      </trkpt>
      <trkpt lat="46.71119" lon="5.64275">
        <ele>304.5</ele>
        <time>2021-03-29T11:44:00Z</time>
      </trkpt>
      <trkpt lat="46.71116" lon="5.6428">
        <ele>303.3</ele>
        <time>2021-03-29T11:44:04Z</time>
      </trkpt>
      <trkpt lat="46.71114" lon="5.64286">
        <ele>301.5</ele>
        <time>2021-03-29T11:44:08Z</time>
      </trkpt>
      <trkpt lat="46.71112" lon="5.64292">
        <ele>299.7</ele>
        <time>2021-03-29T11:44:12Z</time>
      </trkpt>
      <trkpt lat="46.71109" lon="5.64298">
        <ele>298.1</ele>
        <time>2021-03-29T11:44:16Z</time>
      </trkpt>
      <trkpt lat="46.71106" lon="5.64303">
        <ele>297.4</ele>
        <time>2021-03-29T11:44:20Z</time>
      </trkpt>
      <trkpt lat="46.71103" lon="5.64309">
        <ele>296.7</ele>
        <time>2021-03-29T11:44:24Z</time>
      </trkpt>
      <trkpt lat="46.71101" lon="5.64317">
        <ele>295.5</ele>
        <time>2021-03-29T11:44:29Z</time>
      </trkpt>
      <trkpt lat="46.71099" lon="5.64323">
        <ele>294.3</ele>
        <time>2021-03-29T11:44:34Z</time>
      </trkpt>
      <trkpt lat="46.71095" lon="5.64327">
        <ele>293.8</ele>
        <time>2021-03-29T11:44:38Z</time>
      </trkpt>
      <trkpt lat="46.71093" lon="5.64333">
        <ele>293.6</ele>
        <time>2021-03-29T11:44:43Z</time>
      </trkpt>
      <trkpt lat="46.71089" lon="5.64339">
        <ele>293.5</ele>
        <time>2021-03-29T11:44:48Z</time>
      </trkpt>
      <trkpt lat="46.71087" lon="5.64345">
        <ele>294.2</ele>
        <time>2021-03-29T11:44:53Z</time>
      </trkpt>
      <trkpt lat="46.71084" lon="5.6435">
        <ele>295.3</ele>
        <time>2021-03-29T11:44:58Z</time>
      </trkpt>
      <trkpt lat="46.7108" lon="5.64356">
        <ele>296.6</ele>
        <time>2021-03-29T11:45:03Z</time>
      </trkpt>
      <trkpt lat="46.71076" lon="5.64361">
        <ele>297.8</ele>
        <time>2021-03-29T11:45:07Z</time>
      </trkpt>
      <trkpt lat="46.71073" lon="5.64367">
        <ele>299</ele>
        <time>2021-03-29T11:45:12Z</time>
      </trkpt>
      <trkpt lat="46.71071" lon="5.64375">
        <ele>294.6</ele>
        <time>2021-03-29T11:45:16Z</time>
      </trkpt>
      <trkpt lat="46.71067" lon="5.6438">
        <ele>291.9</ele>
        <time>2021-03-29T11:45:21Z</time>
      </trkpt>
      <trkpt lat="46.71064" lon="5.64386">
        <ele>291.1</ele>
        <time>2021-03-29T11:45:26Z</time>
      </trkpt>
      <trkpt lat="46.71061" lon="5.64392">
        <ele>291.2</ele>
        <time>2021-03-29T11:45:31Z</time>
      </trkpt>
      <trkpt lat="46.71057" lon="5.64397">
        <ele>295.5</ele>
        <time>2021-03-29T11:45:36Z</time>
      </trkpt>
      <trkpt lat="46.71054" lon="5.64402">
        <ele>297.9</ele>
        <time>2021-03-29T11:45:41Z</time>
      </trkpt>
      <trkpt lat="46.7105" lon="5.64408">
        <ele>299.9</ele>
        <time>2021-03-29T11:45:46Z</time>
      </trkpt>
      <trkpt lat="46.71048" lon="5.64413">
        <ele>301</ele>
        <time>2021-03-29T11:45:50Z</time>
      </trkpt>
      <trkpt lat="46.71045" lon="5.64419">
        <ele>301.9</ele>
        <time>2021-03-29T11:45:54Z</time>
      </trkpt>
      <trkpt lat="46.71042" lon="5.64425">
        <ele>302.6</ele>
        <time>2021-03-29T11:45:58Z</time>
      </trkpt>
      <trkpt lat="46.71039" lon="5.6443">
        <ele>303</ele>
        <time>2021-03-29T11:46:02Z</time>
      </trkpt>
      <trkpt lat="46.71035" lon="5.64434">
        <ele>303.5</ele>
        <time>2021-03-29T11:46:06Z</time>
      </trkpt>
      <trkpt lat="46.71031" lon="5.64438">
        <ele>304.3</ele>
        <time>2021-03-29T11:46:10Z</time>
      </trkpt>
      <trkpt lat="46.71028" lon="5.64443">
        <ele>305.2</ele>
        <time>2021-03-29T11:46:14Z</time>
      </trkpt>
      <trkpt lat="46.71024" lon="5.64447">
        <ele>306</ele>
        <time>2021-03-29T11:46:18Z</time>
      </trkpt>
      <trkpt lat="46.7102" lon="5.64451">
        <ele>306.8</ele>
        <time>2021-03-29T11:46:22Z</time>
      </trkpt>
      <trkpt lat="46.71015" lon="5.64453">
        <ele>307.6</ele>
        <time>2021-03-29T11:46:27Z</time>
      </trkpt>
      <trkpt lat="46.7101" lon="5.64456">
        <ele>308.1</ele>
        <time>2021-03-29T11:46:32Z</time>
      </trkpt>
      <trkpt lat="46.71006" lon="5.6446">
        <ele>308.7</ele>
        <time>2021-03-29T11:46:37Z</time>
      </trkpt>
      <trkpt lat="46.71003" lon="5.64465">
        <ele>308.7</ele>
        <time>2021-03-29T11:46:42Z</time>
      </trkpt>
      <trkpt lat="46.70999" lon="5.64468">
        <ele>307.9</ele>
        <time>2021-03-29T11:46:48Z</time>
      </trkpt>
      <trkpt lat="46.70995" lon="5.64472">
        <ele>306.7</ele>
        <time>2021-03-29T11:46:53Z</time>
      </trkpt>
      <trkpt lat="46.70992" lon="5.64479">
        <ele>305.6</ele>
        <time>2021-03-29T11:46:59Z</time>
      </trkpt>
      <trkpt lat="46.70988" lon="5.64483">
        <ele>304.8</ele>
        <time>2021-03-29T11:47:05Z</time>
      </trkpt>
      <trkpt lat="46.70984" lon="5.64487">
        <ele>304.3</ele>
        <time>2021-03-29T11:47:10Z</time>
      </trkpt>
      <trkpt lat="46.70983" lon="5.64493">
        <ele>303.7</ele>
        <time>2021-03-29T11:47:15Z</time>
      </trkpt>
      <trkpt lat="46.70983" lon="5.645">
        <ele>302.7</ele>
        <time>2021-03-29T11:47:21Z</time>
      </trkpt>
      <trkpt lat="46.70986" lon="5.64505">
        <ele>301.8</ele>
        <time>2021-03-29T11:47:27Z</time>
      </trkpt>
      <trkpt lat="46.70989" lon="5.64511">
        <ele>300.7</ele>
        <time>2021-03-29T11:47:33Z</time>
      </trkpt>
      <trkpt lat="46.70987" lon="5.64517">
        <ele>299.7</ele>
        <time>2021-03-29T11:47:46Z</time>
      </trkpt>
      <trkpt lat="46.70983" lon="5.6452">
        <ele>299.5</ele>
        <time>2021-03-29T11:47:58Z</time>
      </trkpt>
      <trkpt lat="46.70979" lon="5.64517">
        <ele>299.7</ele>
        <time>2021-03-29T11:48:14Z</time>
      </trkpt>
      <trkpt lat="46.70981" lon="5.64523">
        <ele>298.7</ele>
        <time>2021-03-29T11:48:25Z</time>
      </trkpt>
      <trkpt lat="46.70983" lon="5.64529">
        <ele>297.6</ele>
        <time>2021-03-29T11:48:38Z</time>
      </trkpt>
      <trkpt lat="46.70985" lon="5.64537">
        <ele>297.1</ele>
        <time>2021-03-29T11:48:43Z</time>
      </trkpt>
      <trkpt lat="46.70987" lon="5.64544">
        <ele>296.4</ele>
        <time>2021-03-29T11:48:48Z</time>
      </trkpt>
      <trkpt lat="46.70987" lon="5.64551">
        <ele>295.8</ele>
        <time>2021-03-29T11:48:53Z</time>
      </trkpt>
      <trkpt lat="46.70985" lon="5.64557">
        <ele>295.5</ele>
        <time>2021-03-29T11:48:58Z</time>
      </trkpt>
      <trkpt lat="46.70982" lon="5.64563">
        <ele>295.1</ele>
        <time>2021-03-29T11:49:03Z</time>
      </trkpt>
      <trkpt lat="46.70978" lon="5.64568">
        <ele>294.9</ele>
        <time>2021-03-29T11:49:08Z</time>
      </trkpt>
      <trkpt lat="46.70975" lon="5.64573">
        <ele>295.2</ele>
        <time>2021-03-29T11:49:13Z</time>
      </trkpt>
      <trkpt lat="46.70972" lon="5.64579">
        <ele>296.2</ele>
        <time>2021-03-29T11:49:19Z</time>
      </trkpt>
      <trkpt lat="46.7097" lon="5.64586">
        <ele>297.5</ele>
        <time>2021-03-29T11:49:24Z</time>
      </trkpt>
      <trkpt lat="46.70968" lon="5.64591">
        <ele>298.7</ele>
        <time>2021-03-29T11:49:29Z</time>
      </trkpt>
      <trkpt lat="46.70969" lon="5.64598">
        <ele>299.5</ele>
        <time>2021-03-29T11:49:36Z</time>
      </trkpt>
      <trkpt lat="46.7097" lon="5.64605">
        <ele>300.2</ele>
        <time>2021-03-29T11:49:43Z</time>
      </trkpt>
      <trkpt lat="46.70972" lon="5.6461">
        <ele>300.9</ele>
        <time>2021-03-29T11:49:50Z</time>
      </trkpt>
      <trkpt lat="46.70974" lon="5.64617">
        <ele>301.3</ele>
        <time>2021-03-29T11:49:56Z</time>
      </trkpt>
      <trkpt lat="46.70978" lon="5.64622">
        <ele>302.1</ele>
        <time>2021-03-29T11:50:02Z</time>
      </trkpt>
      <trkpt lat="46.70981" lon="5.64628">
        <ele>303.4</ele>
        <time>2021-03-29T11:50:09Z</time>
      </trkpt>
      <trkpt lat="46.70984" lon="5.64634">
        <ele>304.5</ele>
        <time>2021-03-29T11:50:15Z</time>
      </trkpt>
      <trkpt lat="46.70988" lon="5.64637">
        <ele>305.8</ele>
        <time>2021-03-29T11:50:20Z</time>
      </trkpt>
      <trkpt lat="46.70988" lon="5.64644">
        <ele>307.7</ele>
        <time>2021-03-29T11:50:31Z</time>
      </trkpt>
      <trkpt lat="46.70983" lon="5.64646">
        <ele>310.9</ele>
        <time>2021-03-29T11:50:39Z</time>
      </trkpt>
      <trkpt lat="46.70979" lon="5.6465">
        <ele>313.1</ele>
        <time>2021-03-29T11:50:45Z</time>
      </trkpt>
      <trkpt lat="46.70976" lon="5.64656">
        <ele>314.5</ele>
        <time>2021-03-29T11:50:49Z</time>
      </trkpt>
      <trkpt lat="46.70972" lon="5.64661">
        <ele>316.1</ele>
        <time>2021-03-29T11:50:54Z</time>
      </trkpt>
      <trkpt lat="46.7097" lon="5.64667">
        <ele>317.4</ele>
        <time>2021-03-29T11:51:00Z</time>
      </trkpt>
      <trkpt lat="46.70966" lon="5.64672">
        <ele>318.7</ele>
        <time>2021-03-29T11:51:05Z</time>
      </trkpt>
      <trkpt lat="46.70962" lon="5.64676">
        <ele>320.1</ele>
        <time>2021-03-29T11:51:12Z</time>
      </trkpt>
      <trkpt lat="46.70957" lon="5.64679">
        <ele>321.1</ele>
        <time>2021-03-29T11:51:17Z</time>
      </trkpt>
      <trkpt lat="46.70953" lon="5.64682">
        <ele>322.1</ele>
        <time>2021-03-29T11:51:22Z</time>
      </trkpt>
      <trkpt lat="46.70949" lon="5.64686">
        <ele>323.1</ele>
        <time>2021-03-29T11:51:27Z</time>
      </trkpt>
      <trkpt lat="46.70945" lon="5.64689">
        <ele>323.9</ele>
        <time>2021-03-29T11:51:32Z</time>
      </trkpt>
      <trkpt lat="46.70941" lon="5.64692">
        <ele>324.5</ele>
        <time>2021-03-29T11:51:37Z</time>
      </trkpt>
      <trkpt lat="46.70936" lon="5.64696">
        <ele>325.1</ele>
        <time>2021-03-29T11:51:43Z</time>
      </trkpt>
      <trkpt lat="46.70932" lon="5.64698">
        <ele>325.3</ele>
        <time>2021-03-29T11:51:48Z</time>
      </trkpt>
      <trkpt lat="46.70928" lon="5.64699">
        <ele>325.5</ele>
        <time>2021-03-29T11:51:52Z</time>
      </trkpt>
      <trkpt lat="46.70922" lon="5.64701">
        <ele>325.4</ele>
        <time>2021-03-29T11:51:57Z</time>
      </trkpt>
      <trkpt lat="46.70917" lon="5.64705">
        <ele>324.9</ele>
        <time>2021-03-29T11:52:02Z</time>
      </trkpt>
      <trkpt lat="46.70912" lon="5.64706">
        <ele>324.7</ele>
        <time>2021-03-29T11:52:10Z</time>
      </trkpt>
      <trkpt lat="46.70908" lon="5.64711">
        <ele>324.6</ele>
        <time>2021-03-29T11:52:15Z</time>
      </trkpt>
      <trkpt lat="46.70905" lon="5.64715">
        <ele>324.5</ele>
        <time>2021-03-29T11:52:21Z</time>
      </trkpt>
      <trkpt lat="46.709" lon="5.64717">
        <ele>324.7</ele>
        <time>2021-03-29T11:52:27Z</time>
      </trkpt>
      <trkpt lat="46.70895" lon="5.64719">
        <ele>325</ele>
        <time>2021-03-29T11:52:33Z</time>
      </trkpt>
      <trkpt lat="46.70889" lon="5.64721">
        <ele>325.4</ele>
        <time>2021-03-29T11:52:37Z</time>
      </trkpt>
      <trkpt lat="46.70884" lon="5.64722">
        <ele>325.9</ele>
        <time>2021-03-29T11:52:41Z</time>
      </trkpt>
      <trkpt lat="46.70879" lon="5.64725">
        <ele>326.2</ele>
        <time>2021-03-29T11:52:46Z</time>
      </trkpt>
      <trkpt lat="46.70875" lon="5.64728">
        <ele>324.8</ele>
        <time>2021-03-29T11:52:52Z</time>
      </trkpt>
      <trkpt lat="46.7087" lon="5.64729">
        <ele>323.8</ele>
        <time>2021-03-29T11:52:58Z</time>
      </trkpt>
      <trkpt lat="46.70864" lon="5.64731">
        <ele>322.8</ele>
        <time>2021-03-29T11:53:03Z</time>
      </trkpt>
      <trkpt lat="46.70859" lon="5.64732">
        <ele>321.8</ele>
        <time>2021-03-29T11:53:08Z</time>
      </trkpt>
      <trkpt lat="46.70854" lon="5.64733">
        <ele>320.2</ele>
        <time>2021-03-29T11:53:13Z</time>
      </trkpt>
      <trkpt lat="46.7085" lon="5.64737">
        <ele>318.7</ele>
        <time>2021-03-29T11:53:18Z</time>
      </trkpt>
      <trkpt lat="46.70845" lon="5.6474">
        <ele>317.9</ele>
        <time>2021-03-29T11:53:23Z</time>
      </trkpt>
      <trkpt lat="46.7084" lon="5.64742">
        <ele>317.3</ele>
        <time>2021-03-29T11:53:29Z</time>
      </trkpt>
      <trkpt lat="46.70835" lon="5.64744">
        <ele>317</ele>
        <time>2021-03-29T11:53:34Z</time>
      </trkpt>
      <trkpt lat="46.70831" lon="5.64747">
        <ele>316.8</ele>
        <time>2021-03-29T11:53:39Z</time>
      </trkpt>
      <trkpt lat="46.70826" lon="5.64749">
        <ele>315.9</ele>
        <time>2021-03-29T11:53:44Z</time>
      </trkpt>
      <trkpt lat="46.70821" lon="5.64752">
        <ele>315</ele>
        <time>2021-03-29T11:53:49Z</time>
      </trkpt>
      <trkpt lat="46.70817" lon="5.64755">
        <ele>314.2</ele>
        <time>2021-03-29T11:53:53Z</time>
      </trkpt>
      <trkpt lat="46.70813" lon="5.64758">
        <ele>313</ele>
        <time>2021-03-29T11:53:58Z</time>
      </trkpt>
      <trkpt lat="46.70808" lon="5.6476">
        <ele>312</ele>
        <time>2021-03-29T11:54:03Z</time>
      </trkpt>
      <trkpt lat="46.70804" lon="5.64763">
        <ele>310.8</ele>
        <time>2021-03-29T11:54:08Z</time>
      </trkpt>
      <trkpt lat="46.70799" lon="5.64764">
        <ele>310.3</ele>
        <time>2021-03-29T11:54:13Z</time>
      </trkpt>
      <trkpt lat="46.70793" lon="5.64764">
        <ele>310.4</ele>
        <time>2021-03-29T11:54:17Z</time>
      </trkpt>
      <trkpt lat="46.70788" lon="5.64762">
        <ele>310.6</ele>
        <time>2021-03-29T11:54:21Z</time>
      </trkpt>
      <trkpt lat="46.70784" lon="5.64758">
        <ele>311.2</ele>
        <time>2021-03-29T11:54:26Z</time>
      </trkpt>
      <trkpt lat="46.70782" lon="5.64751">
        <ele>311.4</ele>
        <time>2021-03-29T11:54:31Z</time>
      </trkpt>
      <trkpt lat="46.70782" lon="5.64745">
        <ele>310.9</ele>
        <time>2021-03-29T11:54:35Z</time>
      </trkpt>
      <trkpt lat="46.70784" lon="5.64737">
        <ele>308.8</ele>
        <time>2021-03-29T11:54:39Z</time>
      </trkpt>
      <trkpt lat="46.70784" lon="5.64729">
        <ele>306.8</ele>
        <time>2021-03-29T11:54:43Z</time>
      </trkpt>
      <trkpt lat="46.70784" lon="5.64722">
        <ele>304.7</ele>
        <time>2021-03-29T11:54:48Z</time>
      </trkpt>
      <trkpt lat="46.70784" lon="5.64715">
        <ele>302.4</ele>
        <time>2021-03-29T11:54:53Z</time>
      </trkpt>
      <trkpt lat="46.70783" lon="5.64708">
        <ele>301.1</ele>
        <time>2021-03-29T11:54:57Z</time>
      </trkpt>
      <trkpt lat="46.70782" lon="5.64702">
        <ele>299.8</ele>
        <time>2021-03-29T11:55:01Z</time>
      </trkpt>
      <trkpt lat="46.70781" lon="5.64695">
        <ele>298.1</ele>
        <time>2021-03-29T11:55:06Z</time>
      </trkpt>
      <trkpt lat="46.7078" lon="5.64688">
        <ele>286.4</ele>
        <time>2021-03-29T11:55:45Z</time>
      </trkpt>
      <trkpt lat="46.70778" lon="5.64681">
        <ele>287.1</ele>
        <time>2021-03-29T11:55:50Z</time>
      </trkpt>
      <trkpt lat="46.70776" lon="5.64675">
        <ele>287.8</ele>
        <time>2021-03-29T11:55:55Z</time>
      </trkpt>
      <trkpt lat="46.70776" lon="5.64668">
        <ele>288.3</ele>
        <time>2021-03-29T11:56:01Z</time>
      </trkpt>
      <trkpt lat="46.70775" lon="5.64661">
        <ele>288.5</ele>
        <time>2021-03-29T11:56:13Z</time>
      </trkpt>
      <trkpt lat="46.70773" lon="5.64654">
        <ele>288.8</ele>
        <time>2021-03-29T11:56:17Z</time>
      </trkpt>
      <trkpt lat="46.70772" lon="5.64646">
        <ele>288.6</ele>
        <time>2021-03-29T11:56:22Z</time>
      </trkpt>
      <trkpt lat="46.70771" lon="5.64639">
        <ele>288.7</ele>
        <time>2021-03-29T11:56:26Z</time>
      </trkpt>
      <trkpt lat="46.70768" lon="5.64634">
        <ele>290</ele>
        <time>2021-03-29T11:56:34Z</time>
      </trkpt>
      <trkpt lat="46.70763" lon="5.64634">
        <ele>291.7</ele>
        <time>2021-03-29T11:56:40Z</time>
      </trkpt>
      <trkpt lat="46.70758" lon="5.64637">
        <ele>293.8</ele>
        <time>2021-03-29T11:56:45Z</time>
      </trkpt>
      <trkpt lat="46.70754" lon="5.6464">
        <ele>295.9</ele>
        <time>2021-03-29T11:56:49Z</time>
      </trkpt>
      <trkpt lat="46.70749" lon="5.64643">
        <ele>297.6</ele>
        <time>2021-03-29T11:56:53Z</time>
      </trkpt>
      <trkpt lat="46.70745" lon="5.64647">
        <ele>299.2</ele>
        <time>2021-03-29T11:56:58Z</time>
      </trkpt>
      <trkpt lat="46.7074" lon="5.64646">
        <ele>301.3</ele>
        <time>2021-03-29T11:57:04Z</time>
      </trkpt>
      <trkpt lat="46.70736" lon="5.64648">
        <ele>303.1</ele>
        <time>2021-03-29T11:57:09Z</time>
      </trkpt>
      <trkpt lat="46.70731" lon="5.6465">
        <ele>304.6</ele>
        <time>2021-03-29T11:57:14Z</time>
      </trkpt>
      <trkpt lat="46.70727" lon="5.64654">
        <ele>306.4</ele>
        <time>2021-03-29T11:57:19Z</time>
      </trkpt>
      <trkpt lat="46.70723" lon="5.64657">
        <ele>307.8</ele>
        <time>2021-03-29T11:57:23Z</time>
      </trkpt>
      <trkpt lat="46.70718" lon="5.6466">
        <ele>309.1</ele>
        <time>2021-03-29T11:57:28Z</time>
      </trkpt>
      <trkpt lat="46.70712" lon="5.64661">
        <ele>310.3</ele>
        <time>2021-03-29T11:57:33Z</time>
      </trkpt>
      <trkpt lat="46.70707" lon="5.64662">
        <ele>311.2</ele>
        <time>2021-03-29T11:57:38Z</time>
      </trkpt>
      <trkpt lat="46.70702" lon="5.64664">
        <ele>311.3</ele>
        <time>2021-03-29T11:57:42Z</time>
      </trkpt>
      <trkpt lat="46.70697" lon="5.64664">
        <ele>311</ele>
        <time>2021-03-29T11:57:47Z</time>
      </trkpt>
      <trkpt lat="46.70692" lon="5.64665">
        <ele>311</ele>
        <time>2021-03-29T11:57:52Z</time>
      </trkpt>
      <trkpt lat="46.70687" lon="5.64665">
        <ele>311.2</ele>
        <time>2021-03-29T11:57:57Z</time>
      </trkpt>
      <trkpt lat="46.70681" lon="5.64667">
        <ele>311.4</ele>
        <time>2021-03-29T11:58:02Z</time>
      </trkpt>
      <trkpt lat="46.70677" lon="5.6467">
        <ele>312</ele>
        <time>2021-03-29T11:58:08Z</time>
      </trkpt>
      <trkpt lat="46.70672" lon="5.64673">
        <ele>312.9</ele>
        <time>2021-03-29T11:58:16Z</time>
      </trkpt>
      <trkpt lat="46.70666" lon="5.64671">
        <ele>313.5</ele>
        <time>2021-03-29T11:58:21Z</time>
      </trkpt>
      <trkpt lat="46.70662" lon="5.6467">
        <ele>313.4</ele>
        <time>2021-03-29T11:58:25Z</time>
      </trkpt>
      <trkpt lat="46.70656" lon="5.64669">
        <ele>313.1</ele>
        <time>2021-03-29T11:58:30Z</time>
      </trkpt>
      <trkpt lat="46.70652" lon="5.64666">
        <ele>312.8</ele>
        <time>2021-03-29T11:58:36Z</time>
      </trkpt>
      <trkpt lat="46.70647" lon="5.64664">
        <ele>312.3</ele>
        <time>2021-03-29T11:58:42Z</time>
      </trkpt>
      <trkpt lat="46.70642" lon="5.64663">
        <ele>311.9</ele>
        <time>2021-03-29T11:58:46Z</time>
      </trkpt>
      <trkpt lat="46.70637" lon="5.64663">
        <ele>311.6</ele>
        <time>2021-03-29T11:58:50Z</time>
      </trkpt>
      <trkpt lat="46.70632" lon="5.64663">
        <ele>311.3</ele>
        <time>2021-03-29T11:58:56Z</time>
      </trkpt>
      <trkpt lat="46.70627" lon="5.64663">
        <ele>310.9</ele>
        <time>2021-03-29T11:59:02Z</time>
      </trkpt>
      <trkpt lat="46.70622" lon="5.6466">
        <ele>310.8</ele>
        <time>2021-03-29T11:59:06Z</time>
      </trkpt>
      <trkpt lat="46.70617" lon="5.64657">
        <ele>310.8</ele>
        <time>2021-03-29T11:59:10Z</time>
      </trkpt>
      <trkpt lat="46.70612" lon="5.64655">
        <ele>311</ele>
        <time>2021-03-29T11:59:14Z</time>
      </trkpt>
      <trkpt lat="46.70608" lon="5.64654">
        <ele>311.3</ele>
        <time>2021-03-29T11:59:19Z</time>
      </trkpt>
      <trkpt lat="46.70603" lon="5.64656">
        <ele>311.4</ele>
        <time>2021-03-29T11:59:25Z</time>
      </trkpt>
      <trkpt lat="46.70598" lon="5.64655">
        <ele>311.3</ele>
        <time>2021-03-29T11:59:31Z</time>
      </trkpt>
      <trkpt lat="46.70594" lon="5.64654">
        <ele>311.7</ele>
        <time>2021-03-29T11:59:40Z</time>
      </trkpt>
      <trkpt lat="46.70589" lon="5.64651">
        <ele>310.6</ele>
        <time>2021-03-29T12:00:11Z</time>
      </trkpt>
      <trkpt lat="46.70585" lon="5.64653">
        <ele>309</ele>
        <time>2021-03-29T12:00:43Z</time>
      </trkpt>
      <trkpt lat="46.7058" lon="5.64653">
        <ele>309.3</ele>
        <time>2021-03-29T12:00:51Z</time>
      </trkpt>
      <trkpt lat="46.70575" lon="5.64656">
        <ele>309.7</ele>
        <time>2021-03-29T12:00:57Z</time>
      </trkpt>
      <trkpt lat="46.7057" lon="5.64656">
        <ele>310.4</ele>
        <time>2021-03-29T12:01:03Z</time>
      </trkpt>
      <trkpt lat="46.70565" lon="5.64659">
        <ele>311.2</ele>
        <time>2021-03-29T12:01:07Z</time>
      </trkpt>
      <trkpt lat="46.7056" lon="5.64661">
        <ele>312.2</ele>
        <time>2021-03-29T12:01:12Z</time>
      </trkpt>
      <trkpt lat="46.70556" lon="5.64662">
        <ele>312.8</ele>
        <time>2021-03-29T12:01:16Z</time>
      </trkpt>
      <trkpt lat="46.70551" lon="5.64665">
        <ele>313.4</ele>
        <time>2021-03-29T12:01:22Z</time>
      </trkpt>
      <trkpt lat="46.70546" lon="5.64666">
        <ele>313</ele>
        <time>2021-03-29T12:01:27Z</time>
      </trkpt>
      <trkpt lat="46.70541" lon="5.64669">
        <ele>312</ele>
        <time>2021-03-29T12:01:33Z</time>
      </trkpt>
      <trkpt lat="46.70536" lon="5.6467">
        <ele>311.3</ele>
        <time>2021-03-29T12:01:40Z</time>
      </trkpt>
      <trkpt lat="46.70531" lon="5.64674">
        <ele>312.2</ele>
        <time>2021-03-29T12:01:46Z</time>
      </trkpt>
      <trkpt lat="46.70526" lon="5.64676">
        <ele>313.6</ele>
        <time>2021-03-29T12:01:50Z</time>
      </trkpt>
      <trkpt lat="46.70521" lon="5.64675">
        <ele>315</ele>
        <time>2021-03-29T12:01:54Z</time>
      </trkpt>
      <trkpt lat="46.70515" lon="5.64675">
        <ele>315.8</ele>
        <time>2021-03-29T12:01:58Z</time>
      </trkpt>
      <trkpt lat="46.70509" lon="5.64678">
        <ele>316.8</ele>
        <time>2021-03-29T12:02:02Z</time>
      </trkpt>
      <trkpt lat="46.70504" lon="5.64674">
        <ele>318.1</ele>
        <time>2021-03-29T12:02:07Z</time>
      </trkpt>
      <trkpt lat="46.70499" lon="5.64671">
        <ele>319.3</ele>
        <time>2021-03-29T12:02:12Z</time>
      </trkpt>
      <trkpt lat="46.70497" lon="5.64664">
        <ele>319.5</ele>
        <time>2021-03-29T12:02:16Z</time>
      </trkpt>
      <trkpt lat="46.70494" lon="5.64659">
        <ele>319.7</ele>
        <time>2021-03-29T12:02:21Z</time>
      </trkpt>
      <trkpt lat="46.7049" lon="5.64656">
        <ele>319.6</ele>
        <time>2021-03-29T12:02:27Z</time>
      </trkpt>
      <trkpt lat="46.70485" lon="5.64655">
        <ele>319.6</ele>
        <time>2021-03-29T12:02:31Z</time>
      </trkpt>
      <trkpt lat="46.70479" lon="5.64654">
        <ele>320.4</ele>
        <time>2021-03-29T12:02:36Z</time>
      </trkpt>
      <trkpt lat="46.70475" lon="5.64652">
        <ele>320.9</ele>
        <time>2021-03-29T12:02:40Z</time>
      </trkpt>
      <trkpt lat="46.7047" lon="5.6465">
        <ele>321.7</ele>
        <time>2021-03-29T12:02:45Z</time>
      </trkpt>
      <trkpt lat="46.70465" lon="5.64648">
        <ele>322.7</ele>
        <time>2021-03-29T12:02:50Z</time>
      </trkpt>
      <trkpt lat="46.70461" lon="5.64646">
        <ele>323.5</ele>
        <time>2021-03-29T12:02:55Z</time>
      </trkpt>
      <trkpt lat="46.70456" lon="5.64644">
        <ele>323.7</ele>
        <time>2021-03-29T12:03:00Z</time>
      </trkpt>
      <trkpt lat="46.70452" lon="5.6464">
        <ele>323.7</ele>
        <time>2021-03-29T12:03:05Z</time>
      </trkpt>
      <trkpt lat="46.70448" lon="5.64637">
        <ele>322.8</ele>
        <time>2021-03-29T12:03:10Z</time>
      </trkpt>
      <trkpt lat="46.70443" lon="5.64633">
        <ele>321.1</ele>
        <time>2021-03-29T12:03:16Z</time>
      </trkpt>
      <trkpt lat="46.70438" lon="5.64631">
        <ele>320</ele>
        <time>2021-03-29T12:03:21Z</time>
      </trkpt>
      <trkpt lat="46.70433" lon="5.64628">
        <ele>319</ele>
        <time>2021-03-29T12:03:26Z</time>
      </trkpt>
      <trkpt lat="46.70429" lon="5.64626">
        <ele>318.5</ele>
        <time>2021-03-29T12:03:30Z</time>
      </trkpt>
      <trkpt lat="46.70424" lon="5.64621">
        <ele>318.1</ele>
        <time>2021-03-29T12:03:35Z</time>
      </trkpt>
      <trkpt lat="46.7042" lon="5.64617">
        <ele>317.8</ele>
        <time>2021-03-29T12:03:40Z</time>
      </trkpt>
      <trkpt lat="46.70415" lon="5.64614">
        <ele>317.5</ele>
        <time>2021-03-29T12:03:45Z</time>
      </trkpt>
      <trkpt lat="46.7041" lon="5.6461">
        <ele>317</ele>
        <time>2021-03-29T12:03:50Z</time>
      </trkpt>
      <trkpt lat="46.70407" lon="5.64604">
        <ele>316.4</ele>
        <time>2021-03-29T12:03:55Z</time>
      </trkpt>
      <trkpt lat="46.70405" lon="5.64598">
        <ele>315.7</ele>
        <time>2021-03-29T12:04:00Z</time>
      </trkpt>
      <trkpt lat="46.70405" lon="5.64592">
        <ele>315.1</ele>
        <time>2021-03-29T12:04:07Z</time>
      </trkpt>
      <trkpt lat="46.70407" lon="5.64586">
        <ele>315.1</ele>
        <time>2021-03-29T12:04:37Z</time>
      </trkpt>
      <trkpt lat="46.70411" lon="5.64582">
        <ele>315.1</ele>
        <time>2021-03-29T12:04:44Z</time>
      </trkpt>
      <trkpt lat="46.70416" lon="5.64581">
        <ele>314.8</ele>
        <time>2021-03-29T12:04:58Z</time>
      </trkpt>
      <trkpt lat="46.7042" lon="5.64578">
        <ele>314.5</ele>
        <time>2021-03-29T12:05:04Z</time>
      </trkpt>
      <trkpt lat="46.70425" lon="5.64573">
        <ele>314.4</ele>
        <time>2021-03-29T12:05:09Z</time>
      </trkpt>
      <trkpt lat="46.70428" lon="5.64569">
        <ele>314.9</ele>
        <time>2021-03-29T12:05:16Z</time>
      </trkpt>
      <trkpt lat="46.70431" lon="5.64563">
        <ele>315.3</ele>
        <time>2021-03-29T12:05:25Z</time>
      </trkpt>
      <trkpt lat="46.7043" lon="5.64556">
        <ele>315.4</ele>
        <time>2021-03-29T12:05:31Z</time>
      </trkpt>
      <trkpt lat="46.70426" lon="5.64551">
        <ele>315.8</ele>
        <time>2021-03-29T12:05:43Z</time>
      </trkpt>
      <trkpt lat="46.70425" lon="5.64543">
        <ele>316.3</ele>
        <time>2021-03-29T12:05:50Z</time>
      </trkpt>
      <trkpt lat="46.70422" lon="5.64538">
        <ele>316.6</ele>
        <time>2021-03-29T12:05:57Z</time>
      </trkpt>
      <trkpt lat="46.7042" lon="5.64532">
        <ele>316.4</ele>
        <time>2021-03-29T12:06:06Z</time>
      </trkpt>
      <trkpt lat="46.70417" lon="5.64527">
        <ele>316.5</ele>
        <time>2021-03-29T12:06:15Z</time>
      </trkpt>
      <trkpt lat="46.70413" lon="5.64523">
        <ele>317.3</ele>
        <time>2021-03-29T12:06:24Z</time>
      </trkpt>
      <trkpt lat="46.7041" lon="5.64517">
        <ele>318</ele>
        <time>2021-03-29T12:06:32Z</time>
      </trkpt>
      <trkpt lat="46.70408" lon="5.64511">
        <ele>318.5</ele>
        <time>2021-03-29T12:06:38Z</time>
      </trkpt>
      <trkpt lat="46.70405" lon="5.64505">
        <ele>319.1</ele>
        <time>2021-03-29T12:06:45Z</time>
      </trkpt>
      <trkpt lat="46.70401" lon="5.645">
        <ele>319.3</ele>
        <time>2021-03-29T12:06:51Z</time>
      </trkpt>
      <trkpt lat="46.70397" lon="5.64496">
        <ele>319.3</ele>
        <time>2021-03-29T12:06:58Z</time>
      </trkpt>
      <trkpt lat="46.70392" lon="5.64497">
        <ele>319.3</ele>
        <time>2021-03-29T12:07:03Z</time>
      </trkpt>
      <trkpt lat="46.70388" lon="5.64495">
        <ele>319.9</ele>
        <time>2021-03-29T12:07:10Z</time>
      </trkpt>
      <trkpt lat="46.70383" lon="5.64497">
        <ele>321.3</ele>
        <time>2021-03-29T12:07:16Z</time>
      </trkpt>
      <trkpt lat="46.70378" lon="5.64496">
        <ele>324.3</ele>
        <time>2021-03-29T12:07:24Z</time>
      </trkpt>
      <trkpt lat="46.70375" lon="5.64491">
        <ele>327</ele>
        <time>2021-03-29T12:07:31Z</time>
      </trkpt>
      <trkpt lat="46.70373" lon="5.64485">
        <ele>328.8</ele>
        <time>2021-03-29T12:07:40Z</time>
      </trkpt>
      <trkpt lat="46.70374" lon="5.64477">
        <ele>330.3</ele>
        <time>2021-03-29T12:08:26Z</time>
      </trkpt>
      <trkpt lat="46.70372" lon="5.64471">
        <ele>332.5</ele>
        <time>2021-03-29T12:08:35Z</time>
      </trkpt>
      <trkpt lat="46.70371" lon="5.64464">
        <ele>331.7</ele>
        <time>2021-03-29T12:09:58Z</time>
      </trkpt>
      <trkpt lat="46.70367" lon="5.64458">
        <ele>331</ele>
        <time>2021-03-29T12:10:05Z</time>
      </trkpt>
      <trkpt lat="46.70361" lon="5.64458">
        <ele>330.5</ele>
        <time>2021-03-29T12:10:10Z</time>
      </trkpt>
      <trkpt lat="46.70357" lon="5.64456">
        <ele>330.1</ele>
        <time>2021-03-29T12:10:15Z</time>
      </trkpt>
      <trkpt lat="46.70352" lon="5.64452">
        <ele>329.4</ele>
        <time>2021-03-29T12:10:21Z</time>
      </trkpt>
      <trkpt lat="46.70347" lon="5.64449">
        <ele>328.6</ele>
        <time>2021-03-29T12:10:27Z</time>
      </trkpt>
      <trkpt lat="46.70345" lon="5.64442">
        <ele>327.7</ele>
        <time>2021-03-29T12:10:36Z</time>
      </trkpt>
      <trkpt lat="46.70347" lon="5.64436">
        <ele>327.4</ele>
        <time>2021-03-29T12:10:41Z</time>
      </trkpt>
      <trkpt lat="46.70351" lon="5.64422">
        <ele>327.2</ele>
        <time>2021-03-29T12:10:45Z</time>
      </trkpt>
      <trkpt lat="46.70351" lon="5.64416">
        <ele>326.9</ele>
        <time>2021-03-29T12:10:49Z</time>
      </trkpt>
      <trkpt lat="46.7035" lon="5.64409">
        <ele>326.8</ele>
        <time>2021-03-29T12:10:53Z</time>
      </trkpt>
      <trkpt lat="46.70349" lon="5.64402">
        <ele>326.7</ele>
        <time>2021-03-29T12:10:57Z</time>
      </trkpt>
      <trkpt lat="46.70345" lon="5.64397">
        <ele>326.4</ele>
        <time>2021-03-29T12:11:05Z</time>
      </trkpt>
      <trkpt lat="46.70341" lon="5.64394">
        <ele>325.9</ele>
        <time>2021-03-29T12:11:13Z</time>
      </trkpt>
      <trkpt lat="46.70337" lon="5.64391">
        <ele>325.4</ele>
        <time>2021-03-29T12:11:20Z</time>
      </trkpt>
      <trkpt lat="46.70333" lon="5.64387">
        <ele>325</ele>
        <time>2021-03-29T12:11:26Z</time>
      </trkpt>
      <trkpt lat="46.70329" lon="5.64383">
        <ele>324.6</ele>
        <time>2021-03-29T12:11:33Z</time>
      </trkpt>
      <trkpt lat="46.70325" lon="5.6438">
        <ele>324.5</ele>
        <time>2021-03-29T12:11:40Z</time>
      </trkpt>
      <trkpt lat="46.7032" lon="5.64378">
        <ele>324.5</ele>
        <time>2021-03-29T12:11:46Z</time>
      </trkpt>
      <trkpt lat="46.70316" lon="5.64375">
        <ele>324.3</ele>
        <time>2021-03-29T12:11:51Z</time>
      </trkpt>
      <trkpt lat="46.7031" lon="5.64375">
        <ele>323.8</ele>
        <time>2021-03-29T12:11:57Z</time>
      </trkpt>
      <trkpt lat="46.70305" lon="5.64372">
        <ele>323.2</ele>
        <time>2021-03-29T12:12:03Z</time>
      </trkpt>
      <trkpt lat="46.703" lon="5.6437">
        <ele>322.6</ele>
        <time>2021-03-29T12:12:08Z</time>
      </trkpt>
      <trkpt lat="46.70296" lon="5.64369">
        <ele>322.2</ele>
        <time>2021-03-29T12:12:12Z</time>
      </trkpt>
      <trkpt lat="46.7029" lon="5.6437">
        <ele>321.8</ele>
        <time>2021-03-29T12:12:17Z</time>
      </trkpt>
      <trkpt lat="46.70285" lon="5.64371">
        <ele>321.2</ele>
        <time>2021-03-29T12:12:22Z</time>
      </trkpt>
      <trkpt lat="46.7028" lon="5.64371">
        <ele>320.7</ele>
        <time>2021-03-29T12:12:27Z</time>
      </trkpt>
      <trkpt lat="46.70275" lon="5.64369">
        <ele>320.7</ele>
        <time>2021-03-29T12:12:33Z</time>
      </trkpt>
      <trkpt lat="46.7027" lon="5.64367">
        <ele>320.9</ele>
        <time>2021-03-29T12:12:39Z</time>
      </trkpt>
      <trkpt lat="46.70265" lon="5.64366">
        <ele>321.4</ele>
        <time>2021-03-29T12:12:44Z</time>
      </trkpt>
      <trkpt lat="46.70261" lon="5.64366">
        <ele>321.4</ele>
        <time>2021-03-29T12:12:49Z</time>
      </trkpt>
      <trkpt lat="46.70256" lon="5.64365">
        <ele>321.4</ele>
        <time>2021-03-29T12:12:54Z</time>
      </trkpt>
      <trkpt lat="46.70251" lon="5.64363">
        <ele>321.5</ele>
        <time>2021-03-29T12:13:00Z</time>
      </trkpt>
      <trkpt lat="46.70247" lon="5.64364">
        <ele>321.8</ele>
        <time>2021-03-29T12:13:07Z</time>
      </trkpt>
      <trkpt lat="46.70242" lon="5.64366">
        <ele>321.6</ele>
        <time>2021-03-29T12:13:14Z</time>
      </trkpt>
      <trkpt lat="46.70238" lon="5.64365">
        <ele>321.6</ele>
        <time>2021-03-29T12:13:20Z</time>
      </trkpt>
      <trkpt lat="46.70233" lon="5.64364">
        <ele>322</ele>
        <time>2021-03-29T12:13:26Z</time>
      </trkpt>
      <trkpt lat="46.70228" lon="5.64363">
        <ele>322.3</ele>
        <time>2021-03-29T12:13:34Z</time>
      </trkpt>
      <trkpt lat="46.70224" lon="5.64362">
        <ele>322.2</ele>
        <time>2021-03-29T12:13:41Z</time>
      </trkpt>
      <trkpt lat="46.70216" lon="5.64359">
        <ele>321.7</ele>
        <time>2021-03-29T12:14:01Z</time>
      </trkpt>
      <trkpt lat="46.7021" lon="5.64357">
        <ele>321.5</ele>
        <time>2021-03-29T12:14:05Z</time>
      </trkpt>
      <trkpt lat="46.70205" lon="5.64354">
        <ele>321.1</ele>
        <time>2021-03-29T12:14:11Z</time>
      </trkpt>
      <trkpt lat="46.70201" lon="5.64358">
        <ele>320.9</ele>
        <time>2021-03-29T12:14:21Z</time>
      </trkpt>
      <trkpt lat="46.70197" lon="5.64362">
        <ele>320.4</ele>
        <time>2021-03-29T12:14:28Z</time>
      </trkpt>
      <trkpt lat="46.70193" lon="5.64367">
        <ele>319.5</ele>
        <time>2021-03-29T12:14:34Z</time>
      </trkpt>
      <trkpt lat="46.70189" lon="5.64363">
        <ele>317.1</ele>
        <time>2021-03-29T12:14:52Z</time>
      </trkpt>
      <trkpt lat="46.70184" lon="5.6436">
        <ele>315.6</ele>
        <time>2021-03-29T12:14:57Z</time>
      </trkpt>
      <trkpt lat="46.70185" lon="5.64352">
        <ele>313.6</ele>
        <time>2021-03-29T12:15:06Z</time>
      </trkpt>
      <trkpt lat="46.70184" lon="5.64346">
        <ele>312.7</ele>
        <time>2021-03-29T12:15:11Z</time>
      </trkpt>
      <trkpt lat="46.70181" lon="5.64339">
        <ele>311.6</ele>
        <time>2021-03-29T12:15:16Z</time>
      </trkpt>
      <trkpt lat="46.70176" lon="5.64337">
        <ele>310.2</ele>
        <time>2021-03-29T12:15:22Z</time>
      </trkpt>
      <trkpt lat="46.70171" lon="5.64335">
        <ele>308.7</ele>
        <time>2021-03-29T12:15:27Z</time>
      </trkpt>
      <trkpt lat="46.70166" lon="5.64332">
        <ele>307.1</ele>
        <time>2021-03-29T12:15:32Z</time>
      </trkpt>
      <trkpt lat="46.70163" lon="5.64327">
        <ele>305.4</ele>
        <time>2021-03-29T12:15:38Z</time>
      </trkpt>
      <trkpt lat="46.70161" lon="5.64321">
        <ele>303.8</ele>
        <time>2021-03-29T12:15:45Z</time>
      </trkpt>
      <trkpt lat="46.70157" lon="5.64316">
        <ele>302.5</ele>
        <time>2021-03-29T12:15:51Z</time>
      </trkpt>
      <trkpt lat="46.70155" lon="5.6431">
        <ele>302</ele>
        <time>2021-03-29T12:15:59Z</time>
      </trkpt>
      <trkpt lat="46.70153" lon="5.64304">
        <ele>301.4</ele>
        <time>2021-03-29T12:16:06Z</time>
      </trkpt>
      <trkpt lat="46.70149" lon="5.643">
        <ele>300.9</ele>
        <time>2021-03-29T12:16:11Z</time>
      </trkpt>
      <trkpt lat="46.70144" lon="5.64297">
        <ele>300.1</ele>
        <time>2021-03-29T12:16:16Z</time>
      </trkpt>
      <trkpt lat="46.70139" lon="5.64294">
        <ele>299.3</ele>
        <time>2021-03-29T12:16:22Z</time>
      </trkpt>
      <trkpt lat="46.70135" lon="5.6429">
        <ele>298.7</ele>
        <time>2021-03-29T12:16:28Z</time>
      </trkpt>
      <trkpt lat="46.70131" lon="5.64285">
        <ele>298.1</ele>
        <time>2021-03-29T12:16:34Z</time>
      </trkpt>
      <trkpt lat="46.70125" lon="5.64286">
        <ele>299.8</ele>
        <time>2021-03-29T12:16:38Z</time>
      </trkpt>
      <trkpt lat="46.70119" lon="5.64284">
        <ele>300.5</ele>
        <time>2021-03-29T12:16:43Z</time>
      </trkpt>
      <trkpt lat="46.70114" lon="5.64282">
        <ele>300.4</ele>
        <time>2021-03-29T12:16:48Z</time>
      </trkpt>
      <trkpt lat="46.7011" lon="5.64279">
        <ele>299.8</ele>
        <time>2021-03-29T12:16:54Z</time>
      </trkpt>
      <trkpt lat="46.70106" lon="5.64274">
        <ele>299.3</ele>
        <time>2021-03-29T12:16:59Z</time>
      </trkpt>
      <trkpt lat="46.70102" lon="5.64271">
        <ele>298.8</ele>
        <time>2021-03-29T12:17:05Z</time>
      </trkpt>
      <trkpt lat="46.70097" lon="5.6427">
        <ele>298.8</ele>
        <time>2021-03-29T12:17:10Z</time>
      </trkpt>
      <trkpt lat="46.70092" lon="5.64269">
        <ele>299.1</ele>
        <time>2021-03-29T12:17:14Z</time>
      </trkpt>
      <trkpt lat="46.70088" lon="5.64268">
        <ele>299.5</ele>
        <time>2021-03-29T12:17:19Z</time>
      </trkpt>
      <trkpt lat="46.70084" lon="5.64263">
        <ele>300.3</ele>
        <time>2021-03-29T12:17:24Z</time>
      </trkpt>
      <trkpt lat="46.70079" lon="5.64258">
        <ele>301.8</ele>
        <time>2021-03-29T12:17:28Z</time>
      </trkpt>
      <trkpt lat="46.70076" lon="5.64253">
        <ele>303</ele>
        <time>2021-03-29T12:17:32Z</time>
      </trkpt>
      <trkpt lat="46.70073" lon="5.64247">
        <ele>303.5</ele>
        <time>2021-03-29T12:17:37Z</time>
      </trkpt>
      <trkpt lat="46.7007" lon="5.64241">
        <ele>303.5</ele>
        <time>2021-03-29T12:17:42Z</time>
      </trkpt>
      <trkpt lat="46.70066" lon="5.64238">
        <ele>303.4</ele>
        <time>2021-03-29T12:17:47Z</time>
      </trkpt>
      <trkpt lat="46.70061" lon="5.64236">
        <ele>303.4</ele>
        <time>2021-03-29T12:17:53Z</time>
      </trkpt>
      <trkpt lat="46.70057" lon="5.64236">
        <ele>303.8</ele>
        <time>2021-03-29T12:17:59Z</time>
      </trkpt>
      <trkpt lat="46.70053" lon="5.64234">
        <ele>303.4</ele>
        <time>2021-03-29T12:18:05Z</time>
      </trkpt>
      <trkpt lat="46.70049" lon="5.64229">
        <ele>302.9</ele>
        <time>2021-03-29T12:18:12Z</time>
      </trkpt>
      <trkpt lat="46.70044" lon="5.64234">
        <ele>303.6</ele>
        <time>2021-03-29T12:18:16Z</time>
      </trkpt>
      <trkpt lat="46.70039" lon="5.64234">
        <ele>304.4</ele>
        <time>2021-03-29T12:18:22Z</time>
      </trkpt>
      <trkpt lat="46.70034" lon="5.64232">
        <ele>304.8</ele>
        <time>2021-03-29T12:18:28Z</time>
      </trkpt>
      <trkpt lat="46.70029" lon="5.64231">
        <ele>305.1</ele>
        <time>2021-03-29T12:18:33Z</time>
      </trkpt>
      <trkpt lat="46.70025" lon="5.64228">
        <ele>305.3</ele>
        <time>2021-03-29T12:18:39Z</time>
      </trkpt>
      <trkpt lat="46.7002" lon="5.64224">
        <ele>305.3</ele>
        <time>2021-03-29T12:18:46Z</time>
      </trkpt>
      <trkpt lat="46.70016" lon="5.64222">
        <ele>305.2</ele>
        <time>2021-03-29T12:18:54Z</time>
      </trkpt>
      <trkpt lat="46.70011" lon="5.64222">
        <ele>307</ele>
        <time>2021-03-29T12:18:59Z</time>
      </trkpt>
      <trkpt lat="46.70007" lon="5.64219">
        <ele>309.2</ele>
        <time>2021-03-29T12:19:07Z</time>
      </trkpt>
      <trkpt lat="46.70004" lon="5.64212">
        <ele>309.9</ele>
        <time>2021-03-29T12:19:16Z</time>
      </trkpt>
      <trkpt lat="46.70001" lon="5.64208">
        <ele>310.1</ele>
        <time>2021-03-29T12:19:20Z</time>
      </trkpt>
      <trkpt lat="46.69995" lon="5.64204">
        <ele>310.8</ele>
        <time>2021-03-29T12:19:24Z</time>
      </trkpt>
      <trkpt lat="46.69991" lon="5.64201">
        <ele>311.3</ele>
        <time>2021-03-29T12:19:30Z</time>
      </trkpt>
      <trkpt lat="46.69985" lon="5.64199">
        <ele>311.2</ele>
        <time>2021-03-29T12:19:36Z</time>
      </trkpt>
      <trkpt lat="46.69981" lon="5.64197">
        <ele>311.2</ele>
        <time>2021-03-29T12:19:40Z</time>
      </trkpt>
      <trkpt lat="46.69975" lon="5.64196">
        <ele>311.3</ele>
        <time>2021-03-29T12:19:45Z</time>
      </trkpt>
      <trkpt lat="46.69971" lon="5.64195">
        <ele>311.2</ele>
        <time>2021-03-29T12:19:51Z</time>
      </trkpt>
      <trkpt lat="46.69966" lon="5.64194">
        <ele>310.9</ele>
        <time>2021-03-29T12:19:56Z</time>
      </trkpt>
      <trkpt lat="46.69961" lon="5.64195">
        <ele>310.5</ele>
        <time>2021-03-29T12:20:01Z</time>
      </trkpt>
      <trkpt lat="46.69957" lon="5.64191">
        <ele>310</ele>
        <time>2021-03-29T12:20:08Z</time>
      </trkpt>
      <trkpt lat="46.69952" lon="5.64192">
        <ele>310.1</ele>
        <time>2021-03-29T12:20:15Z</time>
      </trkpt>
      <trkpt lat="46.69947" lon="5.64189">
        <ele>310.6</ele>
        <time>2021-03-29T12:20:21Z</time>
      </trkpt>
      <trkpt lat="46.69944" lon="5.64183">
        <ele>310.8</ele>
        <time>2021-03-29T12:20:27Z</time>
      </trkpt>
      <trkpt lat="46.69941" lon="5.64178">
        <ele>310.9</ele>
        <time>2021-03-29T12:20:34Z</time>
      </trkpt>
      <trkpt lat="46.69936" lon="5.64175">
        <ele>310.7</ele>
        <time>2021-03-29T12:20:44Z</time>
      </trkpt>
      <trkpt lat="46.69932" lon="5.64174">
        <ele>310.5</ele>
        <time>2021-03-29T12:20:48Z</time>
      </trkpt>
      <trkpt lat="46.69927" lon="5.64171">
        <ele>310.4</ele>
        <time>2021-03-29T12:20:54Z</time>
      </trkpt>
      <trkpt lat="46.69922" lon="5.64171">
        <ele>311.1</ele>
        <time>2021-03-29T12:20:58Z</time>
      </trkpt>
      <trkpt lat="46.69917" lon="5.64171">
        <ele>311.5</ele>
        <time>2021-03-29T12:21:04Z</time>
      </trkpt>
      <trkpt lat="46.69912" lon="5.64169">
        <ele>311.5</ele>
        <time>2021-03-29T12:21:10Z</time>
      </trkpt>
      <trkpt lat="46.69907" lon="5.64168">
        <ele>311.3</ele>
        <time>2021-03-29T12:21:17Z</time>
      </trkpt>
      <trkpt lat="46.69903" lon="5.64163">
        <ele>310.5</ele>
        <time>2021-03-29T12:21:22Z</time>
      </trkpt>
      <trkpt lat="46.69899" lon="5.64159">
        <ele>309</ele>
        <time>2021-03-29T12:21:28Z</time>
      </trkpt>
      <trkpt lat="46.69895" lon="5.64154">
        <ele>307.7</ele>
        <time>2021-03-29T12:21:36Z</time>
      </trkpt>
      <trkpt lat="46.69893" lon="5.64148">
        <ele>306.7</ele>
        <time>2021-03-29T12:21:44Z</time>
      </trkpt>
      <trkpt lat="46.69887" lon="5.64148">
        <ele>305.8</ele>
        <time>2021-03-29T12:21:51Z</time>
      </trkpt>
      <trkpt lat="46.69882" lon="5.64149">
        <ele>304.8</ele>
        <time>2021-03-29T12:21:57Z</time>
      </trkpt>
      <trkpt lat="46.69877" lon="5.64151">
        <ele>304</ele>
        <time>2021-03-29T12:22:02Z</time>
      </trkpt>
      <trkpt lat="46.69873" lon="5.64151">
        <ele>303.5</ele>
        <time>2021-03-29T12:22:07Z</time>
      </trkpt>
      <trkpt lat="46.69868" lon="5.6415">
        <ele>303</ele>
        <time>2021-03-29T12:22:12Z</time>
      </trkpt>
      <trkpt lat="46.69863" lon="5.6415">
        <ele>302.6</ele>
        <time>2021-03-29T12:22:19Z</time>
      </trkpt>
      <trkpt lat="46.69859" lon="5.64152">
        <ele>302.8</ele>
        <time>2021-03-29T12:22:28Z</time>
      </trkpt>
      <trkpt lat="46.69855" lon="5.64157">
        <ele>303.2</ele>
        <time>2021-03-29T12:22:39Z</time>
      </trkpt>
      <trkpt lat="46.6985" lon="5.6416">
        <ele>303.6</ele>
        <time>2021-03-29T12:22:43Z</time>
      </trkpt>
      <trkpt lat="46.69845" lon="5.64164">
        <ele>303.9</ele>
        <time>2021-03-29T12:22:47Z</time>
      </trkpt>
      <trkpt lat="46.6984" lon="5.64169">
        <ele>304.2</ele>
        <time>2021-03-29T12:22:51Z</time>
      </trkpt>
      <trkpt lat="46.69835" lon="5.64166">
        <ele>304.8</ele>
        <time>2021-03-29T12:22:58Z</time>
      </trkpt>
      <trkpt lat="46.6983" lon="5.64163">
        <ele>305.2</ele>
        <time>2021-03-29T12:23:05Z</time>
      </trkpt>
      <trkpt lat="46.69824" lon="5.64164">
        <ele>305.6</ele>
        <time>2021-03-29T12:23:11Z</time>
      </trkpt>
      <trkpt lat="46.69818" lon="5.64166">
        <ele>305.8</ele>
        <time>2021-03-29T12:23:16Z</time>
      </trkpt>
      <trkpt lat="46.69814" lon="5.64169">
        <ele>306.2</ele>
        <time>2021-03-29T12:23:21Z</time>
      </trkpt>
      <trkpt lat="46.69809" lon="5.64167">
        <ele>306.6</ele>
        <time>2021-03-29T12:23:28Z</time>
      </trkpt>
      <trkpt lat="46.69804" lon="5.64166">
        <ele>306.8</ele>
        <time>2021-03-29T12:23:34Z</time>
      </trkpt>
      <trkpt lat="46.69797" lon="5.64176">
        <ele>308.9</ele>
        <time>2021-03-29T12:23:38Z</time>
      </trkpt>
      <trkpt lat="46.69789" lon="5.64187">
        <ele>311.1</ele>
        <time>2021-03-29T12:23:42Z</time>
      </trkpt>
      <trkpt lat="46.69789" lon="5.6418">
        <ele>314.7</ele>
        <time>2021-03-29T12:24:00Z</time>
      </trkpt>
      <trkpt lat="46.69787" lon="5.64174">
        <ele>315</ele>
        <time>2021-03-29T12:24:06Z</time>
      </trkpt>
      <trkpt lat="46.69782" lon="5.64173">
        <ele>315.1</ele>
        <time>2021-03-29T12:24:13Z</time>
      </trkpt>
      <trkpt lat="46.69778" lon="5.64173">
        <ele>315</ele>
        <time>2021-03-29T12:24:18Z</time>
      </trkpt>
      <trkpt lat="46.69771" lon="5.64177">
        <ele>314.7</ele>
        <time>2021-03-29T12:24:22Z</time>
      </trkpt>
      <trkpt lat="46.69767" lon="5.6418">
        <ele>314.4</ele>
        <time>2021-03-29T12:24:26Z</time>
      </trkpt>
      <trkpt lat="46.69762" lon="5.64182">
        <ele>314.2</ele>
        <time>2021-03-29T12:24:31Z</time>
      </trkpt>
      <trkpt lat="46.69757" lon="5.64183">
        <ele>314</ele>
        <time>2021-03-29T12:24:38Z</time>
      </trkpt>
      <trkpt lat="46.69753" lon="5.64183">
        <ele>313.8</ele>
        <time>2021-03-29T12:24:44Z</time>
      </trkpt>
      <trkpt lat="46.69748" lon="5.64184">
        <ele>313.6</ele>
        <time>2021-03-29T12:24:49Z</time>
      </trkpt>
      <trkpt lat="46.69744" lon="5.64183">
        <ele>313.3</ele>
        <time>2021-03-29T12:24:55Z</time>
      </trkpt>
      <trkpt lat="46.69739" lon="5.64184">
        <ele>312.9</ele>
        <time>2021-03-29T12:25:01Z</time>
      </trkpt>
      <trkpt lat="46.69733" lon="5.64185">
        <ele>312.5</ele>
        <time>2021-03-29T12:25:07Z</time>
      </trkpt>
      <trkpt lat="46.69729" lon="5.64185">
        <ele>312.1</ele>
        <time>2021-03-29T12:25:14Z</time>
      </trkpt>
      <trkpt lat="46.69724" lon="5.64183">
        <ele>311.7</ele>
        <time>2021-03-29T12:25:21Z</time>
      </trkpt>
      <trkpt lat="46.6972" lon="5.64179">
        <ele>311</ele>
        <time>2021-03-29T12:25:29Z</time>
      </trkpt>
      <trkpt lat="46.69717" lon="5.64173">
        <ele>310.1</ele>
        <time>2021-03-29T12:25:36Z</time>
      </trkpt>
      <trkpt lat="46.69714" lon="5.64169">
        <ele>309.6</ele>
        <time>2021-03-29T12:25:41Z</time>
      </trkpt>
      <trkpt lat="46.69709" lon="5.64168">
        <ele>309.1</ele>
        <time>2021-03-29T12:25:46Z</time>
      </trkpt>
      <trkpt lat="46.69705" lon="5.64164">
        <ele>308.2</ele>
        <time>2021-03-29T12:25:52Z</time>
      </trkpt>
      <trkpt lat="46.697" lon="5.64164">
        <ele>307.6</ele>
        <time>2021-03-29T12:25:58Z</time>
      </trkpt>
      <trkpt lat="46.69696" lon="5.64161">
        <ele>306.5</ele>
        <time>2021-03-29T12:26:05Z</time>
      </trkpt>
      <trkpt lat="46.69691" lon="5.64158">
        <ele>305.8</ele>
        <time>2021-03-29T12:26:11Z</time>
      </trkpt>
      <trkpt lat="46.69685" lon="5.64156">
        <ele>305.3</ele>
        <time>2021-03-29T12:26:17Z</time>
      </trkpt>
      <trkpt lat="46.6968" lon="5.6416">
        <ele>305</ele>
        <time>2021-03-29T12:26:21Z</time>
      </trkpt>
      <trkpt lat="46.69675" lon="5.64162">
        <ele>304.6</ele>
        <time>2021-03-29T12:26:25Z</time>
      </trkpt>
      <trkpt lat="46.6967" lon="5.6416">
        <ele>304.3</ele>
        <time>2021-03-29T12:26:31Z</time>
      </trkpt>
      <trkpt lat="46.69665" lon="5.64158">
        <ele>304</ele>
        <time>2021-03-29T12:26:37Z</time>
      </trkpt>
      <trkpt lat="46.69661" lon="5.64154">
        <ele>303.6</ele>
        <time>2021-03-29T12:26:44Z</time>
      </trkpt>
      <trkpt lat="46.69657" lon="5.64152">
        <ele>303.3</ele>
        <time>2021-03-29T12:26:50Z</time>
      </trkpt>
      <trkpt lat="46.69652" lon="5.64154">
        <ele>303.3</ele>
        <time>2021-03-29T12:26:54Z</time>
      </trkpt>
      <trkpt lat="46.69647" lon="5.64153">
        <ele>303.1</ele>
        <time>2021-03-29T12:26:59Z</time>
      </trkpt>
      <trkpt lat="46.69642" lon="5.64153">
        <ele>303</ele>
        <time>2021-03-29T12:27:03Z</time>
      </trkpt>
      <trkpt lat="46.69637" lon="5.64152">
        <ele>302.9</ele>
        <time>2021-03-29T12:27:09Z</time>
      </trkpt>
      <trkpt lat="46.69632" lon="5.6415">
        <ele>302.6</ele>
        <time>2021-03-29T12:27:17Z</time>
      </trkpt>
      <trkpt lat="46.69627" lon="5.64149">
        <ele>302.5</ele>
        <time>2021-03-29T12:27:23Z</time>
      </trkpt>
      <trkpt lat="46.69622" lon="5.64146">
        <ele>302.4</ele>
        <time>2021-03-29T12:27:29Z</time>
      </trkpt>
      <trkpt lat="46.69617" lon="5.64143">
        <ele>302.3</ele>
        <time>2021-03-29T12:27:35Z</time>
      </trkpt>
      <trkpt lat="46.69613" lon="5.64139">
        <ele>302</ele>
        <time>2021-03-29T12:27:41Z</time>
      </trkpt>
      <trkpt lat="46.6961" lon="5.64134">
        <ele>301.7</ele>
        <time>2021-03-29T12:27:45Z</time>
      </trkpt>
      <trkpt lat="46.69606" lon="5.64132">
        <ele>301.4</ele>
        <time>2021-03-29T12:27:51Z</time>
      </trkpt>
      <trkpt lat="46.69601" lon="5.64131">
        <ele>301</ele>
        <time>2021-03-29T12:27:57Z</time>
      </trkpt>
      <trkpt lat="46.69598" lon="5.64125">
        <ele>300.4</ele>
        <time>2021-03-29T12:28:04Z</time>
      </trkpt>
      <trkpt lat="46.69596" lon="5.64119">
        <ele>299.7</ele>
        <time>2021-03-29T12:28:12Z</time>
      </trkpt>
      <trkpt lat="46.69591" lon="5.64116">
        <ele>298.9</ele>
        <time>2021-03-29T12:28:19Z</time>
      </trkpt>
      <trkpt lat="46.69589" lon="5.6411">
        <ele>298.3</ele>
        <time>2021-03-29T12:28:23Z</time>
      </trkpt>
      <trkpt lat="46.69586" lon="5.64105">
        <ele>297.1</ele>
        <time>2021-03-29T12:28:28Z</time>
      </trkpt>
      <trkpt lat="46.69581" lon="5.64104">
        <ele>296</ele>
        <time>2021-03-29T12:28:32Z</time>
      </trkpt>
      <trkpt lat="46.69573" lon="5.64103">
        <ele>295.9</ele>
        <time>2021-03-29T12:28:36Z</time>
      </trkpt>
      <trkpt lat="46.69567" lon="5.64104">
        <ele>296</ele>
        <time>2021-03-29T12:28:40Z</time>
      </trkpt>
      <trkpt lat="46.69564" lon="5.64099">
        <ele>295.5</ele>
        <time>2021-03-29T12:28:46Z</time>
      </trkpt>
      <trkpt lat="46.6956" lon="5.64096">
        <ele>294.8</ele>
        <time>2021-03-29T12:28:51Z</time>
      </trkpt>
      <trkpt lat="46.69555" lon="5.64095">
        <ele>294</ele>
        <time>2021-03-29T12:28:56Z</time>
      </trkpt>
      <trkpt lat="46.6955" lon="5.64093">
        <ele>293.1</ele>
        <time>2021-03-29T12:29:02Z</time>
      </trkpt>
      <trkpt lat="46.69549" lon="5.64086">
        <ele>292.5</ele>
        <time>2021-03-29T12:29:08Z</time>
      </trkpt>
      <trkpt lat="46.69543" lon="5.64086">
        <ele>292.7</ele>
        <time>2021-03-29T12:29:18Z</time>
      </trkpt>
      <trkpt lat="46.69539" lon="5.64088">
        <ele>292.7</ele>
        <time>2021-03-29T12:29:24Z</time>
      </trkpt>
      <trkpt lat="46.69534" lon="5.64087">
        <ele>292.6</ele>
        <time>2021-03-29T12:29:30Z</time>
      </trkpt>
      <trkpt lat="46.69529" lon="5.64084">
        <ele>292.2</ele>
        <time>2021-03-29T12:29:38Z</time>
      </trkpt>
      <trkpt lat="46.69526" lon="5.64079">
        <ele>292</ele>
        <time>2021-03-29T12:29:44Z</time>
      </trkpt>
      <trkpt lat="46.69522" lon="5.64074">
        <ele>291.7</ele>
        <time>2021-03-29T12:29:50Z</time>
      </trkpt>
      <trkpt lat="46.69518" lon="5.64073">
        <ele>291.4</ele>
        <time>2021-03-29T12:29:55Z</time>
      </trkpt>
      <trkpt lat="46.69515" lon="5.64068">
        <ele>290.8</ele>
        <time>2021-03-29T12:30:01Z</time>
      </trkpt>
      <trkpt lat="46.69511" lon="5.64062">
        <ele>290.2</ele>
        <time>2021-03-29T12:30:06Z</time>
      </trkpt>
      <trkpt lat="46.69507" lon="5.64058">
        <ele>289.8</ele>
        <time>2021-03-29T12:30:11Z</time>
      </trkpt>
      <trkpt lat="46.69504" lon="5.64052">
        <ele>289.4</ele>
        <time>2021-03-29T12:30:17Z</time>
      </trkpt>
      <trkpt lat="46.69502" lon="5.64046">
        <ele>289</ele>
        <time>2021-03-29T12:30:22Z</time>
      </trkpt>
      <trkpt lat="46.69498" lon="5.64041">
        <ele>288.8</ele>
        <time>2021-03-29T12:30:27Z</time>
      </trkpt>
      <trkpt lat="46.69494" lon="5.64038">
        <ele>288.5</ele>
        <time>2021-03-29T12:30:32Z</time>
      </trkpt>
      <trkpt lat="46.6949" lon="5.64036">
        <ele>288.7</ele>
        <time>2021-03-29T12:30:37Z</time>
      </trkpt>
      <trkpt lat="46.6948" lon="5.64042">
        <ele>290</ele>
        <time>2021-03-29T12:30:41Z</time>
      </trkpt>
      <trkpt lat="46.69471" lon="5.64044">
        <ele>291.3</ele>
        <time>2021-03-29T12:30:45Z</time>
      </trkpt>
      <trkpt lat="46.69463" lon="5.64045">
        <ele>292.2</ele>
        <time>2021-03-29T12:30:49Z</time>
      </trkpt>
      <trkpt lat="46.69457" lon="5.64044">
        <ele>293.2</ele>
        <time>2021-03-29T12:30:53Z</time>
      </trkpt>
      <trkpt lat="46.69453" lon="5.64043">
        <ele>294.3</ele>
        <time>2021-03-29T12:30:58Z</time>
      </trkpt>
      <trkpt lat="46.69448" lon="5.64041">
        <ele>295</ele>
        <time>2021-03-29T12:31:03Z</time>
      </trkpt>
      <trkpt lat="46.69445" lon="5.64036">
        <ele>294.9</ele>
        <time>2021-03-29T12:31:09Z</time>
      </trkpt>
      <trkpt lat="46.69441" lon="5.64031">
        <ele>294.6</ele>
        <time>2021-03-29T12:31:16Z</time>
      </trkpt>
      <trkpt lat="46.69437" lon="5.64028">
        <ele>294.1</ele>
        <time>2021-03-29T12:31:23Z</time>
      </trkpt>
      <trkpt lat="46.69436" lon="5.6402">
        <ele>293.8</ele>
        <time>2021-03-29T12:31:27Z</time>
      </trkpt>
      <trkpt lat="46.69436" lon="5.64011">
        <ele>293.7</ele>
        <time>2021-03-29T12:31:31Z</time>
      </trkpt>
      <trkpt lat="46.69436" lon="5.64004">
        <ele>293.6</ele>
        <time>2021-03-29T12:31:35Z</time>
      </trkpt>
      <trkpt lat="46.69432" lon="5.64">
        <ele>293.4</ele>
        <time>2021-03-29T12:31:42Z</time>
      </trkpt>
      <trkpt lat="46.69428" lon="5.63996">
        <ele>293.1</ele>
        <time>2021-03-29T12:31:49Z</time>
      </trkpt>
      <trkpt lat="46.69423" lon="5.63993">
        <ele>293.1</ele>
        <time>2021-03-29T12:31:54Z</time>
      </trkpt>
      <trkpt lat="46.6942" lon="5.63989">
        <ele>293.2</ele>
        <time>2021-03-29T12:32:00Z</time>
      </trkpt>
      <trkpt lat="46.69418" lon="5.63982">
        <ele>293.2</ele>
        <time>2021-03-29T12:32:06Z</time>
      </trkpt>
      <trkpt lat="46.69415" lon="5.63975">
        <ele>293</ele>
        <time>2021-03-29T12:32:12Z</time>
      </trkpt>
      <trkpt lat="46.69412" lon="5.6397">
        <ele>292.6</ele>
        <time>2021-03-29T12:32:18Z</time>
      </trkpt>
      <trkpt lat="46.69409" lon="5.63966">
        <ele>292.4</ele>
        <time>2021-03-29T12:32:25Z</time>
      </trkpt>
      <trkpt lat="46.69407" lon="5.63959">
        <ele>292.4</ele>
        <time>2021-03-29T12:32:30Z</time>
      </trkpt>
      <trkpt lat="46.69405" lon="5.63953">
        <ele>292.1</ele>
        <time>2021-03-29T12:32:36Z</time>
      </trkpt>
      <trkpt lat="46.69401" lon="5.63951">
        <ele>292.1</ele>
        <time>2021-03-29T12:32:44Z</time>
      </trkpt>
      <trkpt lat="46.69396" lon="5.63952">
        <ele>292.5</ele>
        <time>2021-03-29T12:32:48Z</time>
      </trkpt>
      <trkpt lat="46.6939" lon="5.63955">
        <ele>292.7</ele>
        <time>2021-03-29T12:32:52Z</time>
      </trkpt>
      <trkpt lat="46.69385" lon="5.63955">
        <ele>293</ele>
        <time>2021-03-29T12:32:57Z</time>
      </trkpt>
      <trkpt lat="46.6938" lon="5.63957">
        <ele>293.7</ele>
        <time>2021-03-29T12:33:01Z</time>
      </trkpt>
      <trkpt lat="46.69376" lon="5.63961">
        <ele>294.4</ele>
        <time>2021-03-29T12:33:05Z</time>
      </trkpt>
      <trkpt lat="46.69371" lon="5.63962">
        <ele>295.3</ele>
        <time>2021-03-29T12:33:10Z</time>
      </trkpt>
      <trkpt lat="46.69366" lon="5.63962">
        <ele>295.9</ele>
        <time>2021-03-29T12:33:16Z</time>
      </trkpt>
      <trkpt lat="46.69361" lon="5.63962">
        <ele>296.7</ele>
        <time>2021-03-29T12:33:21Z</time>
      </trkpt>
      <trkpt lat="46.69356" lon="5.63964">
        <ele>297.3</ele>
        <time>2021-03-29T12:33:26Z</time>
      </trkpt>
      <trkpt lat="46.69351" lon="5.63964">
        <ele>298.2</ele>
        <time>2021-03-29T12:33:32Z</time>
      </trkpt>
      <trkpt lat="46.69346" lon="5.63964">
        <ele>299</ele>
        <time>2021-03-29T12:33:38Z</time>
      </trkpt>
      <trkpt lat="46.69344" lon="5.63958">
        <ele>299.7</ele>
        <time>2021-03-29T12:33:45Z</time>
      </trkpt>
      <trkpt lat="46.69341" lon="5.63953">
        <ele>301.3</ele>
        <time>2021-03-29T12:33:53Z</time>
      </trkpt>
      <trkpt lat="46.6934" lon="5.63946">
        <ele>303.6</ele>
        <time>2021-03-29T12:34:04Z</time>
      </trkpt>
      <trkpt lat="46.69339" lon="5.63939">
        <ele>305</ele>
        <time>2021-03-29T12:34:11Z</time>
      </trkpt>
      <trkpt lat="46.69334" lon="5.63942">
        <ele>306.9</ele>
        <time>2021-03-29T12:34:19Z</time>
      </trkpt>
      <trkpt lat="46.69328" lon="5.63948">
        <ele>313.8</ele>
        <time>2021-03-29T12:34:53Z</time>
      </trkpt>
      <trkpt lat="46.69323" lon="5.63954">
        <ele>315.7</ele>
        <time>2021-03-29T12:34:57Z</time>
      </trkpt>
      <trkpt lat="46.69321" lon="5.6396">
        <ele>319.3</ele>
        <time>2021-03-29T12:35:05Z</time>
      </trkpt>
      <trkpt lat="46.69324" lon="5.63956">
        <ele>329.8</ele>
        <time>2021-03-29T12:36:16Z</time>
      </trkpt>
      <trkpt lat="46.6932" lon="5.63953">
        <ele>330.3</ele>
        <time>2021-03-29T12:37:12Z</time>
      </trkpt>
      <trkpt lat="46.69316" lon="5.6395">
        <ele>329.8</ele>
        <time>2021-03-29T12:37:36Z</time>
      </trkpt>
      <trkpt lat="46.69312" lon="5.63944">
        <ele>329.6</ele>
        <time>2021-03-29T12:37:47Z</time>
      </trkpt>
      <trkpt lat="46.69307" lon="5.63945">
        <ele>329.4</ele>
        <time>2021-03-29T12:37:53Z</time>
      </trkpt>
      <trkpt lat="46.69302" lon="5.63946">
        <ele>329.1</ele>
        <time>2021-03-29T12:37:59Z</time>
      </trkpt>
      <trkpt lat="46.69298" lon="5.63945">
        <ele>328.7</ele>
        <time>2021-03-29T12:38:06Z</time>
      </trkpt>
      <trkpt lat="46.69293" lon="5.63943">
        <ele>328.4</ele>
        <time>2021-03-29T12:38:13Z</time>
      </trkpt>
      <trkpt lat="46.69287" lon="5.63944">
        <ele>328.2</ele>
        <time>2021-03-29T12:38:18Z</time>
      </trkpt>
      <trkpt lat="46.69281" lon="5.63945">
        <ele>328</ele>
        <time>2021-03-29T12:38:22Z</time>
      </trkpt>
      <trkpt lat="46.69275" lon="5.63947">
        <ele>328.1</ele>
        <time>2021-03-29T12:38:26Z</time>
      </trkpt>
      <trkpt lat="46.69271" lon="5.63945">
        <ele>328</ele>
        <time>2021-03-29T12:38:33Z</time>
      </trkpt>
      <trkpt lat="46.69267" lon="5.63939">
        <ele>327.8</ele>
        <time>2021-03-29T12:38:43Z</time>
      </trkpt>
      <trkpt lat="46.69263" lon="5.63937">
        <ele>327.7</ele>
        <time>2021-03-29T12:38:47Z</time>
      </trkpt>
      <trkpt lat="46.69258" lon="5.63935">
        <ele>327.5</ele>
        <time>2021-03-29T12:38:52Z</time>
      </trkpt>
      <trkpt lat="46.69253" lon="5.63935">
        <ele>327.3</ele>
        <time>2021-03-29T12:38:58Z</time>
      </trkpt>
      <trkpt lat="46.69251" lon="5.63927">
        <ele>327</ele>
        <time>2021-03-29T12:39:05Z</time>
      </trkpt>
      <trkpt lat="46.69245" lon="5.63922">
        <ele>326.6</ele>
        <time>2021-03-29T12:39:24Z</time>
      </trkpt>
      <trkpt lat="46.6924" lon="5.63921">
        <ele>326.6</ele>
        <time>2021-03-29T12:39:28Z</time>
      </trkpt>
      <trkpt lat="46.69235" lon="5.6392">
        <ele>326.7</ele>
        <time>2021-03-29T12:39:35Z</time>
      </trkpt>
      <trkpt lat="46.6923" lon="5.63922">
        <ele>326.8</ele>
        <time>2021-03-29T12:39:41Z</time>
      </trkpt>
      <trkpt lat="46.69225" lon="5.63924">
        <ele>327.2</ele>
        <time>2021-03-29T12:39:56Z</time>
      </trkpt>
      <trkpt lat="46.6922" lon="5.63928">
        <ele>328.2</ele>
        <time>2021-03-29T12:40:00Z</time>
      </trkpt>
      <trkpt lat="46.69215" lon="5.63927">
        <ele>330.2</ele>
        <time>2021-03-29T12:40:11Z</time>
      </trkpt>
      <trkpt lat="46.69211" lon="5.63925">
        <ele>330.4</ele>
        <time>2021-03-29T12:40:17Z</time>
      </trkpt>
      <trkpt lat="46.69208" lon="5.6392">
        <ele>329.7</ele>
        <time>2021-03-29T12:40:22Z</time>
      </trkpt>
      <trkpt lat="46.69204" lon="5.63912">
        <ele>328.6</ele>
        <time>2021-03-29T12:40:26Z</time>
      </trkpt>
      <trkpt lat="46.69201" lon="5.63906">
        <ele>327</ele>
        <time>2021-03-29T12:40:33Z</time>
      </trkpt>
      <trkpt lat="46.69197" lon="5.63904">
        <ele>325.9</ele>
        <time>2021-03-29T12:40:43Z</time>
      </trkpt>
      <trkpt lat="46.69197" lon="5.63896">
        <ele>325.9</ele>
        <time>2021-03-29T12:40:48Z</time>
      </trkpt>
      <trkpt lat="46.69192" lon="5.63896">
        <ele>326</ele>
        <time>2021-03-29T12:40:55Z</time>
      </trkpt>
      <trkpt lat="46.69187" lon="5.63899">
        <ele>327</ele>
        <time>2021-03-29T12:40:59Z</time>
      </trkpt>
      <trkpt lat="46.69182" lon="5.63903">
        <ele>328.5</ele>
        <time>2021-03-29T12:41:05Z</time>
      </trkpt>
      <trkpt lat="46.69177" lon="5.63904">
        <ele>329.6</ele>
        <time>2021-03-29T12:41:12Z</time>
      </trkpt>
      <trkpt lat="46.69173" lon="5.63907">
        <ele>329.9</ele>
        <time>2021-03-29T12:41:21Z</time>
      </trkpt>
      <trkpt lat="46.69171" lon="5.63914">
        <ele>329.9</ele>
        <time>2021-03-29T12:41:33Z</time>
      </trkpt>
      <trkpt lat="46.69172" lon="5.63908">
        <ele>329.6</ele>
        <time>2021-03-29T12:41:47Z</time>
      </trkpt>
      <trkpt lat="46.69167" lon="5.63908">
        <ele>328.6</ele>
        <time>2021-03-29T12:42:04Z</time>
      </trkpt>
      <trkpt lat="46.69173" lon="5.639">
        <ele>332.4</ele>
        <time>2021-03-29T12:42:38Z</time>
      </trkpt>
      <trkpt lat="46.69176" lon="5.63894">
        <ele>332.9</ele>
        <time>2021-03-29T12:42:43Z</time>
      </trkpt>
      <trkpt lat="46.69179" lon="5.63889">
        <ele>333.7</ele>
        <time>2021-03-29T12:43:19Z</time>
      </trkpt>
      <trkpt lat="46.69176" lon="5.63894">
        <ele>334.4</ele>
        <time>2021-03-29T12:44:06Z</time>
      </trkpt>
      <trkpt lat="46.69179" lon="5.63889">
        <ele>334.5</ele>
        <time>2021-03-29T12:44:11Z</time>
      </trkpt>
      <trkpt lat="46.69185" lon="5.63891">
        <ele>334.7</ele>
        <time>2021-03-29T12:44:23Z</time>
      </trkpt>
      <trkpt lat="46.69186" lon="5.63884">
        <ele>335</ele>
        <time>2021-03-29T12:44:39Z</time>
      </trkpt>
      <trkpt lat="46.69186" lon="5.63878">
        <ele>335.2</ele>
        <time>2021-03-29T12:44:48Z</time>
      </trkpt>
      <trkpt lat="46.69182" lon="5.63874">
        <ele>335.3</ele>
        <time>2021-03-29T12:44:54Z</time>
      </trkpt>
      <trkpt lat="46.6918" lon="5.63868">
        <ele>335.4</ele>
        <time>2021-03-29T12:44:59Z</time>
      </trkpt>
      <trkpt lat="46.69178" lon="5.63862">
        <ele>335.6</ele>
        <time>2021-03-29T12:45:04Z</time>
      </trkpt>
      <trkpt lat="46.69177" lon="5.63855">
        <ele>336.5</ele>
        <time>2021-03-29T12:45:21Z</time>
      </trkpt>
      <trkpt lat="46.69172" lon="5.63856">
        <ele>336.8</ele>
        <time>2021-03-29T12:45:25Z</time>
      </trkpt>
      <trkpt lat="46.69168" lon="5.63857">
        <ele>337.1</ele>
        <time>2021-03-29T12:45:29Z</time>
      </trkpt>
      <trkpt lat="46.69164" lon="5.63861">
        <ele>337.3</ele>
        <time>2021-03-29T12:45:35Z</time>
      </trkpt>
      <trkpt lat="46.6916" lon="5.63871">
        <ele>337.3</ele>
        <time>2021-03-29T12:45:39Z</time>
      </trkpt>
      <trkpt lat="46.69158" lon="5.63865">
        <ele>337.3</ele>
        <time>2021-03-29T12:45:47Z</time>
      </trkpt>
      <trkpt lat="46.69154" lon="5.63861">
        <ele>337.4</ele>
        <time>2021-03-29T12:45:54Z</time>
      </trkpt>
      <trkpt lat="46.69151" lon="5.63856">
        <ele>337.6</ele>
        <time>2021-03-29T12:46:04Z</time>
      </trkpt>
      <trkpt lat="46.69148" lon="5.63851">
        <ele>337.6</ele>
        <time>2021-03-29T12:46:15Z</time>
      </trkpt>
      <trkpt lat="46.69144" lon="5.63847">
        <ele>337.8</ele>
        <time>2021-03-29T12:46:22Z</time>
      </trkpt>
      <trkpt lat="46.69141" lon="5.63842">
        <ele>338.3</ele>
        <time>2021-03-29T12:46:28Z</time>
      </trkpt>
      <trkpt lat="46.69139" lon="5.63836">
        <ele>338.8</ele>
        <time>2021-03-29T12:46:37Z</time>
      </trkpt>
      <trkpt lat="46.69134" lon="5.63837">
        <ele>339.6</ele>
        <time>2021-03-29T12:46:43Z</time>
      </trkpt>
      <trkpt lat="46.6913" lon="5.63842">
        <ele>340.3</ele>
        <time>2021-03-29T12:46:47Z</time>
      </trkpt>
      <trkpt lat="46.69126" lon="5.63846">
        <ele>341.6</ele>
        <time>2021-03-29T12:46:54Z</time>
      </trkpt>
      <trkpt lat="46.69121" lon="5.63848">
        <ele>344</ele>
        <time>2021-03-29T12:47:01Z</time>
      </trkpt>
      <trkpt lat="46.6912" lon="5.63841">
        <ele>354.3</ele>
        <time>2021-03-29T12:48:00Z</time>
      </trkpt>
      <trkpt lat="46.69116" lon="5.63843">
        <ele>359.3</ele>
        <time>2021-03-29T12:48:15Z</time>
      </trkpt>
      <trkpt lat="46.69112" lon="5.63845">
        <ele>359.7</ele>
        <time>2021-03-29T12:48:21Z</time>
      </trkpt>
      <trkpt lat="46.69106" lon="5.63848">
        <ele>359.9</ele>
        <time>2021-03-29T12:48:28Z</time>
      </trkpt>
      <trkpt lat="46.69102" lon="5.63851">
        <ele>359.8</ele>
        <time>2021-03-29T12:48:32Z</time>
      </trkpt>
      <trkpt lat="46.69098" lon="5.63855">
        <ele>359.6</ele>
        <time>2021-03-29T12:48:36Z</time>
      </trkpt>
      <trkpt lat="46.69094" lon="5.63859">
        <ele>359.6</ele>
        <time>2021-03-29T12:48:42Z</time>
      </trkpt>
      <trkpt lat="46.69091" lon="5.63864">
        <ele>360</ele>
        <time>2021-03-29T12:48:50Z</time>
      </trkpt>
      <trkpt lat="46.69088" lon="5.63869">
        <ele>360</ele>
        <time>2021-03-29T12:48:56Z</time>
      </trkpt>
      <trkpt lat="46.6909" lon="5.63875">
        <ele>359.8</ele>
        <time>2021-03-29T12:49:04Z</time>
      </trkpt>
      <trkpt lat="46.69086" lon="5.63881">
        <ele>359.8</ele>
        <time>2021-03-29T12:49:14Z</time>
      </trkpt>
      <trkpt lat="46.69082" lon="5.63886">
        <ele>359.7</ele>
        <time>2021-03-29T12:49:18Z</time>
      </trkpt>
      <trkpt lat="46.69077" lon="5.63891">
        <ele>359.9</ele>
        <time>2021-03-29T12:49:26Z</time>
      </trkpt>
      <trkpt lat="46.69073" lon="5.6389">
        <ele>359.6</ele>
        <time>2021-03-29T12:49:31Z</time>
      </trkpt>
      <trkpt lat="46.69067" lon="5.63891">
        <ele>359.6</ele>
        <time>2021-03-29T12:49:35Z</time>
      </trkpt>
      <trkpt lat="46.69061" lon="5.63895">
        <ele>359.6</ele>
        <time>2021-03-29T12:49:39Z</time>
      </trkpt>
      <trkpt lat="46.69053" lon="5.639">
        <ele>358.8</ele>
        <time>2021-03-29T12:49:43Z</time>
      </trkpt>
      <trkpt lat="46.69048" lon="5.63903">
        <ele>358.2</ele>
        <time>2021-03-29T12:49:47Z</time>
      </trkpt>
      <trkpt lat="46.69043" lon="5.63902">
        <ele>357.8</ele>
        <time>2021-03-29T12:49:51Z</time>
      </trkpt>
      <trkpt lat="46.69039" lon="5.639">
        <ele>357.4</ele>
        <time>2021-03-29T12:49:56Z</time>
      </trkpt>
      <trkpt lat="46.69034" lon="5.63901">
        <ele>356.8</ele>
        <time>2021-03-29T12:50:03Z</time>
      </trkpt>
      <trkpt lat="46.69031" lon="5.63906">
        <ele>356</ele>
        <time>2021-03-29T12:50:09Z</time>
      </trkpt>
      <trkpt lat="46.69027" lon="5.63911">
        <ele>355</ele>
        <time>2021-03-29T12:50:14Z</time>
      </trkpt>
      <trkpt lat="46.69022" lon="5.63912">
        <ele>354</ele>
        <time>2021-03-29T12:50:19Z</time>
      </trkpt>
      <trkpt lat="46.69017" lon="5.6391">
        <ele>353.2</ele>
        <time>2021-03-29T12:50:24Z</time>
      </trkpt>
      <trkpt lat="46.69012" lon="5.63909">
        <ele>352.5</ele>
        <time>2021-03-29T12:50:30Z</time>
      </trkpt>
      <trkpt lat="46.69008" lon="5.639">
        <ele>352.9</ele>
        <time>2021-03-29T12:50:37Z</time>
      </trkpt>
      <trkpt lat="46.69013" lon="5.63899">
        <ele>354</ele>
        <time>2021-03-29T12:50:53Z</time>
      </trkpt>
      <trkpt lat="46.69015" lon="5.63905">
        <ele>353.8</ele>
        <time>2021-03-29T12:50:59Z</time>
      </trkpt>
      <trkpt lat="46.69013" lon="5.63898">
        <ele>354.4</ele>
        <time>2021-03-29T12:51:15Z</time>
      </trkpt>
      <trkpt lat="46.6901" lon="5.63892">
        <ele>360.4</ele>
        <time>2021-03-29T12:51:41Z</time>
      </trkpt>
      <trkpt lat="46.69006" lon="5.6389">
        <ele>360.3</ele>
        <time>2021-03-29T12:52:33Z</time>
      </trkpt>
      <trkpt lat="46.69008" lon="5.63884">
        <ele>360.2</ele>
        <time>2021-03-29T12:53:45Z</time>
      </trkpt>
      <trkpt lat="46.69005" lon="5.63875">
        <ele>359.9</ele>
        <time>2021-03-29T12:53:49Z</time>
      </trkpt>
      <trkpt lat="46.69001" lon="5.63871">
        <ele>359.7</ele>
        <time>2021-03-29T12:53:53Z</time>
      </trkpt>
      <trkpt lat="46.68996" lon="5.6387">
        <ele>359.3</ele>
        <time>2021-03-29T12:54:01Z</time>
      </trkpt>
      <trkpt lat="46.68991" lon="5.63871">
        <ele>359.4</ele>
        <time>2021-03-29T12:54:06Z</time>
      </trkpt>
      <trkpt lat="46.68986" lon="5.63874">
        <ele>359.8</ele>
        <time>2021-03-29T12:54:17Z</time>
      </trkpt>
      <trkpt lat="46.68981" lon="5.63875">
        <ele>360.1</ele>
        <time>2021-03-29T12:54:25Z</time>
      </trkpt>
      <trkpt lat="46.68977" lon="5.63877">
        <ele>368.5</ele>
        <time>2021-03-29T12:54:34Z</time>
      </trkpt>
      <trkpt lat="46.68972" lon="5.63876">
        <ele>370.9</ele>
        <time>2021-03-29T12:54:39Z</time>
      </trkpt>
      <trkpt lat="46.68969" lon="5.63882">
        <ele>373.3</ele>
        <time>2021-03-29T12:54:48Z</time>
      </trkpt>
      <trkpt lat="46.68964" lon="5.6388">
        <ele>374.5</ele>
        <time>2021-03-29T12:54:56Z</time>
      </trkpt>
      <trkpt lat="46.68959" lon="5.63878">
        <ele>374.8</ele>
        <time>2021-03-29T12:55:01Z</time>
      </trkpt>
      <trkpt lat="46.68955" lon="5.63873">
        <ele>375.1</ele>
        <time>2021-03-29T12:55:10Z</time>
      </trkpt>
      <trkpt lat="46.68952" lon="5.63878">
        <ele>375.2</ele>
        <time>2021-03-29T12:55:36Z</time>
      </trkpt>
      <trkpt lat="46.68948" lon="5.63874">
        <ele>375</ele>
        <time>2021-03-29T12:55:41Z</time>
      </trkpt>
      <trkpt lat="46.68943" lon="5.63872">
        <ele>375.4</ele>
        <time>2021-03-29T12:55:45Z</time>
      </trkpt>
      <trkpt lat="46.68938" lon="5.63869">
        <ele>374.9</ele>
        <time>2021-03-29T12:55:50Z</time>
      </trkpt>
      <trkpt lat="46.68932" lon="5.63868">
        <ele>374.3</ele>
        <time>2021-03-29T12:55:55Z</time>
      </trkpt>
      <trkpt lat="46.68929" lon="5.63864">
        <ele>373.8</ele>
        <time>2021-03-29T12:56:00Z</time>
      </trkpt>
      <trkpt lat="46.68924" lon="5.63863">
        <ele>373</ele>
        <time>2021-03-29T12:56:19Z</time>
      </trkpt>
      <trkpt lat="46.6892" lon="5.63858">
        <ele>373.4</ele>
        <time>2021-03-29T12:56:33Z</time>
      </trkpt>
      <trkpt lat="46.6892" lon="5.63852">
        <ele>373.5</ele>
        <time>2021-03-29T12:56:39Z</time>
      </trkpt>
      <trkpt lat="46.68921" lon="5.63844">
        <ele>373.4</ele>
        <time>2021-03-29T12:56:43Z</time>
      </trkpt>
      <trkpt lat="46.68923" lon="5.63838">
        <ele>373.2</ele>
        <time>2021-03-29T12:56:49Z</time>
      </trkpt>
      <trkpt lat="46.68921" lon="5.63831">
        <ele>372.8</ele>
        <time>2021-03-29T12:56:55Z</time>
      </trkpt>
      <trkpt lat="46.68922" lon="5.63824">
        <ele>372.4</ele>
        <time>2021-03-29T12:57:01Z</time>
      </trkpt>
      <trkpt lat="46.68923" lon="5.63817">
        <ele>372.2</ele>
        <time>2021-03-29T12:57:06Z</time>
      </trkpt>
      <trkpt lat="46.68923" lon="5.6381">
        <ele>372.1</ele>
        <time>2021-03-29T12:57:11Z</time>
      </trkpt>
      <trkpt lat="46.68925" lon="5.63804">
        <ele>371.9</ele>
        <time>2021-03-29T12:57:16Z</time>
      </trkpt>
      <trkpt lat="46.68926" lon="5.63797">
        <ele>371.3</ele>
        <time>2021-03-29T12:57:22Z</time>
      </trkpt>
      <trkpt lat="46.68927" lon="5.63791">
        <ele>371.1</ele>
        <time>2021-03-29T12:57:27Z</time>
      </trkpt>
      <trkpt lat="46.68929" lon="5.63783">
        <ele>370.9</ele>
        <time>2021-03-29T12:57:33Z</time>
      </trkpt>
      <trkpt lat="46.68929" lon="5.63774">
        <ele>371.3</ele>
        <time>2021-03-29T12:57:37Z</time>
      </trkpt>
      <trkpt lat="46.68929" lon="5.63767">
        <ele>371.7</ele>
        <time>2021-03-29T12:57:42Z</time>
      </trkpt>
      <trkpt lat="46.68931" lon="5.63761">
        <ele>372</ele>
        <time>2021-03-29T12:57:48Z</time>
      </trkpt>
      <trkpt lat="46.68933" lon="5.63754">
        <ele>372.3</ele>
        <time>2021-03-29T12:57:54Z</time>
      </trkpt>
      <trkpt lat="46.68932" lon="5.63747">
        <ele>372.7</ele>
        <time>2021-03-29T12:57:58Z</time>
      </trkpt>
      <trkpt lat="46.68928" lon="5.63741">
        <ele>373.4</ele>
        <time>2021-03-29T12:58:02Z</time>
      </trkpt>
      <trkpt lat="46.68925" lon="5.63734">
        <ele>374.2</ele>
        <time>2021-03-29T12:58:06Z</time>
      </trkpt>
      <trkpt lat="46.6893" lon="5.63734">
        <ele>374.7</ele>
        <time>2021-03-29T12:58:12Z</time>
      </trkpt>
      <trkpt lat="46.68935" lon="5.63736">
        <ele>374.9</ele>
        <time>2021-03-29T12:58:17Z</time>
      </trkpt>
      <trkpt lat="46.68939" lon="5.63737">
        <ele>374.6</ele>
        <time>2021-03-29T12:58:27Z</time>
      </trkpt>
      <trkpt lat="46.68944" lon="5.63736">
        <ele>374.5</ele>
        <time>2021-03-29T12:58:34Z</time>
      </trkpt>
      <trkpt lat="46.68949" lon="5.63733">
        <ele>374.4</ele>
        <time>2021-03-29T12:58:41Z</time>
      </trkpt>
      <trkpt lat="46.68953" lon="5.63725">
        <ele>375.1</ele>
        <time>2021-03-29T12:58:52Z</time>
      </trkpt>
      <trkpt lat="46.68957" lon="5.63718">
        <ele>375.9</ele>
        <time>2021-03-29T12:58:56Z</time>
      </trkpt>
      <trkpt lat="46.6896" lon="5.63711">
        <ele>377</ele>
        <time>2021-03-29T12:59:05Z</time>
      </trkpt>
      <trkpt lat="46.68963" lon="5.63706">
        <ele>378.2</ele>
        <time>2021-03-29T12:59:21Z</time>
      </trkpt>
      <trkpt lat="46.68967" lon="5.63701">
        <ele>378.6</ele>
        <time>2021-03-29T12:59:26Z</time>
      </trkpt>
      <trkpt lat="46.68969" lon="5.63695">
        <ele>379.2</ele>
        <time>2021-03-29T12:59:31Z</time>
      </trkpt>
      <trkpt lat="46.68973" lon="5.63691">
        <ele>379.7</ele>
        <time>2021-03-29T12:59:37Z</time>
      </trkpt>
      <trkpt lat="46.68977" lon="5.63686">
        <ele>380.5</ele>
        <time>2021-03-29T12:59:46Z</time>
      </trkpt>
      <trkpt lat="46.68984" lon="5.63673">
        <ele>381.3</ele>
        <time>2021-03-29T12:59:50Z</time>
      </trkpt>
      <trkpt lat="46.68987" lon="5.63663">
        <ele>382.2</ele>
        <time>2021-03-29T12:59:54Z</time>
      </trkpt>
      <trkpt lat="46.68988" lon="5.63654">
        <ele>383</ele>
        <time>2021-03-29T12:59:58Z</time>
      </trkpt>
      <trkpt lat="46.68992" lon="5.63627">
        <ele>382</ele>
        <time>2021-03-29T13:00:57Z</time>
      </trkpt>
      <trkpt lat="46.68992" lon="5.63633">
        <ele>381.9</ele>
        <time>2021-03-29T13:01:01Z</time>
      </trkpt>
      <trkpt lat="46.68991" lon="5.63641">
        <ele>381.7</ele>
        <time>2021-03-29T13:01:05Z</time>
      </trkpt>
      <trkpt lat="46.6899" lon="5.63648">
        <ele>382.1</ele>
        <time>2021-03-29T13:01:09Z</time>
      </trkpt>
      <trkpt lat="46.6899" lon="5.63658">
        <ele>382.8</ele>
        <time>2021-03-29T13:01:13Z</time>
      </trkpt>
      <trkpt lat="46.68988" lon="5.63665">
        <ele>383.2</ele>
        <time>2021-03-29T13:01:17Z</time>
      </trkpt>
      <trkpt lat="46.68986" lon="5.63672">
        <ele>383.4</ele>
        <time>2021-03-29T13:01:21Z</time>
      </trkpt>
      <trkpt lat="46.68985" lon="5.63679">
        <ele>383.6</ele>
        <time>2021-03-29T13:01:26Z</time>
      </trkpt>
      <trkpt lat="46.68981" lon="5.63685">
        <ele>383.7</ele>
        <time>2021-03-29T13:01:31Z</time>
      </trkpt>
      <trkpt lat="46.6898" lon="5.63692">
        <ele>383.8</ele>
        <time>2021-03-29T13:01:37Z</time>
      </trkpt>
      <trkpt lat="46.68978" lon="5.63699">
        <ele>384</ele>
        <time>2021-03-29T13:01:43Z</time>
      </trkpt>
      <trkpt lat="46.68977" lon="5.63706">
        <ele>384.4</ele>
        <time>2021-03-29T13:01:49Z</time>
      </trkpt>
      <trkpt lat="46.68976" lon="5.63713">
        <ele>385</ele>
        <time>2021-03-29T13:01:53Z</time>
      </trkpt>
      <trkpt lat="46.68974" lon="5.63719">
        <ele>385.7</ele>
        <time>2021-03-29T13:01:57Z</time>
      </trkpt>
      <trkpt lat="46.68972" lon="5.63728">
        <ele>387</ele>
        <time>2021-03-29T13:02:01Z</time>
      </trkpt>
      <trkpt lat="46.68969" lon="5.63733">
        <ele>387.9</ele>
        <time>2021-03-29T13:02:06Z</time>
      </trkpt>
      <trkpt lat="46.68966" lon="5.63738">
        <ele>388.1</ele>
        <time>2021-03-29T13:02:12Z</time>
      </trkpt>
      <trkpt lat="46.68961" lon="5.6374">
        <ele>387.5</ele>
        <time>2021-03-29T13:02:19Z</time>
      </trkpt>
      <trkpt lat="46.68957" lon="5.63743">
        <ele>387.3</ele>
        <time>2021-03-29T13:02:26Z</time>
      </trkpt>
      <trkpt lat="46.68952" lon="5.63739">
        <ele>387.2</ele>
        <time>2021-03-29T13:02:36Z</time>
      </trkpt>
      <trkpt lat="46.68948" lon="5.63733">
        <ele>387.2</ele>
        <time>2021-03-29T13:02:41Z</time>
      </trkpt>
      <trkpt lat="46.68944" lon="5.63729">
        <ele>386.9</ele>
        <time>2021-03-29T13:02:45Z</time>
      </trkpt>
      <trkpt lat="46.68937" lon="5.63729">
        <ele>387.3</ele>
        <time>2021-03-29T13:02:49Z</time>
      </trkpt>
      <trkpt lat="46.68929" lon="5.63731">
        <ele>387.7</ele>
        <time>2021-03-29T13:02:53Z</time>
      </trkpt>
      <trkpt lat="46.68925" lon="5.63731">
        <ele>400.8</ele>
        <time>2021-03-29T13:03:26Z</time>
      </trkpt>
      <trkpt lat="46.68921" lon="5.63734">
        <ele>401.2</ele>
        <time>2021-03-29T13:03:42Z</time>
      </trkpt>
      <trkpt lat="46.68918" lon="5.6374">
        <ele>400.7</ele>
        <time>2021-03-29T13:03:57Z</time>
      </trkpt>
      <trkpt lat="46.68914" lon="5.63744">
        <ele>399.3</ele>
        <time>2021-03-29T13:04:48Z</time>
      </trkpt>
      <trkpt lat="46.68908" lon="5.63745">
        <ele>399.4</ele>
        <time>2021-03-29T13:04:52Z</time>
      </trkpt>
      <trkpt lat="46.68904" lon="5.63747">
        <ele>399.5</ele>
        <time>2021-03-29T13:04:56Z</time>
      </trkpt>
      <trkpt lat="46.68899" lon="5.63748">
        <ele>399.8</ele>
        <time>2021-03-29T13:05:03Z</time>
      </trkpt>
      <trkpt lat="46.68894" lon="5.63751">
        <ele>399.9</ele>
        <time>2021-03-29T13:05:15Z</time>
      </trkpt>
      <trkpt lat="46.68892" lon="5.63745">
        <ele>397</ele>
        <time>2021-03-29T13:05:24Z</time>
      </trkpt>
      <trkpt lat="46.68892" lon="5.63738">
        <ele>395.6</ele>
        <time>2021-03-29T13:05:29Z</time>
      </trkpt>
      <trkpt lat="46.68888" lon="5.6374">
        <ele>394.2</ele>
        <time>2021-03-29T13:05:59Z</time>
      </trkpt>
      <trkpt lat="46.68884" lon="5.63736">
        <ele>393.6</ele>
        <time>2021-03-29T13:06:09Z</time>
      </trkpt>
      <trkpt lat="46.68879" lon="5.63739">
        <ele>393.3</ele>
        <time>2021-03-29T13:06:20Z</time>
      </trkpt>
      <trkpt lat="46.68874" lon="5.63741">
        <ele>393.1</ele>
        <time>2021-03-29T13:06:30Z</time>
      </trkpt>
      <trkpt lat="46.68871" lon="5.63745">
        <ele>393.2</ele>
        <time>2021-03-29T13:06:39Z</time>
      </trkpt>
      <trkpt lat="46.68867" lon="5.63749">
        <ele>393.2</ele>
        <time>2021-03-29T13:06:45Z</time>
      </trkpt>
      <trkpt lat="46.68863" lon="5.63754">
        <ele>393.4</ele>
        <time>2021-03-29T13:06:52Z</time>
      </trkpt>
      <trkpt lat="46.68859" lon="5.63757">
        <ele>394.2</ele>
        <time>2021-03-29T13:07:04Z</time>
      </trkpt>
      <trkpt lat="46.68856" lon="5.63762">
        <ele>395.4</ele>
        <time>2021-03-29T13:07:11Z</time>
      </trkpt>
      <trkpt lat="46.68856" lon="5.63769">
        <ele>399.3</ele>
        <time>2021-03-29T13:07:37Z</time>
      </trkpt>
      <trkpt lat="46.68856" lon="5.63777">
        <ele>405.4</ele>
        <time>2021-03-29T13:07:56Z</time>
      </trkpt>
      <trkpt lat="46.68853" lon="5.63782">
        <ele>410.6</ele>
        <time>2021-03-29T13:08:13Z</time>
      </trkpt>
      <trkpt lat="46.6885" lon="5.63789">
        <ele>412.3</ele>
        <time>2021-03-29T13:08:22Z</time>
      </trkpt>
      <trkpt lat="46.68847" lon="5.638">
        <ele>415.7</ele>
        <time>2021-03-29T13:08:26Z</time>
      </trkpt>
      <trkpt lat="46.68844" lon="5.63807">
        <ele>418.7</ele>
        <time>2021-03-29T13:08:33Z</time>
      </trkpt>
      <trkpt lat="46.68841" lon="5.63814">
        <ele>421.6</ele>
        <time>2021-03-29T13:08:37Z</time>
      </trkpt>
      <trkpt lat="46.68837" lon="5.63818">
        <ele>424.1</ele>
        <time>2021-03-29T13:08:44Z</time>
      </trkpt>
      <trkpt lat="46.68839" lon="5.63827">
        <ele>425.6</ele>
        <time>2021-03-29T13:09:05Z</time>
      </trkpt>
      <trkpt lat="46.68841" lon="5.63833">
        <ele>426.3</ele>
        <time>2021-03-29T13:09:16Z</time>
      </trkpt>
      <trkpt lat="46.68841" lon="5.6384">
        <ele>426.8</ele>
        <time>2021-03-29T13:09:25Z</time>
      </trkpt>
      <trkpt lat="46.68843" lon="5.63847">
        <ele>427</ele>
        <time>2021-03-29T13:09:35Z</time>
      </trkpt>
      <trkpt lat="46.68841" lon="5.63853">
        <ele>427.3</ele>
        <time>2021-03-29T13:09:43Z</time>
      </trkpt>
      <trkpt lat="46.68841" lon="5.6386">
        <ele>427.8</ele>
        <time>2021-03-29T13:09:51Z</time>
      </trkpt>
      <trkpt lat="46.68839" lon="5.63867">
        <ele>428.4</ele>
        <time>2021-03-29T13:10:00Z</time>
      </trkpt>
      <trkpt lat="46.68839" lon="5.63873">
        <ele>429.4</ele>
        <time>2021-03-29T13:10:09Z</time>
      </trkpt>
      <trkpt lat="46.6884" lon="5.6388">
        <ele>430.3</ele>
        <time>2021-03-29T13:10:15Z</time>
      </trkpt>
      <trkpt lat="46.68839" lon="5.63887">
        <ele>431.3</ele>
        <time>2021-03-29T13:10:20Z</time>
      </trkpt>
      <trkpt lat="46.6884" lon="5.63894">
        <ele>432.5</ele>
        <time>2021-03-29T13:10:26Z</time>
      </trkpt>
      <trkpt lat="46.68843" lon="5.639">
        <ele>433.7</ele>
        <time>2021-03-29T13:10:32Z</time>
      </trkpt>
      <trkpt lat="46.68844" lon="5.63907">
        <ele>435</ele>
        <time>2021-03-29T13:10:38Z</time>
      </trkpt>
      <trkpt lat="46.68846" lon="5.63914">
        <ele>436.1</ele>
        <time>2021-03-29T13:10:44Z</time>
      </trkpt>
      <trkpt lat="46.68848" lon="5.6392">
        <ele>437</ele>
        <time>2021-03-29T13:10:49Z</time>
      </trkpt>
      <trkpt lat="46.6885" lon="5.63926">
        <ele>438</ele>
        <time>2021-03-29T13:10:56Z</time>
      </trkpt>
      <trkpt lat="46.68856" lon="5.63933">
        <ele>440.8</ele>
        <time>2021-03-29T13:11:03Z</time>
      </trkpt>
      <trkpt lat="46.68859" lon="5.63939">
        <ele>443.2</ele>
        <time>2021-03-29T13:11:07Z</time>
      </trkpt>
      <trkpt lat="46.68863" lon="5.63944">
        <ele>445.8</ele>
        <time>2021-03-29T13:11:11Z</time>
      </trkpt>
      <trkpt lat="46.68862" lon="5.63952">
        <ele>448.7</ele>
        <time>2021-03-29T13:11:19Z</time>
      </trkpt>
      <trkpt lat="46.68861" lon="5.63959">
        <ele>448.9</ele>
        <time>2021-03-29T13:11:25Z</time>
      </trkpt>
      <trkpt lat="46.68863" lon="5.63965">
        <ele>448.8</ele>
        <time>2021-03-29T13:11:29Z</time>
      </trkpt>
      <trkpt lat="46.68862" lon="5.63972">
        <ele>448.8</ele>
        <time>2021-03-29T13:11:39Z</time>
      </trkpt>
      <trkpt lat="46.68865" lon="5.63979">
        <ele>449.9</ele>
        <time>2021-03-29T13:11:46Z</time>
      </trkpt>
      <trkpt lat="46.68869" lon="5.63977">
        <ele>451.6</ele>
        <time>2021-03-29T13:11:52Z</time>
      </trkpt>
      <trkpt lat="46.68873" lon="5.63974">
        <ele>455.3</ele>
        <time>2021-03-29T13:11:56Z</time>
      </trkpt>
      <trkpt lat="46.68878" lon="5.63972">
        <ele>459.6</ele>
        <time>2021-03-29T13:12:00Z</time>
      </trkpt>
      <trkpt lat="46.68878" lon="5.63965">
        <ele>465</ele>
        <time>2021-03-29T13:12:08Z</time>
      </trkpt>
      <trkpt lat="46.68883" lon="5.63965">
        <ele>467.9</ele>
        <time>2021-03-29T13:12:15Z</time>
      </trkpt>
      <trkpt lat="46.68888" lon="5.63973">
        <ele>468.5</ele>
        <time>2021-03-29T13:12:19Z</time>
      </trkpt>
      <trkpt lat="46.68892" lon="5.6398">
        <ele>468.9</ele>
        <time>2021-03-29T13:12:23Z</time>
      </trkpt>
      <trkpt lat="46.68894" lon="5.63986">
        <ele>469.6</ele>
        <time>2021-03-29T13:12:30Z</time>
      </trkpt>
      <trkpt lat="46.68891" lon="5.63994">
        <ele>469.9</ele>
        <time>2021-03-29T13:12:35Z</time>
      </trkpt>
      <trkpt lat="46.6889" lon="5.64">
        <ele>469.9</ele>
        <time>2021-03-29T13:12:39Z</time>
      </trkpt>
      <trkpt lat="46.68884" lon="5.63999">
        <ele>469.1</ele>
        <time>2021-03-29T13:12:46Z</time>
      </trkpt>
      <trkpt lat="46.6888" lon="5.64">
        <ele>467.6</ele>
        <time>2021-03-29T13:12:53Z</time>
      </trkpt>
      <trkpt lat="46.6888" lon="5.64007">
        <ele>466.3</ele>
        <time>2021-03-29T13:13:01Z</time>
      </trkpt>
      <trkpt lat="46.68879" lon="5.64014">
        <ele>465.5</ele>
        <time>2021-03-29T13:13:08Z</time>
      </trkpt>
      <trkpt lat="46.68878" lon="5.64021">
        <ele>464.9</ele>
        <time>2021-03-29T13:13:15Z</time>
      </trkpt>
      <trkpt lat="46.68874" lon="5.64024">
        <ele>463.9</ele>
        <time>2021-03-29T13:13:25Z</time>
      </trkpt>
      <trkpt lat="46.68869" lon="5.64026">
        <ele>463.9</ele>
        <time>2021-03-29T13:13:42Z</time>
      </trkpt>
      <trkpt lat="46.68865" lon="5.6403">
        <ele>464.8</ele>
        <time>2021-03-29T13:14:42Z</time>
      </trkpt>
      <trkpt lat="46.68866" lon="5.64036">
        <ele>469</ele>
        <time>2021-03-29T13:15:44Z</time>
      </trkpt>
      <trkpt lat="46.68861" lon="5.6404">
        <ele>469.2</ele>
        <time>2021-03-29T13:15:56Z</time>
      </trkpt>
      <trkpt lat="46.68856" lon="5.64039">
        <ele>470.1</ele>
        <time>2021-03-29T13:16:02Z</time>
      </trkpt>
      <trkpt lat="46.68851" lon="5.64036">
        <ele>471.3</ele>
        <time>2021-03-29T13:16:06Z</time>
      </trkpt>
      <trkpt lat="46.68855" lon="5.64042">
        <ele>473.9</ele>
        <time>2021-03-29T13:16:15Z</time>
      </trkpt>
      <trkpt lat="46.68856" lon="5.64048">
        <ele>474.1</ele>
        <time>2021-03-29T13:16:20Z</time>
      </trkpt>
      <trkpt lat="46.68851" lon="5.64051">
        <ele>475.1</ele>
        <time>2021-03-29T13:16:32Z</time>
      </trkpt>
      <trkpt lat="46.6885" lon="5.64058">
        <ele>473.6</ele>
        <time>2021-03-29T13:16:39Z</time>
      </trkpt>
      <trkpt lat="46.68849" lon="5.64051">
        <ele>472.5</ele>
        <time>2021-03-29T13:16:59Z</time>
      </trkpt>
      <trkpt lat="46.68854" lon="5.64053">
        <ele>475.4</ele>
        <time>2021-03-29T13:17:14Z</time>
      </trkpt>
      <trkpt lat="46.68851" lon="5.64047">
        <ele>479.7</ele>
        <time>2021-03-29T13:18:11Z</time>
      </trkpt>
      <trkpt lat="46.68847" lon="5.64045">
        <ele>479.6</ele>
        <time>2021-03-29T13:18:35Z</time>
      </trkpt>
      <trkpt lat="46.68852" lon="5.64046">
        <ele>479.9</ele>
        <time>2021-03-29T13:18:40Z</time>
      </trkpt>
      <trkpt lat="46.68853" lon="5.64039">
        <ele>481.5</ele>
        <time>2021-03-29T13:18:55Z</time>
      </trkpt>
      <trkpt lat="46.68852" lon="5.64033">
        <ele>482</ele>
        <time>2021-03-29T13:19:01Z</time>
      </trkpt>
      <trkpt lat="46.68854" lon="5.64026">
        <ele>483.1</ele>
        <time>2021-03-29T13:19:08Z</time>
      </trkpt>
      <trkpt lat="46.6885" lon="5.64021">
        <ele>482.3</ele>
        <time>2021-03-29T13:19:29Z</time>
      </trkpt>
      <trkpt lat="46.6885" lon="5.64028">
        <ele>481.8</ele>
        <time>2021-03-29T13:19:43Z</time>
      </trkpt>
      <trkpt lat="46.6885" lon="5.64035">
        <ele>483.5</ele>
        <time>2021-03-29T13:19:52Z</time>
      </trkpt>
      <trkpt lat="46.68847" lon="5.6404">
        <ele>484.7</ele>
        <time>2021-03-29T13:20:01Z</time>
      </trkpt>
      <trkpt lat="46.68843" lon="5.64043">
        <ele>484.8</ele>
        <time>2021-03-29T13:20:07Z</time>
      </trkpt>
      <trkpt lat="46.68838" lon="5.64046">
        <ele>485.1</ele>
        <time>2021-03-29T13:20:14Z</time>
      </trkpt>
      <trkpt lat="46.68835" lon="5.64041">
        <ele>486.7</ele>
        <time>2021-03-29T13:21:48Z</time>
      </trkpt>
      <trkpt lat="46.68835" lon="5.64034">
        <ele>486.7</ele>
        <time>2021-03-29T13:21:56Z</time>
      </trkpt>
      <trkpt lat="46.68838" lon="5.64028">
        <ele>487.6</ele>
        <time>2021-03-29T13:22:04Z</time>
      </trkpt>
      <trkpt lat="46.68841" lon="5.64022">
        <ele>488</ele>
        <time>2021-03-29T13:22:10Z</time>
      </trkpt>
      <trkpt lat="46.68841" lon="5.64015">
        <ele>488.3</ele>
        <time>2021-03-29T13:22:16Z</time>
      </trkpt>
      <trkpt lat="46.6884" lon="5.64009">
        <ele>488.7</ele>
        <time>2021-03-29T13:22:22Z</time>
      </trkpt>
      <trkpt lat="46.68839" lon="5.64002">
        <ele>489.7</ele>
        <time>2021-03-29T13:22:29Z</time>
      </trkpt>
      <trkpt lat="46.68834" lon="5.64">
        <ele>489.7</ele>
        <time>2021-03-29T13:22:43Z</time>
      </trkpt>
      <trkpt lat="46.68833" lon="5.63993">
        <ele>490.4</ele>
        <time>2021-03-29T13:23:03Z</time>
      </trkpt>
      <trkpt lat="46.68834" lon="5.63987">
        <ele>491.1</ele>
        <time>2021-03-29T13:23:14Z</time>
      </trkpt>
      <trkpt lat="46.68832" lon="5.6398">
        <ele>491.3</ele>
        <time>2021-03-29T13:23:21Z</time>
      </trkpt>
      <trkpt lat="46.68829" lon="5.63976">
        <ele>492</ele>
        <time>2021-03-29T13:23:42Z</time>
      </trkpt>
      <trkpt lat="46.68824" lon="5.63976">
        <ele>492.1</ele>
        <time>2021-03-29T13:23:49Z</time>
      </trkpt>
      <trkpt lat="46.68819" lon="5.63974">
        <ele>492.8</ele>
        <time>2021-03-29T13:23:57Z</time>
      </trkpt>
      <trkpt lat="46.68814" lon="5.63974">
        <ele>494.1</ele>
        <time>2021-03-29T13:24:05Z</time>
      </trkpt>
      <trkpt lat="46.68809" lon="5.63975">
        <ele>494.9</ele>
        <time>2021-03-29T13:24:11Z</time>
      </trkpt>
      <trkpt lat="46.68803" lon="5.63976">
        <ele>495.6</ele>
        <time>2021-03-29T13:24:16Z</time>
      </trkpt>
      <trkpt lat="46.68799" lon="5.63974">
        <ele>496.9</ele>
        <time>2021-03-29T13:24:22Z</time>
      </trkpt>
      <trkpt lat="46.68797" lon="5.63967">
        <ele>497.8</ele>
        <time>2021-03-29T13:24:26Z</time>
      </trkpt>
      <trkpt lat="46.68796" lon="5.6396">
        <ele>498.9</ele>
        <time>2021-03-29T13:24:31Z</time>
      </trkpt>
      <trkpt lat="46.68796" lon="5.63953">
        <ele>499.9</ele>
        <time>2021-03-29T13:24:36Z</time>
      </trkpt>
      <trkpt lat="46.68797" lon="5.63945">
        <ele>500.9</ele>
        <time>2021-03-29T13:24:41Z</time>
      </trkpt>
      <trkpt lat="46.688" lon="5.6394">
        <ele>501.8</ele>
        <time>2021-03-29T13:24:46Z</time>
      </trkpt>
      <trkpt lat="46.68801" lon="5.63933">
        <ele>502.7</ele>
        <time>2021-03-29T13:24:51Z</time>
      </trkpt>
      <trkpt lat="46.68802" lon="5.63925">
        <ele>503.3</ele>
        <time>2021-03-29T13:24:56Z</time>
      </trkpt>
      <trkpt lat="46.68804" lon="5.63919">
        <ele>504.2</ele>
        <time>2021-03-29T13:25:02Z</time>
      </trkpt>
      <trkpt lat="46.68807" lon="5.63913">
        <ele>505.1</ele>
        <time>2021-03-29T13:25:07Z</time>
      </trkpt>
      <trkpt lat="46.6881" lon="5.63907">
        <ele>505.5</ele>
        <time>2021-03-29T13:25:12Z</time>
      </trkpt>
      <trkpt lat="46.6881" lon="5.639">
        <ele>506.1</ele>
        <time>2021-03-29T13:25:17Z</time>
      </trkpt>
      <trkpt lat="46.6881" lon="5.63893">
        <ele>506.4</ele>
        <time>2021-03-29T13:25:22Z</time>
      </trkpt>
      <trkpt lat="46.6881" lon="5.63886">
        <ele>506.7</ele>
        <time>2021-03-29T13:25:27Z</time>
      </trkpt>
      <trkpt lat="46.68811" lon="5.6388">
        <ele>507.2</ele>
        <time>2021-03-29T13:25:31Z</time>
      </trkpt>
      <trkpt lat="46.68811" lon="5.63872">
        <ele>507.8</ele>
        <time>2021-03-29T13:25:36Z</time>
      </trkpt>
      <trkpt lat="46.68812" lon="5.63865">
        <ele>508.5</ele>
        <time>2021-03-29T13:25:41Z</time>
      </trkpt>
      <trkpt lat="46.68813" lon="5.63858">
        <ele>509.2</ele>
        <time>2021-03-29T13:26:23Z</time>
      </trkpt>
      <trkpt lat="46.6881" lon="5.63852">
        <ele>508.6</ele>
        <time>2021-03-29T13:26:31Z</time>
      </trkpt>
      <trkpt lat="46.68806" lon="5.63848">
        <ele>508.3</ele>
        <time>2021-03-29T13:26:37Z</time>
      </trkpt>
      <trkpt lat="46.68811" lon="5.63847">
        <ele>509.3</ele>
        <time>2021-03-29T13:27:11Z</time>
      </trkpt>
      <trkpt lat="46.68812" lon="5.6384">
        <ele>509.6</ele>
        <time>2021-03-29T13:28:12Z</time>
      </trkpt>
      <trkpt lat="46.68811" lon="5.63833">
        <ele>509.2</ele>
        <time>2021-03-29T13:28:19Z</time>
      </trkpt>
      <trkpt lat="46.68811" lon="5.63825">
        <ele>509</ele>
        <time>2021-03-29T13:28:26Z</time>
      </trkpt>
      <trkpt lat="46.6881" lon="5.63819">
        <ele>508.9</ele>
        <time>2021-03-29T13:28:30Z</time>
      </trkpt>
      <trkpt lat="46.68809" lon="5.63811">
        <ele>508.5</ele>
        <time>2021-03-29T13:28:35Z</time>
      </trkpt>
      <trkpt lat="46.6881" lon="5.63804">
        <ele>508.1</ele>
        <time>2021-03-29T13:28:41Z</time>
      </trkpt>
      <trkpt lat="46.68811" lon="5.63797">
        <ele>508.6</ele>
        <time>2021-03-29T13:28:47Z</time>
      </trkpt>
      <trkpt lat="46.68812" lon="5.6379">
        <ele>508.8</ele>
        <time>2021-03-29T13:28:53Z</time>
      </trkpt>
      <trkpt lat="46.68813" lon="5.63784">
        <ele>509</ele>
        <time>2021-03-29T13:28:58Z</time>
      </trkpt>
      <trkpt lat="46.68815" lon="5.63777">
        <ele>509.1</ele>
        <time>2021-03-29T13:29:03Z</time>
      </trkpt>
      <trkpt lat="46.68818" lon="5.63773">
        <ele>509.2</ele>
        <time>2021-03-29T13:29:07Z</time>
      </trkpt>
      <trkpt lat="46.68822" lon="5.6377">
        <ele>509.7</ele>
        <time>2021-03-29T13:29:11Z</time>
      </trkpt>
      <trkpt lat="46.68825" lon="5.63766">
        <ele>510.1</ele>
        <time>2021-03-29T13:29:15Z</time>
      </trkpt>
      <trkpt lat="46.68829" lon="5.6376">
        <ele>510.6</ele>
        <time>2021-03-29T13:29:20Z</time>
      </trkpt>
      <trkpt lat="46.68832" lon="5.63754">
        <ele>511.2</ele>
        <time>2021-03-29T13:29:24Z</time>
      </trkpt>
      <trkpt lat="46.68836" lon="5.63746">
        <ele>511.8</ele>
        <time>2021-03-29T13:29:28Z</time>
      </trkpt>
      <trkpt lat="46.68839" lon="5.63742">
        <ele>512.2</ele>
        <time>2021-03-29T13:29:33Z</time>
      </trkpt>
      <trkpt lat="46.68844" lon="5.6374">
        <ele>512.4</ele>
        <time>2021-03-29T13:29:39Z</time>
      </trkpt>
      <trkpt lat="46.68849" lon="5.63735">
        <ele>512.9</ele>
        <time>2021-03-29T13:29:44Z</time>
      </trkpt>
      <trkpt lat="46.68853" lon="5.63731">
        <ele>513.2</ele>
        <time>2021-03-29T13:29:48Z</time>
      </trkpt>
      <trkpt lat="46.68857" lon="5.63726">
        <ele>513.2</ele>
        <time>2021-03-29T13:29:53Z</time>
      </trkpt>
      <trkpt lat="46.68862" lon="5.63723">
        <ele>512.9</ele>
        <time>2021-03-29T13:29:58Z</time>
      </trkpt>
      <trkpt lat="46.68866" lon="5.63721">
        <ele>512.8</ele>
        <time>2021-03-29T13:30:03Z</time>
      </trkpt>
      <trkpt lat="46.68871" lon="5.6372">
        <ele>512.8</ele>
        <time>2021-03-29T13:30:08Z</time>
      </trkpt>
      <trkpt lat="46.68877" lon="5.63719">
        <ele>512.8</ele>
        <time>2021-03-29T13:30:12Z</time>
      </trkpt>
      <trkpt lat="46.68881" lon="5.63718">
        <ele>512.9</ele>
        <time>2021-03-29T13:30:16Z</time>
      </trkpt>
      <trkpt lat="46.68886" lon="5.63718">
        <ele>513.3</ele>
        <time>2021-03-29T13:30:22Z</time>
      </trkpt>
      <trkpt lat="46.68891" lon="5.63717">
        <ele>513.5</ele>
        <time>2021-03-29T13:30:27Z</time>
      </trkpt>
      <trkpt lat="46.68896" lon="5.63714">
        <ele>513.8</ele>
        <time>2021-03-29T13:30:33Z</time>
      </trkpt>
      <trkpt lat="46.68901" lon="5.63713">
        <ele>514.1</ele>
        <time>2021-03-29T13:30:38Z</time>
      </trkpt>
      <trkpt lat="46.68905" lon="5.63711">
        <ele>514.2</ele>
        <time>2021-03-29T13:30:43Z</time>
      </trkpt>
      <trkpt lat="46.6891" lon="5.63709">
        <ele>514.4</ele>
        <time>2021-03-29T13:30:48Z</time>
      </trkpt>
      <trkpt lat="46.68914" lon="5.63707">
        <ele>514.5</ele>
        <time>2021-03-29T13:30:53Z</time>
      </trkpt>
      <trkpt lat="46.6892" lon="5.63706">
        <ele>514.4</ele>
        <time>2021-03-29T13:30:58Z</time>
      </trkpt>
      <trkpt lat="46.68924" lon="5.63703">
        <ele>514.3</ele>
        <time>2021-03-29T13:31:02Z</time>
      </trkpt>
      <trkpt lat="46.68928" lon="5.63699">
        <ele>514.2</ele>
        <time>2021-03-29T13:31:08Z</time>
      </trkpt>
      <trkpt lat="46.68932" lon="5.63696">
        <ele>514.1</ele>
        <time>2021-03-29T13:31:13Z</time>
      </trkpt>
      <trkpt lat="46.68937" lon="5.63693">
        <ele>514.3</ele>
        <time>2021-03-29T13:31:18Z</time>
      </trkpt>
      <trkpt lat="46.68942" lon="5.63691">
        <ele>514.6</ele>
        <time>2021-03-29T13:31:23Z</time>
      </trkpt>
      <trkpt lat="46.68947" lon="5.63688">
        <ele>514.7</ele>
        <time>2021-03-29T13:31:29Z</time>
      </trkpt>
      <trkpt lat="46.68951" lon="5.63685">
        <ele>514.8</ele>
        <time>2021-03-29T13:31:34Z</time>
      </trkpt>
      <trkpt lat="46.68955" lon="5.63679">
        <ele>514.8</ele>
        <time>2021-03-29T13:31:39Z</time>
      </trkpt>
      <trkpt lat="46.68959" lon="5.63675">
        <ele>514.6</ele>
        <time>2021-03-29T13:31:44Z</time>
      </trkpt>
      <trkpt lat="46.68963" lon="5.63671">
        <ele>514.5</ele>
        <time>2021-03-29T13:31:49Z</time>
      </trkpt>
      <trkpt lat="46.68967" lon="5.63668">
        <ele>514.2</ele>
        <time>2021-03-29T13:31:54Z</time>
      </trkpt>
      <trkpt lat="46.68972" lon="5.63665">
        <ele>513.8</ele>
        <time>2021-03-29T13:31:59Z</time>
      </trkpt>
      <trkpt lat="46.68977" lon="5.63662">
        <ele>513.5</ele>
        <time>2021-03-29T13:32:04Z</time>
      </trkpt>
      <trkpt lat="46.68981" lon="5.63659">
        <ele>513.4</ele>
        <time>2021-03-29T13:32:09Z</time>
      </trkpt>
      <trkpt lat="46.68986" lon="5.63656">
        <ele>513.3</ele>
        <time>2021-03-29T13:32:14Z</time>
      </trkpt>
      <trkpt lat="46.68991" lon="5.63652">
        <ele>513.2</ele>
        <time>2021-03-29T13:32:19Z</time>
      </trkpt>
      <trkpt lat="46.68995" lon="5.63648">
        <ele>513.2</ele>
        <time>2021-03-29T13:32:24Z</time>
      </trkpt>
      <trkpt lat="46.69" lon="5.63644">
        <ele>513.3</ele>
        <time>2021-03-29T13:32:30Z</time>
      </trkpt>
      <trkpt lat="46.69003" lon="5.6364">
        <ele>513.3</ele>
        <time>2021-03-29T13:32:35Z</time>
      </trkpt>
      <trkpt lat="46.69007" lon="5.63636">
        <ele>513.2</ele>
        <time>2021-03-29T13:32:40Z</time>
      </trkpt>
      <trkpt lat="46.6901" lon="5.6363">
        <ele>513</ele>
        <time>2021-03-29T13:32:46Z</time>
      </trkpt>
      <trkpt lat="46.69011" lon="5.63624">
        <ele>514.1</ele>
        <time>2021-03-29T13:33:07Z</time>
      </trkpt>
      <trkpt lat="46.69013" lon="5.63616">
        <ele>515.3</ele>
        <time>2021-03-29T13:33:23Z</time>
      </trkpt>
      <trkpt lat="46.69012" lon="5.63609">
        <ele>515.4</ele>
        <time>2021-03-29T13:33:27Z</time>
      </trkpt>
      <trkpt lat="46.69014" lon="5.63602">
        <ele>515.7</ele>
        <time>2021-03-29T13:33:35Z</time>
      </trkpt>
      <trkpt lat="46.69017" lon="5.63596">
        <ele>516</ele>
        <time>2021-03-29T13:33:40Z</time>
      </trkpt>
      <trkpt lat="46.69022" lon="5.63592">
        <ele>516.5</ele>
        <time>2021-03-29T13:33:46Z</time>
      </trkpt>
      <trkpt lat="46.69026" lon="5.63589">
        <ele>516.9</ele>
        <time>2021-03-29T13:33:51Z</time>
      </trkpt>
      <trkpt lat="46.6903" lon="5.63585">
        <ele>517.5</ele>
        <time>2021-03-29T13:33:56Z</time>
      </trkpt>
      <trkpt lat="46.69034" lon="5.63579">
        <ele>517.9</ele>
        <time>2021-03-29T13:34:01Z</time>
      </trkpt>
      <trkpt lat="46.69037" lon="5.63573">
        <ele>518.3</ele>
        <time>2021-03-29T13:34:06Z</time>
      </trkpt>
      <trkpt lat="46.69041" lon="5.63569">
        <ele>518.7</ele>
        <time>2021-03-29T13:34:10Z</time>
      </trkpt>
      <trkpt lat="46.69045" lon="5.63564">
        <ele>519</ele>
        <time>2021-03-29T13:34:15Z</time>
      </trkpt>
      <trkpt lat="46.69044" lon="5.63547">
        <ele>520.8</ele>
        <time>2021-03-29T13:34:20Z</time>
      </trkpt>
      <trkpt lat="46.69043" lon="5.63531">
        <ele>522.6</ele>
        <time>2021-03-29T13:34:24Z</time>
      </trkpt>
      <trkpt lat="46.69047" lon="5.63525">
        <ele>523.9</ele>
        <time>2021-03-29T13:34:29Z</time>
      </trkpt>
      <trkpt lat="46.69051" lon="5.63522">
        <ele>524.2</ele>
        <time>2021-03-29T13:34:34Z</time>
      </trkpt>
      <trkpt lat="46.69055" lon="5.63519">
        <ele>524</ele>
        <time>2021-03-29T13:34:39Z</time>
      </trkpt>
      <trkpt lat="46.6906" lon="5.63518">
        <ele>523.5</ele>
        <time>2021-03-29T13:34:44Z</time>
      </trkpt>
      <trkpt lat="46.69066" lon="5.63519">
        <ele>522.7</ele>
        <time>2021-03-29T13:34:48Z</time>
      </trkpt>
      <trkpt lat="46.69072" lon="5.63519">
        <ele>522</ele>
        <time>2021-03-29T13:34:52Z</time>
      </trkpt>
      <trkpt lat="46.69077" lon="5.63517">
        <ele>521.3</ele>
        <time>2021-03-29T13:34:56Z</time>
      </trkpt>
      <trkpt lat="46.69082" lon="5.63515">
        <ele>520.9</ele>
        <time>2021-03-29T13:35:00Z</time>
      </trkpt>
      <trkpt lat="46.69088" lon="5.63514">
        <ele>520.5</ele>
        <time>2021-03-29T13:35:04Z</time>
      </trkpt>
      <trkpt lat="46.69094" lon="5.63513">
        <ele>520.1</ele>
        <time>2021-03-29T13:35:08Z</time>
      </trkpt>
      <trkpt lat="46.69098" lon="5.6351">
        <ele>519.6</ele>
        <time>2021-03-29T13:35:13Z</time>
      </trkpt>
      <trkpt lat="46.69101" lon="5.63505">
        <ele>519.1</ele>
        <time>2021-03-29T13:35:19Z</time>
      </trkpt>
      <trkpt lat="46.69105" lon="5.63502">
        <ele>518.5</ele>
        <time>2021-03-29T13:35:25Z</time>
      </trkpt>
      <trkpt lat="46.6911" lon="5.63501">
        <ele>517.8</ele>
        <time>2021-03-29T13:35:30Z</time>
      </trkpt>
      <trkpt lat="46.69115" lon="5.63502">
        <ele>516.8</ele>
        <time>2021-03-29T13:35:36Z</time>
      </trkpt>
      <trkpt lat="46.69121" lon="5.63502">
        <ele>516.1</ele>
        <time>2021-03-29T13:35:41Z</time>
      </trkpt>
      <trkpt lat="46.69125" lon="5.635">
        <ele>515.2</ele>
        <time>2021-03-29T13:35:48Z</time>
      </trkpt>
      <trkpt lat="46.6913" lon="5.63497">
        <ele>514.4</ele>
        <time>2021-03-29T13:35:54Z</time>
      </trkpt>
      <trkpt lat="46.69135" lon="5.63496">
        <ele>513.7</ele>
        <time>2021-03-29T13:35:59Z</time>
      </trkpt>
      <trkpt lat="46.69141" lon="5.63496">
        <ele>513</ele>
        <time>2021-03-29T13:36:03Z</time>
      </trkpt>
      <trkpt lat="46.69147" lon="5.63496">
        <ele>512.5</ele>
        <time>2021-03-29T13:36:07Z</time>
      </trkpt>
      <trkpt lat="46.69152" lon="5.63495">
        <ele>511.9</ele>
        <time>2021-03-29T13:36:11Z</time>
      </trkpt>
      <trkpt lat="46.69158" lon="5.63493">
        <ele>511.1</ele>
        <time>2021-03-29T13:36:16Z</time>
      </trkpt>
      <trkpt lat="46.69163" lon="5.63491">
        <ele>510.7</ele>
        <time>2021-03-29T13:36:20Z</time>
      </trkpt>
      <trkpt lat="46.69168" lon="5.6349">
        <ele>510.6</ele>
        <time>2021-03-29T13:36:25Z</time>
      </trkpt>
      <trkpt lat="46.69173" lon="5.63493">
        <ele>511</ele>
        <time>2021-03-29T13:36:32Z</time>
      </trkpt>
      <trkpt lat="46.69178" lon="5.63495">
        <ele>511.1</ele>
        <time>2021-03-29T13:36:38Z</time>
      </trkpt>
      <trkpt lat="46.69183" lon="5.63494">
        <ele>510.9</ele>
        <time>2021-03-29T13:36:44Z</time>
      </trkpt>
      <trkpt lat="46.69188" lon="5.63494">
        <ele>510.3</ele>
        <time>2021-03-29T13:36:52Z</time>
      </trkpt>
      <trkpt lat="46.69192" lon="5.63492">
        <ele>509.6</ele>
        <time>2021-03-29T13:36:59Z</time>
      </trkpt>
      <trkpt lat="46.69196" lon="5.63487">
        <ele>508.8</ele>
        <time>2021-03-29T13:37:05Z</time>
      </trkpt>
      <trkpt lat="46.692" lon="5.63482">
        <ele>507.8</ele>
        <time>2021-03-29T13:37:12Z</time>
      </trkpt>
      <trkpt lat="46.69205" lon="5.63479">
        <ele>506.8</ele>
        <time>2021-03-29T13:37:19Z</time>
      </trkpt>
      <trkpt lat="46.69207" lon="5.63472">
        <ele>506</ele>
        <time>2021-03-29T13:37:25Z</time>
      </trkpt>
      <trkpt lat="46.69211" lon="5.63467">
        <ele>505.1</ele>
        <time>2021-03-29T13:37:30Z</time>
      </trkpt>
      <trkpt lat="46.69214" lon="5.63461">
        <ele>504.3</ele>
        <time>2021-03-29T13:37:35Z</time>
      </trkpt>
      <trkpt lat="46.69218" lon="5.63456">
        <ele>503.2</ele>
        <time>2021-03-29T13:37:41Z</time>
      </trkpt>
      <trkpt lat="46.69222" lon="5.63453">
        <ele>502.2</ele>
        <time>2021-03-29T13:37:46Z</time>
      </trkpt>
      <trkpt lat="46.69227" lon="5.6345">
        <ele>501.1</ele>
        <time>2021-03-29T13:37:51Z</time>
      </trkpt>
      <trkpt lat="46.69232" lon="5.63446">
        <ele>500.2</ele>
        <time>2021-03-29T13:37:56Z</time>
      </trkpt>
      <trkpt lat="46.69237" lon="5.63444">
        <ele>499.2</ele>
        <time>2021-03-29T13:38:01Z</time>
      </trkpt>
      <trkpt lat="46.69242" lon="5.63442">
        <ele>497.8</ele>
        <time>2021-03-29T13:38:06Z</time>
      </trkpt>
      <trkpt lat="46.69246" lon="5.63441">
        <ele>496.1</ele>
        <time>2021-03-29T13:38:11Z</time>
      </trkpt>
      <trkpt lat="46.69251" lon="5.63441">
        <ele>494.6</ele>
        <time>2021-03-29T13:38:15Z</time>
      </trkpt>
      <trkpt lat="46.69256" lon="5.63441">
        <ele>492.8</ele>
        <time>2021-03-29T13:38:20Z</time>
      </trkpt>
      <trkpt lat="46.69261" lon="5.63442">
        <ele>491.3</ele>
        <time>2021-03-29T13:38:25Z</time>
      </trkpt>
      <trkpt lat="46.69266" lon="5.63442">
        <ele>490.1</ele>
        <time>2021-03-29T13:38:30Z</time>
      </trkpt>
      <trkpt lat="46.69271" lon="5.63442">
        <ele>489.2</ele>
        <time>2021-03-29T13:38:34Z</time>
      </trkpt>
      <trkpt lat="46.69277" lon="5.63441">
        <ele>488.6</ele>
        <time>2021-03-29T13:38:39Z</time>
      </trkpt>
      <trkpt lat="46.69281" lon="5.6344">
        <ele>488.3</ele>
        <time>2021-03-29T13:38:46Z</time>
      </trkpt>
      <trkpt lat="46.69286" lon="5.63439">
        <ele>488.9</ele>
        <time>2021-03-29T13:38:50Z</time>
      </trkpt>
      <trkpt lat="46.69292" lon="5.63436">
        <ele>490.2</ele>
        <time>2021-03-29T13:38:54Z</time>
      </trkpt>
      <trkpt lat="46.69299" lon="5.63432">
        <ele>492.1</ele>
        <time>2021-03-29T13:38:58Z</time>
      </trkpt>
      <trkpt lat="46.69304" lon="5.63432">
        <ele>493.5</ele>
        <time>2021-03-29T13:39:02Z</time>
      </trkpt>
      <trkpt lat="46.69311" lon="5.63434">
        <ele>494.8</ele>
        <time>2021-03-29T13:39:06Z</time>
      </trkpt>
      <trkpt lat="46.69321" lon="5.63433">
        <ele>497</ele>
        <time>2021-03-29T13:39:10Z</time>
      </trkpt>
      <trkpt lat="46.69328" lon="5.63433">
        <ele>500.6</ele>
        <time>2021-03-29T13:39:14Z</time>
      </trkpt>
      <trkpt lat="46.69332" lon="5.63434">
        <ele>507.3</ele>
        <time>2021-03-29T13:39:24Z</time>
      </trkpt>
      <trkpt lat="46.69337" lon="5.63436">
        <ele>508.4</ele>
        <time>2021-03-29T13:39:29Z</time>
      </trkpt>
      <trkpt lat="46.69342" lon="5.63439">
        <ele>508.7</ele>
        <time>2021-03-29T13:39:33Z</time>
      </trkpt>
      <trkpt lat="46.69346" lon="5.63443">
        <ele>508.9</ele>
        <time>2021-03-29T13:39:37Z</time>
      </trkpt>
      <trkpt lat="46.69351" lon="5.63446">
        <ele>509</ele>
        <time>2021-03-29T13:39:41Z</time>
      </trkpt>
      <trkpt lat="46.69356" lon="5.63449">
        <ele>509</ele>
        <time>2021-03-29T13:39:46Z</time>
      </trkpt>
      <trkpt lat="46.69361" lon="5.63451">
        <ele>509.2</ele>
        <time>2021-03-29T13:39:50Z</time>
      </trkpt>
      <trkpt lat="46.69366" lon="5.63455">
        <ele>509.3</ele>
        <time>2021-03-29T13:39:55Z</time>
      </trkpt>
      <trkpt lat="46.6937" lon="5.63457">
        <ele>509.3</ele>
        <time>2021-03-29T13:39:59Z</time>
      </trkpt>
      <trkpt lat="46.69374" lon="5.6346">
        <ele>509.4</ele>
        <time>2021-03-29T13:40:03Z</time>
      </trkpt>
      <trkpt lat="46.6938" lon="5.63463">
        <ele>509.7</ele>
        <time>2021-03-29T13:40:07Z</time>
      </trkpt>
      <trkpt lat="46.69384" lon="5.63466">
        <ele>510.3</ele>
        <time>2021-03-29T13:40:11Z</time>
      </trkpt>
      <trkpt lat="46.69389" lon="5.63468">
        <ele>510.9</ele>
        <time>2021-03-29T13:40:15Z</time>
      </trkpt>
      <trkpt lat="46.69393" lon="5.63469">
        <ele>511.6</ele>
        <time>2021-03-29T13:40:19Z</time>
      </trkpt>
      <trkpt lat="46.69398" lon="5.63472">
        <ele>512.3</ele>
        <time>2021-03-29T13:40:23Z</time>
      </trkpt>
      <trkpt lat="46.69403" lon="5.63476">
        <ele>512.7</ele>
        <time>2021-03-29T13:40:27Z</time>
      </trkpt>
      <trkpt lat="46.69407" lon="5.63479">
        <ele>512.7</ele>
        <time>2021-03-29T13:40:32Z</time>
      </trkpt>
      <trkpt lat="46.69411" lon="5.63482">
        <ele>512.3</ele>
        <time>2021-03-29T13:40:37Z</time>
      </trkpt>
      <trkpt lat="46.69416" lon="5.63484">
        <ele>511.8</ele>
        <time>2021-03-29T13:40:42Z</time>
      </trkpt>
      <trkpt lat="46.69421" lon="5.63486">
        <ele>511.4</ele>
        <time>2021-03-29T13:40:46Z</time>
      </trkpt>
      <trkpt lat="46.69426" lon="5.63489">
        <ele>510.9</ele>
        <time>2021-03-29T13:40:50Z</time>
      </trkpt>
      <trkpt lat="46.6943" lon="5.63492">
        <ele>510.6</ele>
        <time>2021-03-29T13:40:55Z</time>
      </trkpt>
      <trkpt lat="46.69434" lon="5.63495">
        <ele>510.5</ele>
        <time>2021-03-29T13:40:59Z</time>
      </trkpt>
      <trkpt lat="46.69439" lon="5.63498">
        <ele>510.6</ele>
        <time>2021-03-29T13:41:03Z</time>
      </trkpt>
      <trkpt lat="46.69444" lon="5.63501">
        <ele>510.8</ele>
        <time>2021-03-29T13:41:08Z</time>
      </trkpt>
      <trkpt lat="46.69449" lon="5.63501">
        <ele>510.7</ele>
        <time>2021-03-29T13:41:13Z</time>
      </trkpt>
      <trkpt lat="46.69454" lon="5.63501">
        <ele>510.8</ele>
        <time>2021-03-29T13:41:18Z</time>
      </trkpt>
      <trkpt lat="46.69459" lon="5.63501">
        <ele>511.1</ele>
        <time>2021-03-29T13:41:24Z</time>
      </trkpt>
      <trkpt lat="46.69464" lon="5.63502">
        <ele>511.6</ele>
        <time>2021-03-29T13:41:30Z</time>
      </trkpt>
      <trkpt lat="46.69469" lon="5.63504">
        <ele>511.8</ele>
        <time>2021-03-29T13:41:35Z</time>
      </trkpt>
      <trkpt lat="46.69474" lon="5.63505">
        <ele>511.8</ele>
        <time>2021-03-29T13:41:40Z</time>
      </trkpt>
      <trkpt lat="46.69479" lon="5.63507">
        <ele>511.8</ele>
        <time>2021-03-29T13:41:45Z</time>
      </trkpt>
      <trkpt lat="46.69484" lon="5.63511">
        <ele>511.6</ele>
        <time>2021-03-29T13:41:50Z</time>
      </trkpt>
      <trkpt lat="46.69489" lon="5.63514">
        <ele>511.4</ele>
        <time>2021-03-29T13:41:54Z</time>
      </trkpt>
      <trkpt lat="46.69494" lon="5.63517">
        <ele>511.3</ele>
        <time>2021-03-29T13:41:58Z</time>
      </trkpt>
      <trkpt lat="46.69498" lon="5.6352">
        <ele>511.1</ele>
        <time>2021-03-29T13:42:02Z</time>
      </trkpt>
      <trkpt lat="46.69502" lon="5.63523">
        <ele>511</ele>
        <time>2021-03-29T13:42:07Z</time>
      </trkpt>
      <trkpt lat="46.69506" lon="5.63529">
        <ele>510.8</ele>
        <time>2021-03-29T13:42:12Z</time>
      </trkpt>
      <trkpt lat="46.6951" lon="5.63534">
        <ele>510.6</ele>
        <time>2021-03-29T13:42:16Z</time>
      </trkpt>
      <trkpt lat="46.69513" lon="5.63539">
        <ele>510.2</ele>
        <time>2021-03-29T13:42:20Z</time>
      </trkpt>
      <trkpt lat="46.69516" lon="5.63544">
        <ele>509.8</ele>
        <time>2021-03-29T13:42:24Z</time>
      </trkpt>
      <trkpt lat="46.6952" lon="5.63549">
        <ele>509.3</ele>
        <time>2021-03-29T13:42:30Z</time>
      </trkpt>
      <trkpt lat="46.69524" lon="5.63553">
        <ele>509.2</ele>
        <time>2021-03-29T13:42:35Z</time>
      </trkpt>
      <trkpt lat="46.69528" lon="5.63558">
        <ele>509</ele>
        <time>2021-03-29T13:42:40Z</time>
      </trkpt>
      <trkpt lat="46.69532" lon="5.63562">
        <ele>508.9</ele>
        <time>2021-03-29T13:42:45Z</time>
      </trkpt>
      <trkpt lat="46.69536" lon="5.63567">
        <ele>508.7</ele>
        <time>2021-03-29T13:42:50Z</time>
      </trkpt>
      <trkpt lat="46.6954" lon="5.6357">
        <ele>508.6</ele>
        <time>2021-03-29T13:42:54Z</time>
      </trkpt>
      <trkpt lat="46.69545" lon="5.63574">
        <ele>508.2</ele>
        <time>2021-03-29T13:42:59Z</time>
      </trkpt>
      <trkpt lat="46.69548" lon="5.63578">
        <ele>507.7</ele>
        <time>2021-03-29T13:43:04Z</time>
      </trkpt>
      <trkpt lat="46.69553" lon="5.63583">
        <ele>507.3</ele>
        <time>2021-03-29T13:43:09Z</time>
      </trkpt>
      <trkpt lat="46.69557" lon="5.63586">
        <ele>507.1</ele>
        <time>2021-03-29T13:43:14Z</time>
      </trkpt>
      <trkpt lat="46.69562" lon="5.6359">
        <ele>507.2</ele>
        <time>2021-03-29T13:43:19Z</time>
      </trkpt>
      <trkpt lat="46.69567" lon="5.63593">
        <ele>507.3</ele>
        <time>2021-03-29T13:43:24Z</time>
      </trkpt>
      <trkpt lat="46.69571" lon="5.63596">
        <ele>507.2</ele>
        <time>2021-03-29T13:43:29Z</time>
      </trkpt>
      <trkpt lat="46.69576" lon="5.63599">
        <ele>507.1</ele>
        <time>2021-03-29T13:43:33Z</time>
      </trkpt>
      <trkpt lat="46.69581" lon="5.63602">
        <ele>507.2</ele>
        <time>2021-03-29T13:43:37Z</time>
      </trkpt>
      <trkpt lat="46.69586" lon="5.63607">
        <ele>507.4</ele>
        <time>2021-03-29T13:43:42Z</time>
      </trkpt>
      <trkpt lat="46.69588" lon="5.63613">
        <ele>506.6</ele>
        <time>2021-03-29T13:43:48Z</time>
      </trkpt>
      <trkpt lat="46.6959" lon="5.63619">
        <ele>505.7</ele>
        <time>2021-03-29T13:43:53Z</time>
      </trkpt>
      <trkpt lat="46.6959" lon="5.63627">
        <ele>504.6</ele>
        <time>2021-03-29T13:43:58Z</time>
      </trkpt>
      <trkpt lat="46.69589" lon="5.63634">
        <ele>503.5</ele>
        <time>2021-03-29T13:44:02Z</time>
      </trkpt>
      <trkpt lat="46.69587" lon="5.6364">
        <ele>501.9</ele>
        <time>2021-03-29T13:44:08Z</time>
      </trkpt>
      <trkpt lat="46.69584" lon="5.63647">
        <ele>501.3</ele>
        <time>2021-03-29T13:44:13Z</time>
      </trkpt>
      <trkpt lat="46.69582" lon="5.63654">
        <ele>500.8</ele>
        <time>2021-03-29T13:44:17Z</time>
      </trkpt>
      <trkpt lat="46.6958" lon="5.63661">
        <ele>500.6</ele>
        <time>2021-03-29T13:44:21Z</time>
      </trkpt>
      <trkpt lat="46.69578" lon="5.63667">
        <ele>500.2</ele>
        <time>2021-03-29T13:44:25Z</time>
      </trkpt>
      <trkpt lat="46.69577" lon="5.63673">
        <ele>500</ele>
        <time>2021-03-29T13:44:29Z</time>
      </trkpt>
      <trkpt lat="46.69575" lon="5.63681">
        <ele>499.8</ele>
        <time>2021-03-29T13:44:33Z</time>
      </trkpt>
      <trkpt lat="46.69573" lon="5.63688">
        <ele>499.9</ele>
        <time>2021-03-29T13:44:37Z</time>
      </trkpt>
      <trkpt lat="46.69572" lon="5.63695">
        <ele>500.5</ele>
        <time>2021-03-29T13:44:41Z</time>
      </trkpt>
      <trkpt lat="46.69571" lon="5.63702">
        <ele>501.5</ele>
        <time>2021-03-29T13:44:46Z</time>
      </trkpt>
      <trkpt lat="46.6957" lon="5.6371">
        <ele>502.5</ele>
        <time>2021-03-29T13:44:51Z</time>
      </trkpt>
      <trkpt lat="46.6957" lon="5.63716">
        <ele>503.1</ele>
        <time>2021-03-29T13:44:55Z</time>
      </trkpt>
      <trkpt lat="46.6957" lon="5.63724">
        <ele>504</ele>
        <time>2021-03-29T13:45:00Z</time>
      </trkpt>
      <trkpt lat="46.6957" lon="5.63731">
        <ele>504.2</ele>
        <time>2021-03-29T13:45:04Z</time>
      </trkpt>
      <trkpt lat="46.6957" lon="5.63739">
        <ele>504.2</ele>
        <time>2021-03-29T13:45:10Z</time>
      </trkpt>
      <trkpt lat="46.69571" lon="5.63746">
        <ele>502.9</ele>
        <time>2021-03-29T13:45:15Z</time>
      </trkpt>
      <trkpt lat="46.69572" lon="5.63752">
        <ele>501.3</ele>
        <time>2021-03-29T13:45:19Z</time>
      </trkpt>
      <trkpt lat="46.69573" lon="5.6376">
        <ele>499.4</ele>
        <time>2021-03-29T13:45:24Z</time>
      </trkpt>
      <trkpt lat="46.69576" lon="5.63766">
        <ele>497.2</ele>
        <time>2021-03-29T13:45:30Z</time>
      </trkpt>
      <trkpt lat="46.6958" lon="5.63771">
        <ele>495.3</ele>
        <time>2021-03-29T13:45:36Z</time>
      </trkpt>
      <trkpt lat="46.69581" lon="5.63778">
        <ele>494.4</ele>
        <time>2021-03-29T13:45:44Z</time>
      </trkpt>
      <trkpt lat="46.69585" lon="5.63783">
        <ele>495.4</ele>
        <time>2021-03-29T13:45:52Z</time>
      </trkpt>
      <trkpt lat="46.69587" lon="5.63788">
        <ele>497.1</ele>
        <time>2021-03-29T13:45:58Z</time>
      </trkpt>
      <trkpt lat="46.69591" lon="5.63793">
        <ele>498.5</ele>
        <time>2021-03-29T13:46:05Z</time>
      </trkpt>
      <trkpt lat="46.69597" lon="5.63796">
        <ele>498.9</ele>
        <time>2021-03-29T13:46:10Z</time>
      </trkpt>
      <trkpt lat="46.69602" lon="5.63797">
        <ele>499</ele>
        <time>2021-03-29T13:46:15Z</time>
      </trkpt>
      <trkpt lat="46.69607" lon="5.63797">
        <ele>499.2</ele>
        <time>2021-03-29T13:46:19Z</time>
      </trkpt>
      <trkpt lat="46.69613" lon="5.63797">
        <ele>499.5</ele>
        <time>2021-03-29T13:46:23Z</time>
      </trkpt>
      <trkpt lat="46.69619" lon="5.63797">
        <ele>500</ele>
        <time>2021-03-29T13:46:27Z</time>
      </trkpt>
      <trkpt lat="46.69624" lon="5.63796">
        <ele>500.5</ele>
        <time>2021-03-29T13:46:31Z</time>
      </trkpt>
      <trkpt lat="46.69629" lon="5.63796">
        <ele>501.1</ele>
        <time>2021-03-29T13:46:35Z</time>
      </trkpt>
      <trkpt lat="46.69634" lon="5.63795">
        <ele>501.8</ele>
        <time>2021-03-29T13:46:41Z</time>
      </trkpt>
      <trkpt lat="46.69639" lon="5.63793">
        <ele>502.4</ele>
        <time>2021-03-29T13:46:45Z</time>
      </trkpt>
      <trkpt lat="46.69644" lon="5.6379">
        <ele>503</ele>
        <time>2021-03-29T13:46:51Z</time>
      </trkpt>
      <trkpt lat="46.69649" lon="5.63789">
        <ele>503.8</ele>
        <time>2021-03-29T13:46:56Z</time>
      </trkpt>
      <trkpt lat="46.69654" lon="5.63789">
        <ele>505.1</ele>
        <time>2021-03-29T13:47:02Z</time>
      </trkpt>
      <trkpt lat="46.69661" lon="5.6379">
        <ele>506.4</ele>
        <time>2021-03-29T13:47:06Z</time>
      </trkpt>
      <trkpt lat="46.69666" lon="5.63789">
        <ele>507.5</ele>
        <time>2021-03-29T13:47:10Z</time>
      </trkpt>
      <trkpt lat="46.69672" lon="5.6379">
        <ele>508.3</ele>
        <time>2021-03-29T13:47:14Z</time>
      </trkpt>
      <trkpt lat="46.69678" lon="5.6379">
        <ele>509</ele>
        <time>2021-03-29T13:47:18Z</time>
      </trkpt>
      <trkpt lat="46.69682" lon="5.63789">
        <ele>509.5</ele>
        <time>2021-03-29T13:47:23Z</time>
      </trkpt>
      <trkpt lat="46.69687" lon="5.63787">
        <ele>509.7</ele>
        <time>2021-03-29T13:47:28Z</time>
      </trkpt>
      <trkpt lat="46.69693" lon="5.63787">
        <ele>509.9</ele>
        <time>2021-03-29T13:47:32Z</time>
      </trkpt>
      <trkpt lat="46.69699" lon="5.63787">
        <ele>510.6</ele>
        <time>2021-03-29T13:47:36Z</time>
      </trkpt>
      <trkpt lat="46.69703" lon="5.63787">
        <ele>511</ele>
        <time>2021-03-29T13:47:40Z</time>
      </trkpt>
      <trkpt lat="46.69708" lon="5.63787">
        <ele>511.3</ele>
        <time>2021-03-29T13:47:44Z</time>
      </trkpt>
      <trkpt lat="46.69713" lon="5.63788">
        <ele>511.6</ele>
        <time>2021-03-29T13:47:48Z</time>
      </trkpt>
      <trkpt lat="46.69718" lon="5.63788">
        <ele>511.9</ele>
        <time>2021-03-29T13:47:52Z</time>
      </trkpt>
      <trkpt lat="46.69722" lon="5.63788">
        <ele>511.9</ele>
        <time>2021-03-29T13:47:57Z</time>
      </trkpt>
      <trkpt lat="46.69727" lon="5.63788">
        <ele>511.9</ele>
        <time>2021-03-29T13:48:02Z</time>
      </trkpt>
      <trkpt lat="46.69732" lon="5.63788">
        <ele>511.9</ele>
        <time>2021-03-29T13:48:07Z</time>
      </trkpt>
      <trkpt lat="46.69737" lon="5.63788">
        <ele>511.7</ele>
        <time>2021-03-29T13:48:11Z</time>
      </trkpt>
      <trkpt lat="46.69743" lon="5.63789">
        <ele>511.3</ele>
        <time>2021-03-29T13:48:15Z</time>
      </trkpt>
      <trkpt lat="46.69748" lon="5.63789">
        <ele>510.6</ele>
        <time>2021-03-29T13:48:19Z</time>
      </trkpt>
      <trkpt lat="46.69754" lon="5.63789">
        <ele>509.8</ele>
        <time>2021-03-29T13:48:23Z</time>
      </trkpt>
      <trkpt lat="46.69758" lon="5.63789">
        <ele>508.5</ele>
        <time>2021-03-29T13:48:28Z</time>
      </trkpt>
      <trkpt lat="46.69763" lon="5.63789">
        <ele>507.2</ele>
        <time>2021-03-29T13:48:34Z</time>
      </trkpt>
      <trkpt lat="46.69768" lon="5.6379">
        <ele>506.1</ele>
        <time>2021-03-29T13:48:39Z</time>
      </trkpt>
      <trkpt lat="46.69774" lon="5.6379">
        <ele>505.5</ele>
        <time>2021-03-29T13:48:43Z</time>
      </trkpt>
      <trkpt lat="46.69779" lon="5.6379">
        <ele>505.2</ele>
        <time>2021-03-29T13:48:47Z</time>
      </trkpt>
      <trkpt lat="46.69784" lon="5.63791">
        <ele>505.1</ele>
        <time>2021-03-29T13:48:52Z</time>
      </trkpt>
      <trkpt lat="46.69789" lon="5.63792">
        <ele>505.2</ele>
        <time>2021-03-29T13:48:58Z</time>
      </trkpt>
      <trkpt lat="46.69794" lon="5.63793">
        <ele>505</ele>
        <time>2021-03-29T13:49:04Z</time>
      </trkpt>
      <trkpt lat="46.69798" lon="5.63794">
        <ele>504.7</ele>
        <time>2021-03-29T13:49:09Z</time>
      </trkpt>
      <trkpt lat="46.69803" lon="5.63795">
        <ele>504.4</ele>
        <time>2021-03-29T13:49:13Z</time>
      </trkpt>
      <trkpt lat="46.69808" lon="5.63796">
        <ele>504</ele>
        <time>2021-03-29T13:49:19Z</time>
      </trkpt>
      <trkpt lat="46.69813" lon="5.63797">
        <ele>503.7</ele>
        <time>2021-03-29T13:49:25Z</time>
      </trkpt>
      <trkpt lat="46.69818" lon="5.63796">
        <ele>503.4</ele>
        <time>2021-03-29T13:49:30Z</time>
      </trkpt>
      <trkpt lat="46.69823" lon="5.63797">
        <ele>502.8</ele>
        <time>2021-03-29T13:49:35Z</time>
      </trkpt>
      <trkpt lat="46.69828" lon="5.63799">
        <ele>502</ele>
        <time>2021-03-29T13:49:40Z</time>
      </trkpt>
      <trkpt lat="46.69833" lon="5.63799">
        <ele>501.4</ele>
        <time>2021-03-29T13:49:44Z</time>
      </trkpt>
      <trkpt lat="46.69838" lon="5.63799">
        <ele>501</ele>
        <time>2021-03-29T13:49:48Z</time>
      </trkpt>
      <trkpt lat="46.69843" lon="5.63799">
        <ele>500.3</ele>
        <time>2021-03-29T13:49:53Z</time>
      </trkpt>
      <trkpt lat="46.69848" lon="5.638">
        <ele>499.8</ele>
        <time>2021-03-29T13:50:00Z</time>
      </trkpt>
      <trkpt lat="46.69853" lon="5.63799">
        <ele>500.6</ele>
        <time>2021-03-29T13:50:08Z</time>
      </trkpt>
      <trkpt lat="46.69858" lon="5.63799">
        <ele>501</ele>
        <time>2021-03-29T13:50:13Z</time>
      </trkpt>
      <trkpt lat="46.69863" lon="5.63799">
        <ele>501.6</ele>
        <time>2021-03-29T13:50:19Z</time>
      </trkpt>
      <trkpt lat="46.69868" lon="5.63799">
        <ele>502.7</ele>
        <time>2021-03-29T13:50:53Z</time>
      </trkpt>
      <trkpt lat="46.69872" lon="5.63799">
        <ele>503.2</ele>
        <time>2021-03-29T13:50:58Z</time>
      </trkpt>
      <trkpt lat="46.69877" lon="5.63799">
        <ele>503.8</ele>
        <time>2021-03-29T13:51:03Z</time>
      </trkpt>
      <trkpt lat="46.69882" lon="5.63797">
        <ele>504.7</ele>
        <time>2021-03-29T13:51:14Z</time>
      </trkpt>
      <trkpt lat="46.69887" lon="5.63797">
        <ele>504.9</ele>
        <time>2021-03-29T13:51:19Z</time>
      </trkpt>
      <trkpt lat="46.69892" lon="5.63798">
        <ele>505.1</ele>
        <time>2021-03-29T13:51:24Z</time>
      </trkpt>
      <trkpt lat="46.69898" lon="5.63799">
        <ele>505.4</ele>
        <time>2021-03-29T13:51:29Z</time>
      </trkpt>
      <trkpt lat="46.69903" lon="5.638">
        <ele>505.5</ele>
        <time>2021-03-29T13:51:34Z</time>
      </trkpt>
      <trkpt lat="46.69908" lon="5.63802">
        <ele>505.3</ele>
        <time>2021-03-29T13:51:38Z</time>
      </trkpt>
      <trkpt lat="46.69912" lon="5.63806">
        <ele>504.6</ele>
        <time>2021-03-29T13:51:44Z</time>
      </trkpt>
      <trkpt lat="46.69915" lon="5.63811">
        <ele>503.6</ele>
        <time>2021-03-29T13:51:48Z</time>
      </trkpt>
      <trkpt lat="46.69918" lon="5.63817">
        <ele>502.6</ele>
        <time>2021-03-29T13:51:53Z</time>
      </trkpt>
      <trkpt lat="46.69922" lon="5.63822">
        <ele>501.8</ele>
        <time>2021-03-29T13:51:57Z</time>
      </trkpt>
      <trkpt lat="46.69925" lon="5.63828">
        <ele>501</ele>
        <time>2021-03-29T13:52:02Z</time>
      </trkpt>
      <trkpt lat="46.69929" lon="5.63833">
        <ele>500.1</ele>
        <time>2021-03-29T13:52:08Z</time>
      </trkpt>
      <trkpt lat="46.69932" lon="5.63839">
        <ele>499.3</ele>
        <time>2021-03-29T13:52:14Z</time>
      </trkpt>
      <trkpt lat="46.69936" lon="5.63843">
        <ele>498.8</ele>
        <time>2021-03-29T13:52:19Z</time>
      </trkpt>
      <trkpt lat="46.6994" lon="5.63847">
        <ele>498.5</ele>
        <time>2021-03-29T13:52:23Z</time>
      </trkpt>
      <trkpt lat="46.69944" lon="5.63852">
        <ele>498.2</ele>
        <time>2021-03-29T13:52:27Z</time>
      </trkpt>
      <trkpt lat="46.69948" lon="5.63855">
        <ele>498</ele>
        <time>2021-03-29T13:52:31Z</time>
      </trkpt>
      <trkpt lat="46.69952" lon="5.63859">
        <ele>497.8</ele>
        <time>2021-03-29T13:52:35Z</time>
      </trkpt>
      <trkpt lat="46.69957" lon="5.63864">
        <ele>497.5</ele>
        <time>2021-03-29T13:52:40Z</time>
      </trkpt>
      <trkpt lat="46.6996" lon="5.63868">
        <ele>497.1</ele>
        <time>2021-03-29T13:52:45Z</time>
      </trkpt>
      <trkpt lat="46.69964" lon="5.63872">
        <ele>496.6</ele>
        <time>2021-03-29T13:52:50Z</time>
      </trkpt>
      <trkpt lat="46.69968" lon="5.63876">
        <ele>496</ele>
        <time>2021-03-29T13:52:55Z</time>
      </trkpt>
      <trkpt lat="46.69972" lon="5.63881">
        <ele>495.2</ele>
        <time>2021-03-29T13:53:00Z</time>
      </trkpt>
      <trkpt lat="46.69976" lon="5.63885">
        <ele>494.7</ele>
        <time>2021-03-29T13:53:05Z</time>
      </trkpt>
      <trkpt lat="46.6998" lon="5.63889">
        <ele>494</ele>
        <time>2021-03-29T13:53:10Z</time>
      </trkpt>
      <trkpt lat="46.69984" lon="5.63894">
        <ele>493.3</ele>
        <time>2021-03-29T13:53:15Z</time>
      </trkpt>
      <trkpt lat="46.69988" lon="5.63899">
        <ele>492.4</ele>
        <time>2021-03-29T13:53:20Z</time>
      </trkpt>
      <trkpt lat="46.69991" lon="5.63905">
        <ele>491.4</ele>
        <time>2021-03-29T13:53:25Z</time>
      </trkpt>
      <trkpt lat="46.69994" lon="5.63911">
        <ele>490.8</ele>
        <time>2021-03-29T13:53:31Z</time>
      </trkpt>
      <trkpt lat="46.69997" lon="5.63917">
        <ele>490.3</ele>
        <time>2021-03-29T13:53:37Z</time>
      </trkpt>
      <trkpt lat="46.70003" lon="5.63919">
        <ele>490.1</ele>
        <time>2021-03-29T13:53:44Z</time>
      </trkpt>
      <trkpt lat="46.70007" lon="5.63921">
        <ele>490</ele>
        <time>2021-03-29T13:53:49Z</time>
      </trkpt>
      <trkpt lat="46.70009" lon="5.63928">
        <ele>489.7</ele>
        <time>2021-03-29T13:54:01Z</time>
      </trkpt>
      <trkpt lat="46.70013" lon="5.63932">
        <ele>489.3</ele>
        <time>2021-03-29T13:54:13Z</time>
      </trkpt>
      <trkpt lat="46.70011" lon="5.63938">
        <ele>493.1</ele>
        <time>2021-03-29T13:55:06Z</time>
      </trkpt>
      <trkpt lat="46.70008" lon="5.63943">
        <ele>493.1</ele>
        <time>2021-03-29T13:55:14Z</time>
      </trkpt>
      <trkpt lat="46.70007" lon="5.63952">
        <ele>492.3</ele>
        <time>2021-03-29T13:55:39Z</time>
      </trkpt>
      <trkpt lat="46.70006" lon="5.63959">
        <ele>492.5</ele>
        <time>2021-03-29T13:55:43Z</time>
      </trkpt>
      <trkpt lat="46.70005" lon="5.63966">
        <ele>491.8</ele>
        <time>2021-03-29T13:56:00Z</time>
      </trkpt>
      <trkpt lat="46.7001" lon="5.63969">
        <ele>491.9</ele>
        <time>2021-03-29T13:56:10Z</time>
      </trkpt>
      <trkpt lat="46.70014" lon="5.63972">
        <ele>492.1</ele>
        <time>2021-03-29T13:56:15Z</time>
      </trkpt>
      <trkpt lat="46.70018" lon="5.63974">
        <ele>492.4</ele>
        <time>2021-03-29T13:56:21Z</time>
      </trkpt>
      <trkpt lat="46.70023" lon="5.63976">
        <ele>492.7</ele>
        <time>2021-03-29T13:56:27Z</time>
      </trkpt>
      <trkpt lat="46.70028" lon="5.63978">
        <ele>493</ele>
        <time>2021-03-29T13:56:33Z</time>
      </trkpt>
      <trkpt lat="46.70033" lon="5.6398">
        <ele>493.1</ele>
        <time>2021-03-29T13:56:39Z</time>
      </trkpt>
      <trkpt lat="46.70037" lon="5.63984">
        <ele>493.3</ele>
        <time>2021-03-29T13:56:47Z</time>
      </trkpt>
      <trkpt lat="46.70042" lon="5.63983">
        <ele>493.5</ele>
        <time>2021-03-29T13:56:53Z</time>
      </trkpt>
      <trkpt lat="46.70046" lon="5.63983">
        <ele>493.4</ele>
        <time>2021-03-29T13:56:58Z</time>
      </trkpt>
      <trkpt lat="46.70051" lon="5.63981">
        <ele>493.2</ele>
        <time>2021-03-29T13:57:03Z</time>
      </trkpt>
      <trkpt lat="46.70056" lon="5.63981">
        <ele>492.7</ele>
        <time>2021-03-29T13:57:14Z</time>
      </trkpt>
      <trkpt lat="46.7006" lon="5.63984">
        <ele>492.8</ele>
        <time>2021-03-29T13:57:21Z</time>
      </trkpt>
      <trkpt lat="46.70064" lon="5.63987">
        <ele>492.9</ele>
        <time>2021-03-29T13:57:27Z</time>
      </trkpt>
      <trkpt lat="46.70068" lon="5.6399">
        <ele>492.8</ele>
        <time>2021-03-29T13:57:35Z</time>
      </trkpt>
      <trkpt lat="46.70072" lon="5.63994">
        <ele>492.7</ele>
        <time>2021-03-29T13:57:42Z</time>
      </trkpt>
      <trkpt lat="46.70077" lon="5.63997">
        <ele>492.8</ele>
        <time>2021-03-29T13:57:50Z</time>
      </trkpt>
      <trkpt lat="46.70082" lon="5.64002">
        <ele>492.9</ele>
        <time>2021-03-29T13:57:56Z</time>
      </trkpt>
      <trkpt lat="46.70086" lon="5.64007">
        <ele>492.8</ele>
        <time>2021-03-29T13:58:01Z</time>
      </trkpt>
      <trkpt lat="46.70089" lon="5.64012">
        <ele>492.7</ele>
        <time>2021-03-29T13:58:06Z</time>
      </trkpt>
      <trkpt lat="46.70093" lon="5.64018">
        <ele>492.4</ele>
        <time>2021-03-29T13:58:12Z</time>
      </trkpt>
      <trkpt lat="46.70097" lon="5.64021">
        <ele>491.8</ele>
        <time>2021-03-29T13:58:18Z</time>
      </trkpt>
      <trkpt lat="46.70102" lon="5.64023">
        <ele>491</ele>
        <time>2021-03-29T13:58:24Z</time>
      </trkpt>
      <trkpt lat="46.70105" lon="5.64028">
        <ele>490.2</ele>
        <time>2021-03-29T13:58:29Z</time>
      </trkpt>
      <trkpt lat="46.70109" lon="5.64031">
        <ele>489.5</ele>
        <time>2021-03-29T13:58:34Z</time>
      </trkpt>
      <trkpt lat="46.70113" lon="5.64035">
        <ele>488.7</ele>
        <time>2021-03-29T13:58:39Z</time>
      </trkpt>
      <trkpt lat="46.70117" lon="5.64039">
        <ele>487.9</ele>
        <time>2021-03-29T13:58:44Z</time>
      </trkpt>
      <trkpt lat="46.7012" lon="5.64044">
        <ele>487</ele>
        <time>2021-03-29T13:58:52Z</time>
      </trkpt>
      <trkpt lat="46.70123" lon="5.6405">
        <ele>486.8</ele>
        <time>2021-03-29T13:58:58Z</time>
      </trkpt>
      <trkpt lat="46.70127" lon="5.64056">
        <ele>487.4</ele>
        <time>2021-03-29T13:59:03Z</time>
      </trkpt>
      <trkpt lat="46.7013" lon="5.6406">
        <ele>487.9</ele>
        <time>2021-03-29T13:59:07Z</time>
      </trkpt>
      <trkpt lat="46.70134" lon="5.64064">
        <ele>489.1</ele>
        <time>2021-03-29T13:59:14Z</time>
      </trkpt>
      <trkpt lat="46.70138" lon="5.64067">
        <ele>490.3</ele>
        <time>2021-03-29T13:59:22Z</time>
      </trkpt>
      <trkpt lat="46.70142" lon="5.6407">
        <ele>491.2</ele>
        <time>2021-03-29T13:59:28Z</time>
      </trkpt>
      <trkpt lat="46.70147" lon="5.64073">
        <ele>492.1</ele>
        <time>2021-03-29T13:59:33Z</time>
      </trkpt>
      <trkpt lat="46.70151" lon="5.64077">
        <ele>493.1</ele>
        <time>2021-03-29T13:59:39Z</time>
      </trkpt>
      <trkpt lat="46.70155" lon="5.64081">
        <ele>493.5</ele>
        <time>2021-03-29T13:59:43Z</time>
      </trkpt>
      <trkpt lat="46.70158" lon="5.64087">
        <ele>493.8</ele>
        <time>2021-03-29T13:59:48Z</time>
      </trkpt>
      <trkpt lat="46.70161" lon="5.64092">
        <ele>493.7</ele>
        <time>2021-03-29T13:59:52Z</time>
      </trkpt>
      <trkpt lat="46.70166" lon="5.64095">
        <ele>493.7</ele>
        <time>2021-03-29T13:59:59Z</time>
      </trkpt>
      <trkpt lat="46.7017" lon="5.64094">
        <ele>493.8</ele>
        <time>2021-03-29T14:00:06Z</time>
      </trkpt>
      <trkpt lat="46.70176" lon="5.64095">
        <ele>493.9</ele>
        <time>2021-03-29T14:00:11Z</time>
      </trkpt>
      <trkpt lat="46.7018" lon="5.64095">
        <ele>494.1</ele>
        <time>2021-03-29T14:00:17Z</time>
      </trkpt>
      <trkpt lat="46.70185" lon="5.64096">
        <ele>494.9</ele>
        <time>2021-03-29T14:00:26Z</time>
      </trkpt>
      <trkpt lat="46.70189" lon="5.64098">
        <ele>495.4</ele>
        <time>2021-03-29T14:00:31Z</time>
      </trkpt>
      <trkpt lat="46.70194" lon="5.64099">
        <ele>495.8</ele>
        <time>2021-03-29T14:00:36Z</time>
      </trkpt>
      <trkpt lat="46.702" lon="5.64101">
        <ele>496.2</ele>
        <time>2021-03-29T14:00:42Z</time>
      </trkpt>
      <trkpt lat="46.70204" lon="5.64102">
        <ele>496.5</ele>
        <time>2021-03-29T14:00:47Z</time>
      </trkpt>
      <trkpt lat="46.70208" lon="5.64105">
        <ele>496.7</ele>
        <time>2021-03-29T14:00:52Z</time>
      </trkpt>
      <trkpt lat="46.70212" lon="5.64109">
        <ele>497</ele>
        <time>2021-03-29T14:00:56Z</time>
      </trkpt>
      <trkpt lat="46.70218" lon="5.6411">
        <ele>497.8</ele>
        <time>2021-03-29T14:01:03Z</time>
      </trkpt>
      <trkpt lat="46.70222" lon="5.64115">
        <ele>498.5</ele>
        <time>2021-03-29T14:01:08Z</time>
      </trkpt>
      <trkpt lat="46.70225" lon="5.64119">
        <ele>498.8</ele>
        <time>2021-03-29T14:01:13Z</time>
      </trkpt>
      <trkpt lat="46.70229" lon="5.64124">
        <ele>498.8</ele>
        <time>2021-03-29T14:01:17Z</time>
      </trkpt>
      <trkpt lat="46.70232" lon="5.64129">
        <ele>499.1</ele>
        <time>2021-03-29T14:01:21Z</time>
      </trkpt>
      <trkpt lat="46.70236" lon="5.64135">
        <ele>499.4</ele>
        <time>2021-03-29T14:01:25Z</time>
      </trkpt>
      <trkpt lat="46.7024" lon="5.6414">
        <ele>499.7</ele>
        <time>2021-03-29T14:01:30Z</time>
      </trkpt>
      <trkpt lat="46.70243" lon="5.64145">
        <ele>500.3</ele>
        <time>2021-03-29T14:01:36Z</time>
      </trkpt>
      <trkpt lat="46.70246" lon="5.6415">
        <ele>500.7</ele>
        <time>2021-03-29T14:01:41Z</time>
      </trkpt>
      <trkpt lat="46.7025" lon="5.64156">
        <ele>500.5</ele>
        <time>2021-03-29T14:01:46Z</time>
      </trkpt>
      <trkpt lat="46.70253" lon="5.64161">
        <ele>500.1</ele>
        <time>2021-03-29T14:01:52Z</time>
      </trkpt>
      <trkpt lat="46.70256" lon="5.64167">
        <ele>499.7</ele>
        <time>2021-03-29T14:01:58Z</time>
      </trkpt>
      <trkpt lat="46.70259" lon="5.64171">
        <ele>499.2</ele>
        <time>2021-03-29T14:02:04Z</time>
      </trkpt>
      <trkpt lat="46.70263" lon="5.64175">
        <ele>498.4</ele>
        <time>2021-03-29T14:02:11Z</time>
      </trkpt>
      <trkpt lat="46.70268" lon="5.64178">
        <ele>497.9</ele>
        <time>2021-03-29T14:02:16Z</time>
      </trkpt>
      <trkpt lat="46.70273" lon="5.64178">
        <ele>497.5</ele>
        <time>2021-03-29T14:02:21Z</time>
      </trkpt>
      <trkpt lat="46.70278" lon="5.6418">
        <ele>496.7</ele>
        <time>2021-03-29T14:02:26Z</time>
      </trkpt>
      <trkpt lat="46.70282" lon="5.64183">
        <ele>495.3</ele>
        <time>2021-03-29T14:02:32Z</time>
      </trkpt>
      <trkpt lat="46.70288" lon="5.64184">
        <ele>494.2</ele>
        <time>2021-03-29T14:02:37Z</time>
      </trkpt>
      <trkpt lat="46.70292" lon="5.64186">
        <ele>493.3</ele>
        <time>2021-03-29T14:02:42Z</time>
      </trkpt>
      <trkpt lat="46.70297" lon="5.64187">
        <ele>492.8</ele>
        <time>2021-03-29T14:02:47Z</time>
      </trkpt>
      <trkpt lat="46.70302" lon="5.64188">
        <ele>492.1</ele>
        <time>2021-03-29T14:02:55Z</time>
      </trkpt>
      <trkpt lat="46.70307" lon="5.6419">
        <ele>491.9</ele>
        <time>2021-03-29T14:03:00Z</time>
      </trkpt>
      <trkpt lat="46.70312" lon="5.64191">
        <ele>491.6</ele>
        <time>2021-03-29T14:03:05Z</time>
      </trkpt>
      <trkpt lat="46.70317" lon="5.64191">
        <ele>491.4</ele>
        <time>2021-03-29T14:03:11Z</time>
      </trkpt>
      <trkpt lat="46.70322" lon="5.64192">
        <ele>491.3</ele>
        <time>2021-03-29T14:03:17Z</time>
      </trkpt>
      <trkpt lat="46.70328" lon="5.64193">
        <ele>491.2</ele>
        <time>2021-03-29T14:03:22Z</time>
      </trkpt>
      <trkpt lat="46.70333" lon="5.64194">
        <ele>491.1</ele>
        <time>2021-03-29T14:03:26Z</time>
      </trkpt>
      <trkpt lat="46.70338" lon="5.64195">
        <ele>491.1</ele>
        <time>2021-03-29T14:03:30Z</time>
      </trkpt>
      <trkpt lat="46.70343" lon="5.64196">
        <ele>491</ele>
        <time>2021-03-29T14:03:35Z</time>
      </trkpt>
      <trkpt lat="46.70348" lon="5.64197">
        <ele>491.1</ele>
        <time>2021-03-29T14:03:40Z</time>
      </trkpt>
      <trkpt lat="46.70353" lon="5.64198">
        <ele>491.4</ele>
        <time>2021-03-29T14:03:45Z</time>
      </trkpt>
      <trkpt lat="46.70357" lon="5.642">
        <ele>491.8</ele>
        <time>2021-03-29T14:03:51Z</time>
      </trkpt>
      <trkpt lat="46.70362" lon="5.64202">
        <ele>492.2</ele>
        <time>2021-03-29T14:03:58Z</time>
      </trkpt>
      <trkpt lat="46.70366" lon="5.64199">
        <ele>492.8</ele>
        <time>2021-03-29T14:04:08Z</time>
      </trkpt>
      <trkpt lat="46.7037" lon="5.64202">
        <ele>494.6</ele>
        <time>2021-03-29T14:04:18Z</time>
      </trkpt>
      <trkpt lat="46.70374" lon="5.64206">
        <ele>495.8</ele>
        <time>2021-03-29T14:04:24Z</time>
      </trkpt>
      <trkpt lat="46.70379" lon="5.64211">
        <ele>497.1</ele>
        <time>2021-03-29T14:04:31Z</time>
      </trkpt>
      <trkpt lat="46.70381" lon="5.64217">
        <ele>498.5</ele>
        <time>2021-03-29T14:04:53Z</time>
      </trkpt>
      <trkpt lat="46.70386" lon="5.6422">
        <ele>499</ele>
        <time>2021-03-29T14:04:58Z</time>
      </trkpt>
      <trkpt lat="46.7039" lon="5.64222">
        <ele>499.2</ele>
        <time>2021-03-29T14:05:02Z</time>
      </trkpt>
      <trkpt lat="46.70395" lon="5.64223">
        <ele>499.8</ele>
        <time>2021-03-29T14:05:08Z</time>
      </trkpt>
      <trkpt lat="46.704" lon="5.64225">
        <ele>500.3</ele>
        <time>2021-03-29T14:05:18Z</time>
      </trkpt>
      <trkpt lat="46.70405" lon="5.64226">
        <ele>500.4</ele>
        <time>2021-03-29T14:05:22Z</time>
      </trkpt>
      <trkpt lat="46.70409" lon="5.64229">
        <ele>500.7</ele>
        <time>2021-03-29T14:05:26Z</time>
      </trkpt>
      <trkpt lat="46.70414" lon="5.6423">
        <ele>500.8</ele>
        <time>2021-03-29T14:05:32Z</time>
      </trkpt>
      <trkpt lat="46.70418" lon="5.64229">
        <ele>500.1</ele>
        <time>2021-03-29T14:05:39Z</time>
      </trkpt>
      <trkpt lat="46.70423" lon="5.64228">
        <ele>499.3</ele>
        <time>2021-03-29T14:05:44Z</time>
      </trkpt>
      <trkpt lat="46.70427" lon="5.64228">
        <ele>498.6</ele>
        <time>2021-03-29T14:05:50Z</time>
      </trkpt>
      <trkpt lat="46.70432" lon="5.64228">
        <ele>497.4</ele>
        <time>2021-03-29T14:05:56Z</time>
      </trkpt>
      <trkpt lat="46.70437" lon="5.64229">
        <ele>496.5</ele>
        <time>2021-03-29T14:06:02Z</time>
      </trkpt>
      <trkpt lat="46.70442" lon="5.64231">
        <ele>495.8</ele>
        <time>2021-03-29T14:06:07Z</time>
      </trkpt>
      <trkpt lat="46.70448" lon="5.64233">
        <ele>495.2</ele>
        <time>2021-03-29T14:06:12Z</time>
      </trkpt>
      <trkpt lat="46.70453" lon="5.64233">
        <ele>494.7</ele>
        <time>2021-03-29T14:06:17Z</time>
      </trkpt>
      <trkpt lat="46.70458" lon="5.64235">
        <ele>494.6</ele>
        <time>2021-03-29T14:06:22Z</time>
      </trkpt>
      <trkpt lat="46.70462" lon="5.64236">
        <ele>494.7</ele>
        <time>2021-03-29T14:06:27Z</time>
      </trkpt>
      <trkpt lat="46.70466" lon="5.64239">
        <ele>495</ele>
        <time>2021-03-29T14:06:34Z</time>
      </trkpt>
      <trkpt lat="46.70471" lon="5.64239">
        <ele>495.4</ele>
        <time>2021-03-29T14:06:40Z</time>
      </trkpt>
      <trkpt lat="46.70474" lon="5.64244">
        <ele>496</ele>
        <time>2021-03-29T14:06:50Z</time>
      </trkpt>
      <trkpt lat="46.70478" lon="5.64249">
        <ele>495.7</ele>
        <time>2021-03-29T14:07:03Z</time>
      </trkpt>
      <trkpt lat="46.70483" lon="5.64252">
        <ele>495.4</ele>
        <time>2021-03-29T14:07:09Z</time>
      </trkpt>
      <trkpt lat="46.70487" lon="5.64251">
        <ele>495.5</ele>
        <time>2021-03-29T14:07:13Z</time>
      </trkpt>
      <trkpt lat="46.70492" lon="5.64253">
        <ele>495.4</ele>
        <time>2021-03-29T14:07:20Z</time>
      </trkpt>
      <trkpt lat="46.70496" lon="5.64258">
        <ele>494.7</ele>
        <time>2021-03-29T14:07:28Z</time>
      </trkpt>
      <trkpt lat="46.705" lon="5.64261">
        <ele>494</ele>
        <time>2021-03-29T14:07:34Z</time>
      </trkpt>
      <trkpt lat="46.70504" lon="5.64266">
        <ele>493.1</ele>
        <time>2021-03-29T14:07:40Z</time>
      </trkpt>
      <trkpt lat="46.70507" lon="5.64271">
        <ele>492.5</ele>
        <time>2021-03-29T14:07:45Z</time>
      </trkpt>
      <trkpt lat="46.70511" lon="5.64275">
        <ele>492</ele>
        <time>2021-03-29T14:07:50Z</time>
      </trkpt>
      <trkpt lat="46.70515" lon="5.6428">
        <ele>491.7</ele>
        <time>2021-03-29T14:07:56Z</time>
      </trkpt>
      <trkpt lat="46.7052" lon="5.64283">
        <ele>491.1</ele>
        <time>2021-03-29T14:08:04Z</time>
      </trkpt>
      <trkpt lat="46.70524" lon="5.64288">
        <ele>490.2</ele>
        <time>2021-03-29T14:08:44Z</time>
      </trkpt>
      <trkpt lat="46.70528" lon="5.64288">
        <ele>484.6</ele>
        <time>2021-03-29T14:09:34Z</time>
      </trkpt>
      <trkpt lat="46.70533" lon="5.64289">
        <ele>483.4</ele>
        <time>2021-03-29T14:09:40Z</time>
      </trkpt>
      <trkpt lat="46.70537" lon="5.6429">
        <ele>482.6</ele>
        <time>2021-03-29T14:09:47Z</time>
      </trkpt>
      <trkpt lat="46.70543" lon="5.64291">
        <ele>481.6</ele>
        <time>2021-03-29T14:09:54Z</time>
      </trkpt>
      <trkpt lat="46.70547" lon="5.64292">
        <ele>480.3</ele>
        <time>2021-03-29T14:10:02Z</time>
      </trkpt>
      <trkpt lat="46.70552" lon="5.64292">
        <ele>479.6</ele>
        <time>2021-03-29T14:10:08Z</time>
      </trkpt>
      <trkpt lat="46.70556" lon="5.64294">
        <ele>478.9</ele>
        <time>2021-03-29T14:10:15Z</time>
      </trkpt>
      <trkpt lat="46.70561" lon="5.64296">
        <ele>478.8</ele>
        <time>2021-03-29T14:10:23Z</time>
      </trkpt>
      <trkpt lat="46.70566" lon="5.64296">
        <ele>478.1</ele>
        <time>2021-03-29T14:10:31Z</time>
      </trkpt>
      <trkpt lat="46.70571" lon="5.64296">
        <ele>477.6</ele>
        <time>2021-03-29T14:10:38Z</time>
      </trkpt>
      <trkpt lat="46.70576" lon="5.64296">
        <ele>476.8</ele>
        <time>2021-03-29T14:10:44Z</time>
      </trkpt>
      <trkpt lat="46.70581" lon="5.64297">
        <ele>476</ele>
        <time>2021-03-29T14:10:51Z</time>
      </trkpt>
      <trkpt lat="46.70586" lon="5.64299">
        <ele>475.2</ele>
        <time>2021-03-29T14:10:56Z</time>
      </trkpt>
      <trkpt lat="46.7059" lon="5.643">
        <ele>475.1</ele>
        <time>2021-03-29T14:11:00Z</time>
      </trkpt>
      <trkpt lat="46.70595" lon="5.64301">
        <ele>476.5</ele>
        <time>2021-03-29T14:11:12Z</time>
      </trkpt>
      <trkpt lat="46.70599" lon="5.64304">
        <ele>476.7</ele>
        <time>2021-03-29T14:11:23Z</time>
      </trkpt>
      <trkpt lat="46.70604" lon="5.64305">
        <ele>475.7</ele>
        <time>2021-03-29T14:11:29Z</time>
      </trkpt>
      <trkpt lat="46.70609" lon="5.64303">
        <ele>475.4</ele>
        <time>2021-03-29T14:11:33Z</time>
      </trkpt>
      <trkpt lat="46.70615" lon="5.64303">
        <ele>475.3</ele>
        <time>2021-03-29T14:11:38Z</time>
      </trkpt>
      <trkpt lat="46.7062" lon="5.64303">
        <ele>475.6</ele>
        <time>2021-03-29T14:11:42Z</time>
      </trkpt>
      <trkpt lat="46.70625" lon="5.64302">
        <ele>475.8</ele>
        <time>2021-03-29T14:11:46Z</time>
      </trkpt>
      <trkpt lat="46.70631" lon="5.64301">
        <ele>476.3</ele>
        <time>2021-03-29T14:11:51Z</time>
      </trkpt>
      <trkpt lat="46.70636" lon="5.64301">
        <ele>476.7</ele>
        <time>2021-03-29T14:11:55Z</time>
      </trkpt>
      <trkpt lat="46.70641" lon="5.64302">
        <ele>477.2</ele>
        <time>2021-03-29T14:11:59Z</time>
      </trkpt>
      <trkpt lat="46.70647" lon="5.64301">
        <ele>477.9</ele>
        <time>2021-03-29T14:12:04Z</time>
      </trkpt>
      <trkpt lat="46.70651" lon="5.64302">
        <ele>478.4</ele>
        <time>2021-03-29T14:12:08Z</time>
      </trkpt>
      <trkpt lat="46.70656" lon="5.64302">
        <ele>479.2</ele>
        <time>2021-03-29T14:12:12Z</time>
      </trkpt>
      <trkpt lat="46.70661" lon="5.64299">
        <ele>480.5</ele>
        <time>2021-03-29T14:12:17Z</time>
      </trkpt>
      <trkpt lat="46.70665" lon="5.64296">
        <ele>482.2</ele>
        <time>2021-03-29T14:12:23Z</time>
      </trkpt>
      <trkpt lat="46.7067" lon="5.64297">
        <ele>483.9</ele>
        <time>2021-03-29T14:12:30Z</time>
      </trkpt>
      <trkpt lat="46.70674" lon="5.64296">
        <ele>484.7</ele>
        <time>2021-03-29T14:12:35Z</time>
      </trkpt>
      <trkpt lat="46.7068" lon="5.64297">
        <ele>485.1</ele>
        <time>2021-03-29T14:12:40Z</time>
      </trkpt>
      <trkpt lat="46.70677" lon="5.64292">
        <ele>482.9</ele>
        <time>2021-03-29T14:13:44Z</time>
      </trkpt>
      <trkpt lat="46.70681" lon="5.64289">
        <ele>482</ele>
        <time>2021-03-29T14:14:35Z</time>
      </trkpt>
      <trkpt lat="46.70686" lon="5.64286">
        <ele>483.4</ele>
        <time>2021-03-29T14:14:42Z</time>
      </trkpt>
      <trkpt lat="46.7069" lon="5.64284">
        <ele>484.8</ele>
        <time>2021-03-29T14:14:55Z</time>
      </trkpt>
      <trkpt lat="46.70695" lon="5.64286">
        <ele>485.3</ele>
        <time>2021-03-29T14:15:03Z</time>
      </trkpt>
      <trkpt lat="46.70699" lon="5.64285">
        <ele>485.7</ele>
        <time>2021-03-29T14:15:10Z</time>
      </trkpt>
      <trkpt lat="46.70704" lon="5.64286">
        <ele>486.1</ele>
        <time>2021-03-29T14:15:17Z</time>
      </trkpt>
      <trkpt lat="46.70709" lon="5.64287">
        <ele>485.8</ele>
        <time>2021-03-29T14:15:23Z</time>
      </trkpt>
      <trkpt lat="46.70714" lon="5.64286">
        <ele>485.7</ele>
        <time>2021-03-29T14:15:29Z</time>
      </trkpt>
      <trkpt lat="46.70719" lon="5.64288">
        <ele>486</ele>
        <time>2021-03-29T14:15:35Z</time>
      </trkpt>
      <trkpt lat="46.70724" lon="5.6429">
        <ele>486.5</ele>
        <time>2021-03-29T14:15:41Z</time>
      </trkpt>
      <trkpt lat="46.70728" lon="5.64291">
        <ele>487.1</ele>
        <time>2021-03-29T14:15:49Z</time>
      </trkpt>
      <trkpt lat="46.70732" lon="5.64295">
        <ele>485.8</ele>
        <time>2021-03-29T14:17:33Z</time>
      </trkpt>
      <trkpt lat="46.70738" lon="5.64297">
        <ele>483.2</ele>
        <time>2021-03-29T14:17:48Z</time>
      </trkpt>
      <trkpt lat="46.70743" lon="5.64299">
        <ele>483</ele>
        <time>2021-03-29T14:17:52Z</time>
      </trkpt>
      <trkpt lat="46.70748" lon="5.64302">
        <ele>482.8</ele>
        <time>2021-03-29T14:17:59Z</time>
      </trkpt>
      <trkpt lat="46.70752" lon="5.64303">
        <ele>482.3</ele>
        <time>2021-03-29T14:18:09Z</time>
      </trkpt>
      <trkpt lat="46.70757" lon="5.643">
        <ele>481.7</ele>
        <time>2021-03-29T14:18:20Z</time>
      </trkpt>
      <trkpt lat="46.70761" lon="5.64302">
        <ele>480.9</ele>
        <time>2021-03-29T14:18:26Z</time>
      </trkpt>
      <trkpt lat="46.70765" lon="5.64307">
        <ele>480.7</ele>
        <time>2021-03-29T14:18:33Z</time>
      </trkpt>
      <trkpt lat="46.70768" lon="5.64313">
        <ele>480.8</ele>
        <time>2021-03-29T14:18:39Z</time>
      </trkpt>
      <trkpt lat="46.70771" lon="5.64318">
        <ele>480.6</ele>
        <time>2021-03-29T14:18:45Z</time>
      </trkpt>
      <trkpt lat="46.70775" lon="5.6432">
        <ele>480.6</ele>
        <time>2021-03-29T14:18:51Z</time>
      </trkpt>
      <trkpt lat="46.70781" lon="5.64319">
        <ele>480.5</ele>
        <time>2021-03-29T14:19:23Z</time>
      </trkpt>
      <trkpt lat="46.70783" lon="5.64312">
        <ele>480.8</ele>
        <time>2021-03-29T14:19:31Z</time>
      </trkpt>
      <trkpt lat="46.70788" lon="5.64312">
        <ele>480.9</ele>
        <time>2021-03-29T14:19:40Z</time>
      </trkpt>
      <trkpt lat="46.70793" lon="5.64314">
        <ele>480.5</ele>
        <time>2021-03-29T14:19:48Z</time>
      </trkpt>
      <trkpt lat="46.70798" lon="5.64317">
        <ele>480.3</ele>
        <time>2021-03-29T14:19:53Z</time>
      </trkpt>
      <trkpt lat="46.70802" lon="5.64321">
        <ele>480.1</ele>
        <time>2021-03-29T14:19:58Z</time>
      </trkpt>
      <trkpt lat="46.70806" lon="5.64324">
        <ele>479.9</ele>
        <time>2021-03-29T14:20:04Z</time>
      </trkpt>
      <trkpt lat="46.70811" lon="5.64327">
        <ele>479.7</ele>
        <time>2021-03-29T14:20:10Z</time>
      </trkpt>
      <trkpt lat="46.70816" lon="5.64328">
        <ele>478.4</ele>
        <time>2021-03-29T14:20:20Z</time>
      </trkpt>
      <trkpt lat="46.7082" lon="5.64331">
        <ele>477.8</ele>
        <time>2021-03-29T14:20:26Z</time>
      </trkpt>
      <trkpt lat="46.70825" lon="5.64333">
        <ele>477.2</ele>
        <time>2021-03-29T14:20:33Z</time>
      </trkpt>
      <trkpt lat="46.7083" lon="5.64335">
        <ele>476.8</ele>
        <time>2021-03-29T14:20:40Z</time>
      </trkpt>
      <trkpt lat="46.70836" lon="5.64337">
        <ele>476.8</ele>
        <time>2021-03-29T14:20:44Z</time>
      </trkpt>
      <trkpt lat="46.70841" lon="5.64338">
        <ele>476.7</ele>
        <time>2021-03-29T14:20:48Z</time>
      </trkpt>
      <trkpt lat="46.70846" lon="5.64337">
        <ele>476.4</ele>
        <time>2021-03-29T14:20:52Z</time>
      </trkpt>
      <trkpt lat="46.70852" lon="5.64339">
        <ele>476.4</ele>
        <time>2021-03-29T14:20:56Z</time>
      </trkpt>
      <trkpt lat="46.70858" lon="5.6434">
        <ele>476.5</ele>
        <time>2021-03-29T14:21:00Z</time>
      </trkpt>
      <trkpt lat="46.70862" lon="5.64341">
        <ele>476.4</ele>
        <time>2021-03-29T14:21:05Z</time>
      </trkpt>
      <trkpt lat="46.70867" lon="5.64339">
        <ele>476.6</ele>
        <time>2021-03-29T14:21:11Z</time>
      </trkpt>
      <trkpt lat="46.70872" lon="5.64339">
        <ele>476.9</ele>
        <time>2021-03-29T14:21:19Z</time>
      </trkpt>
      <trkpt lat="46.70877" lon="5.6434">
        <ele>477.1</ele>
        <time>2021-03-29T14:21:25Z</time>
      </trkpt>
      <trkpt lat="46.70882" lon="5.6434">
        <ele>477.5</ele>
        <time>2021-03-29T14:21:32Z</time>
      </trkpt>
      <trkpt lat="46.70886" lon="5.64338">
        <ele>477.9</ele>
        <time>2021-03-29T14:21:37Z</time>
      </trkpt>
      <trkpt lat="46.70887" lon="5.64331">
        <ele>477.7</ele>
        <time>2021-03-29T14:21:44Z</time>
      </trkpt>
      <trkpt lat="46.70891" lon="5.64327">
        <ele>478</ele>
        <time>2021-03-29T14:21:53Z</time>
      </trkpt>
      <trkpt lat="46.70895" lon="5.64328">
        <ele>480.2</ele>
        <time>2021-03-29T14:22:06Z</time>
      </trkpt>
      <trkpt lat="46.70898" lon="5.64322">
        <ele>481.4</ele>
        <time>2021-03-29T14:22:14Z</time>
      </trkpt>
      <trkpt lat="46.70902" lon="5.6432">
        <ele>482.9</ele>
        <time>2021-03-29T14:22:20Z</time>
      </trkpt>
      <trkpt lat="46.70907" lon="5.64319">
        <ele>484.4</ele>
        <time>2021-03-29T14:22:26Z</time>
      </trkpt>
      <trkpt lat="46.70912" lon="5.64318">
        <ele>485.2</ele>
        <time>2021-03-29T14:22:31Z</time>
      </trkpt>
      <trkpt lat="46.70917" lon="5.64316">
        <ele>485.8</ele>
        <time>2021-03-29T14:22:35Z</time>
      </trkpt>
      <trkpt lat="46.70922" lon="5.64313">
        <ele>486.3</ele>
        <time>2021-03-29T14:22:40Z</time>
      </trkpt>
      <trkpt lat="46.70925" lon="5.64308">
        <ele>486.6</ele>
        <time>2021-03-29T14:22:47Z</time>
      </trkpt>
      <trkpt lat="46.7093" lon="5.64304">
        <ele>486.9</ele>
        <time>2021-03-29T14:22:53Z</time>
      </trkpt>
      <trkpt lat="46.70931" lon="5.64298">
        <ele>487.9</ele>
        <time>2021-03-29T14:23:06Z</time>
      </trkpt>
      <trkpt lat="46.70936" lon="5.64297">
        <ele>488.5</ele>
        <time>2021-03-29T14:23:18Z</time>
      </trkpt>
      <trkpt lat="46.70941" lon="5.64298">
        <ele>489.3</ele>
        <time>2021-03-29T14:23:26Z</time>
      </trkpt>
      <trkpt lat="46.70943" lon="5.64293">
        <ele>490.6</ele>
        <time>2021-03-29T14:23:38Z</time>
      </trkpt>
      <trkpt lat="46.70944" lon="5.64286">
        <ele>491</ele>
        <time>2021-03-29T14:23:44Z</time>
      </trkpt>
      <trkpt lat="46.70944" lon="5.64279">
        <ele>491</ele>
        <time>2021-03-29T14:23:50Z</time>
      </trkpt>
      <trkpt lat="46.70946" lon="5.64272">
        <ele>490.4</ele>
        <time>2021-03-29T14:23:56Z</time>
      </trkpt>
      <trkpt lat="46.70949" lon="5.64266">
        <ele>489.8</ele>
        <time>2021-03-29T14:24:01Z</time>
      </trkpt>
      <trkpt lat="46.70952" lon="5.64261">
        <ele>489.2</ele>
        <time>2021-03-29T14:24:07Z</time>
      </trkpt>
      <trkpt lat="46.70954" lon="5.64254">
        <ele>489.3</ele>
        <time>2021-03-29T14:24:14Z</time>
      </trkpt>
      <trkpt lat="46.70955" lon="5.64247">
        <ele>489.6</ele>
        <time>2021-03-29T14:24:19Z</time>
      </trkpt>
      <trkpt lat="46.70957" lon="5.64239">
        <ele>491</ele>
        <time>2021-03-29T14:24:34Z</time>
      </trkpt>
      <trkpt lat="46.70959" lon="5.64232">
        <ele>492.5</ele>
        <time>2021-03-29T14:24:45Z</time>
      </trkpt>
      <trkpt lat="46.70956" lon="5.64221">
        <ele>493.8</ele>
        <time>2021-03-29T14:25:24Z</time>
      </trkpt>
      <trkpt lat="46.70952" lon="5.64215">
        <ele>493.9</ele>
        <time>2021-03-29T14:25:28Z</time>
      </trkpt>
      <trkpt lat="46.70946" lon="5.64215">
        <ele>494.1</ele>
        <time>2021-03-29T14:25:34Z</time>
      </trkpt>
      <trkpt lat="46.70942" lon="5.64214">
        <ele>494</ele>
        <time>2021-03-29T14:25:39Z</time>
      </trkpt>
      <trkpt lat="46.70937" lon="5.64212">
        <ele>494</ele>
        <time>2021-03-29T14:25:43Z</time>
      </trkpt>
      <trkpt lat="46.70932" lon="5.64211">
        <ele>493.8</ele>
        <time>2021-03-29T14:25:48Z</time>
      </trkpt>
      <trkpt lat="46.70927" lon="5.6421">
        <ele>493.6</ele>
        <time>2021-03-29T14:25:54Z</time>
      </trkpt>
      <trkpt lat="46.70922" lon="5.64211">
        <ele>493.4</ele>
        <time>2021-03-29T14:26:00Z</time>
      </trkpt>
      <trkpt lat="46.70917" lon="5.64211">
        <ele>493.3</ele>
        <time>2021-03-29T14:26:05Z</time>
      </trkpt>
      <trkpt lat="46.70912" lon="5.64212">
        <ele>492.7</ele>
        <time>2021-03-29T14:26:11Z</time>
      </trkpt>
      <trkpt lat="46.70908" lon="5.64209">
        <ele>492.2</ele>
        <time>2021-03-29T14:26:17Z</time>
      </trkpt>
      <trkpt lat="46.70903" lon="5.64204">
        <ele>491.8</ele>
        <time>2021-03-29T14:26:24Z</time>
      </trkpt>
      <trkpt lat="46.709" lon="5.64199">
        <ele>491.6</ele>
        <time>2021-03-29T14:26:28Z</time>
      </trkpt>
      <trkpt lat="46.70897" lon="5.64193">
        <ele>491.3</ele>
        <time>2021-03-29T14:26:33Z</time>
      </trkpt>
      <trkpt lat="46.70893" lon="5.64187">
        <ele>491.2</ele>
        <time>2021-03-29T14:26:37Z</time>
      </trkpt>
      <trkpt lat="46.70891" lon="5.64181">
        <ele>491.3</ele>
        <time>2021-03-29T14:26:41Z</time>
      </trkpt>
      <trkpt lat="46.70888" lon="5.64175">
        <ele>491.4</ele>
        <time>2021-03-29T14:26:46Z</time>
      </trkpt>
      <trkpt lat="46.70887" lon="5.64168">
        <ele>492.2</ele>
        <time>2021-03-29T14:26:52Z</time>
      </trkpt>
      <trkpt lat="46.70888" lon="5.64161">
        <ele>493</ele>
        <time>2021-03-29T14:26:57Z</time>
      </trkpt>
      <trkpt lat="46.70889" lon="5.64155">
        <ele>494</ele>
        <time>2021-03-29T14:27:03Z</time>
      </trkpt>
      <trkpt lat="46.70891" lon="5.64149">
        <ele>494.6</ele>
        <time>2021-03-29T14:27:08Z</time>
      </trkpt>
      <trkpt lat="46.70894" lon="5.64144">
        <ele>494.7</ele>
        <time>2021-03-29T14:27:12Z</time>
      </trkpt>
      <trkpt lat="46.70898" lon="5.64139">
        <ele>494.8</ele>
        <time>2021-03-29T14:27:17Z</time>
      </trkpt>
      <trkpt lat="46.709" lon="5.64134">
        <ele>495.1</ele>
        <time>2021-03-29T14:27:23Z</time>
      </trkpt>
      <trkpt lat="46.70902" lon="5.64127">
        <ele>495.3</ele>
        <time>2021-03-29T14:27:28Z</time>
      </trkpt>
      <trkpt lat="46.70905" lon="5.64121">
        <ele>495.5</ele>
        <time>2021-03-29T14:27:34Z</time>
      </trkpt>
      <trkpt lat="46.70908" lon="5.64116">
        <ele>495.6</ele>
        <time>2021-03-29T14:27:41Z</time>
      </trkpt>
      <trkpt lat="46.70909" lon="5.64109">
        <ele>495.4</ele>
        <time>2021-03-29T14:27:47Z</time>
      </trkpt>
      <trkpt lat="46.70911" lon="5.64104">
        <ele>495.2</ele>
        <time>2021-03-29T14:27:52Z</time>
      </trkpt>
      <trkpt lat="46.70912" lon="5.64097">
        <ele>495</ele>
        <time>2021-03-29T14:27:59Z</time>
      </trkpt>
      <trkpt lat="46.70912" lon="5.6409">
        <ele>495.1</ele>
        <time>2021-03-29T14:28:07Z</time>
      </trkpt>
      <trkpt lat="46.70912" lon="5.64082">
        <ele>495</ele>
        <time>2021-03-29T14:28:12Z</time>
      </trkpt>
      <trkpt lat="46.70912" lon="5.64076">
        <ele>495</ele>
        <time>2021-03-29T14:28:17Z</time>
      </trkpt>
      <trkpt lat="46.70911" lon="5.64069">
        <ele>495.1</ele>
        <time>2021-03-29T14:28:23Z</time>
      </trkpt>
      <trkpt lat="46.70907" lon="5.64063">
        <ele>495.2</ele>
        <time>2021-03-29T14:28:40Z</time>
      </trkpt>
      <trkpt lat="46.70906" lon="5.6405">
        <ele>495.1</ele>
        <time>2021-03-29T14:28:44Z</time>
      </trkpt>
      <trkpt lat="46.70904" lon="5.64038">
        <ele>494.9</ele>
        <time>2021-03-29T14:28:48Z</time>
      </trkpt>
      <trkpt lat="46.70904" lon="5.64026">
        <ele>494.9</ele>
        <time>2021-03-29T14:28:52Z</time>
      </trkpt>
      <trkpt lat="46.70902" lon="5.64015">
        <ele>494.9</ele>
        <time>2021-03-29T14:28:56Z</time>
      </trkpt>
      <trkpt lat="46.70901" lon="5.64005">
        <ele>495.5</ele>
        <time>2021-03-29T14:29:00Z</time>
      </trkpt>
      <trkpt lat="46.70901" lon="5.63998">
        <ele>496.9</ele>
        <time>2021-03-29T14:29:05Z</time>
      </trkpt>
      <trkpt lat="46.70901" lon="5.63991">
        <ele>498.6</ele>
        <time>2021-03-29T14:29:14Z</time>
      </trkpt>
      <trkpt lat="46.70901" lon="5.63983">
        <ele>499.2</ele>
        <time>2021-03-29T14:29:19Z</time>
      </trkpt>
      <trkpt lat="46.709" lon="5.63975">
        <ele>499.6</ele>
        <time>2021-03-29T14:29:25Z</time>
      </trkpt>
      <trkpt lat="46.709" lon="5.63968">
        <ele>499.4</ele>
        <time>2021-03-29T14:29:31Z</time>
      </trkpt>
      <trkpt lat="46.709" lon="5.6396">
        <ele>499.4</ele>
        <time>2021-03-29T14:29:37Z</time>
      </trkpt>
      <trkpt lat="46.709" lon="5.63952">
        <ele>499.5</ele>
        <time>2021-03-29T14:29:41Z</time>
      </trkpt>
      <trkpt lat="46.70899" lon="5.63945">
        <ele>499.5</ele>
        <time>2021-03-29T14:29:45Z</time>
      </trkpt>
      <trkpt lat="46.70898" lon="5.63937">
        <ele>499.6</ele>
        <time>2021-03-29T14:29:49Z</time>
      </trkpt>
      <trkpt lat="46.70896" lon="5.63931">
        <ele>499.4</ele>
        <time>2021-03-29T14:29:56Z</time>
      </trkpt>
      <trkpt lat="46.70895" lon="5.63923">
        <ele>498.7</ele>
        <time>2021-03-29T14:30:04Z</time>
      </trkpt>
      <trkpt lat="46.70895" lon="5.63916">
        <ele>498.2</ele>
        <time>2021-03-29T14:30:13Z</time>
      </trkpt>
      <trkpt lat="46.70896" lon="5.63909">
        <ele>498</ele>
        <time>2021-03-29T14:30:19Z</time>
      </trkpt>
      <trkpt lat="46.70897" lon="5.63902">
        <ele>497.8</ele>
        <time>2021-03-29T14:30:26Z</time>
      </trkpt>
      <trkpt lat="46.70898" lon="5.63895">
        <ele>497.3</ele>
        <time>2021-03-29T14:30:34Z</time>
      </trkpt>
      <trkpt lat="46.709" lon="5.63887">
        <ele>496.9</ele>
        <time>2021-03-29T14:30:40Z</time>
      </trkpt>
      <trkpt lat="46.70901" lon="5.6388">
        <ele>496.6</ele>
        <time>2021-03-29T14:30:45Z</time>
      </trkpt>
      <trkpt lat="46.70906" lon="5.6387">
        <ele>496.2</ele>
        <time>2021-03-29T14:31:01Z</time>
      </trkpt>
      <trkpt lat="46.70909" lon="5.63863">
        <ele>496.2</ele>
        <time>2021-03-29T14:31:05Z</time>
      </trkpt>
      <trkpt lat="46.70908" lon="5.63855">
        <ele>496.3</ele>
        <time>2021-03-29T14:31:13Z</time>
      </trkpt>
      <trkpt lat="46.70906" lon="5.63845">
        <ele>496.6</ele>
        <time>2021-03-29T14:31:17Z</time>
      </trkpt>
      <trkpt lat="46.70905" lon="5.63838">
        <ele>497.4</ele>
        <time>2021-03-29T14:31:23Z</time>
      </trkpt>
      <trkpt lat="46.70905" lon="5.6383">
        <ele>498.7</ele>
        <time>2021-03-29T14:31:31Z</time>
      </trkpt>
      <trkpt lat="46.70908" lon="5.63824">
        <ele>500.5</ele>
        <time>2021-03-29T14:31:37Z</time>
      </trkpt>
      <trkpt lat="46.70912" lon="5.6382">
        <ele>502.4</ele>
        <time>2021-03-29T14:31:43Z</time>
      </trkpt>
      <trkpt lat="46.70914" lon="5.63814">
        <ele>504.4</ele>
        <time>2021-03-29T14:31:48Z</time>
      </trkpt>
      <trkpt lat="46.70919" lon="5.63814">
        <ele>508.5</ele>
        <time>2021-03-29T14:32:00Z</time>
      </trkpt>
      <trkpt lat="46.70915" lon="5.63819">
        <ele>507.4</ele>
        <time>2021-03-29T14:34:32Z</time>
      </trkpt>
      <trkpt lat="46.7091" lon="5.63821">
        <ele>508.4</ele>
        <time>2021-03-29T14:34:38Z</time>
      </trkpt>
      <trkpt lat="46.70905" lon="5.63822">
        <ele>509.2</ele>
        <time>2021-03-29T14:34:44Z</time>
      </trkpt>
      <trkpt lat="46.709" lon="5.6382">
        <ele>509.6</ele>
        <time>2021-03-29T14:34:51Z</time>
      </trkpt>
      <trkpt lat="46.70896" lon="5.63817">
        <ele>509.5</ele>
        <time>2021-03-29T14:34:56Z</time>
      </trkpt>
      <trkpt lat="46.70892" lon="5.63813">
        <ele>509.4</ele>
        <time>2021-03-29T14:35:01Z</time>
      </trkpt>
      <trkpt lat="46.70887" lon="5.63809">
        <ele>509.2</ele>
        <time>2021-03-29T14:35:05Z</time>
      </trkpt>
      <trkpt lat="46.70882" lon="5.63805">
        <ele>509</ele>
        <time>2021-03-29T14:35:11Z</time>
      </trkpt>
      <trkpt lat="46.70878" lon="5.63801">
        <ele>509</ele>
        <time>2021-03-29T14:35:17Z</time>
      </trkpt>
      <trkpt lat="46.70874" lon="5.63798">
        <ele>509.4</ele>
        <time>2021-03-29T14:35:23Z</time>
      </trkpt>
      <trkpt lat="46.70869" lon="5.63795">
        <ele>509.2</ele>
        <time>2021-03-29T14:35:29Z</time>
      </trkpt>
      <trkpt lat="46.70864" lon="5.63791">
        <ele>509</ele>
        <time>2021-03-29T14:35:33Z</time>
      </trkpt>
      <trkpt lat="46.7086" lon="5.63787">
        <ele>508.9</ele>
        <time>2021-03-29T14:35:37Z</time>
      </trkpt>
      <trkpt lat="46.70857" lon="5.63783">
        <ele>508.7</ele>
        <time>2021-03-29T14:35:41Z</time>
      </trkpt>
      <trkpt lat="46.70853" lon="5.63779">
        <ele>508.4</ele>
        <time>2021-03-29T14:35:45Z</time>
      </trkpt>
      <trkpt lat="46.70849" lon="5.63775">
        <ele>508.1</ele>
        <time>2021-03-29T14:35:49Z</time>
      </trkpt>
      <trkpt lat="46.70845" lon="5.6377">
        <ele>507.9</ele>
        <time>2021-03-29T14:35:54Z</time>
      </trkpt>
      <trkpt lat="46.70841" lon="5.63766">
        <ele>507.8</ele>
        <time>2021-03-29T14:35:59Z</time>
      </trkpt>
      <trkpt lat="46.70838" lon="5.6376">
        <ele>507.4</ele>
        <time>2021-03-29T14:36:03Z</time>
      </trkpt>
      <trkpt lat="46.70835" lon="5.63754">
        <ele>507</ele>
        <time>2021-03-29T14:36:07Z</time>
      </trkpt>
      <trkpt lat="46.70831" lon="5.63748">
        <ele>506.5</ele>
        <time>2021-03-29T14:36:12Z</time>
      </trkpt>
      <trkpt lat="46.70828" lon="5.63742">
        <ele>506.1</ele>
        <time>2021-03-29T14:36:17Z</time>
      </trkpt>
      <trkpt lat="46.70824" lon="5.63738">
        <ele>505.7</ele>
        <time>2021-03-29T14:36:23Z</time>
      </trkpt>
      <trkpt lat="46.7082" lon="5.63733">
        <ele>505.5</ele>
        <time>2021-03-29T14:36:28Z</time>
      </trkpt>
      <trkpt lat="46.70816" lon="5.63728">
        <ele>505.2</ele>
        <time>2021-03-29T14:36:33Z</time>
      </trkpt>
      <trkpt lat="46.70812" lon="5.63726">
        <ele>504.7</ele>
        <time>2021-03-29T14:36:37Z</time>
      </trkpt>
      <trkpt lat="46.70807" lon="5.63723">
        <ele>504.1</ele>
        <time>2021-03-29T14:36:42Z</time>
      </trkpt>
      <trkpt lat="46.70802" lon="5.63721">
        <ele>503.1</ele>
        <time>2021-03-29T14:36:48Z</time>
      </trkpt>
      <trkpt lat="46.70797" lon="5.63718">
        <ele>502.4</ele>
        <time>2021-03-29T14:36:53Z</time>
      </trkpt>
      <trkpt lat="46.70792" lon="5.63716">
        <ele>501.8</ele>
        <time>2021-03-29T14:36:57Z</time>
      </trkpt>
      <trkpt lat="46.70788" lon="5.63713">
        <ele>500.9</ele>
        <time>2021-03-29T14:37:02Z</time>
      </trkpt>
      <trkpt lat="46.70784" lon="5.63709">
        <ele>499.9</ele>
        <time>2021-03-29T14:37:09Z</time>
      </trkpt>
      <trkpt lat="46.7078" lon="5.63706">
        <ele>499.2</ele>
        <time>2021-03-29T14:37:16Z</time>
      </trkpt>
      <trkpt lat="46.70775" lon="5.63703">
        <ele>499</ele>
        <time>2021-03-29T14:37:24Z</time>
      </trkpt>
      <trkpt lat="46.7077" lon="5.63702">
        <ele>499.2</ele>
        <time>2021-03-29T14:37:31Z</time>
      </trkpt>
      <trkpt lat="46.70765" lon="5.63699">
        <ele>499.1</ele>
        <time>2021-03-29T14:37:36Z</time>
      </trkpt>
      <trkpt lat="46.7076" lon="5.63697">
        <ele>499</ele>
        <time>2021-03-29T14:37:41Z</time>
      </trkpt>
      <trkpt lat="46.70755" lon="5.63695">
        <ele>498.9</ele>
        <time>2021-03-29T14:37:45Z</time>
      </trkpt>
      <trkpt lat="46.70751" lon="5.63694">
        <ele>498.8</ele>
        <time>2021-03-29T14:37:49Z</time>
      </trkpt>
      <trkpt lat="46.70746" lon="5.63695">
        <ele>498.7</ele>
        <time>2021-03-29T14:37:53Z</time>
      </trkpt>
      <trkpt lat="46.70741" lon="5.63697">
        <ele>498.5</ele>
        <time>2021-03-29T14:37:58Z</time>
      </trkpt>
      <trkpt lat="46.70736" lon="5.63697">
        <ele>498</ele>
        <time>2021-03-29T14:38:04Z</time>
      </trkpt>
      <trkpt lat="46.70731" lon="5.63698">
        <ele>497.7</ele>
        <time>2021-03-29T14:38:10Z</time>
      </trkpt>
      <trkpt lat="46.70726" lon="5.63697">
        <ele>497.7</ele>
        <time>2021-03-29T14:38:18Z</time>
      </trkpt>
      <trkpt lat="46.70721" lon="5.63698">
        <ele>498.4</ele>
        <time>2021-03-29T14:38:28Z</time>
      </trkpt>
      <trkpt lat="46.70716" lon="5.63699">
        <ele>498.7</ele>
        <time>2021-03-29T14:38:33Z</time>
      </trkpt>
      <trkpt lat="46.70711" lon="5.63697">
        <ele>498.9</ele>
        <time>2021-03-29T14:38:37Z</time>
      </trkpt>
      <trkpt lat="46.70706" lon="5.63696">
        <ele>499</ele>
        <time>2021-03-29T14:38:42Z</time>
      </trkpt>
      <trkpt lat="46.70701" lon="5.63693">
        <ele>499</ele>
        <time>2021-03-29T14:38:50Z</time>
      </trkpt>
      <trkpt lat="46.70696" lon="5.63691">
        <ele>499.1</ele>
        <time>2021-03-29T14:38:55Z</time>
      </trkpt>
      <trkpt lat="46.70691" lon="5.63688">
        <ele>499</ele>
        <time>2021-03-29T14:38:59Z</time>
      </trkpt>
      <trkpt lat="46.70686" lon="5.63685">
        <ele>499.1</ele>
        <time>2021-03-29T14:39:03Z</time>
      </trkpt>
      <trkpt lat="46.70681" lon="5.63684">
        <ele>499.1</ele>
        <time>2021-03-29T14:39:08Z</time>
      </trkpt>
      <trkpt lat="46.70676" lon="5.63683">
        <ele>498.9</ele>
        <time>2021-03-29T14:39:13Z</time>
      </trkpt>
      <trkpt lat="46.70671" lon="5.63682">
        <ele>498.8</ele>
        <time>2021-03-29T14:39:18Z</time>
      </trkpt>
      <trkpt lat="46.70666" lon="5.63681">
        <ele>499</ele>
        <time>2021-03-29T14:39:23Z</time>
      </trkpt>
      <trkpt lat="46.70661" lon="5.63681">
        <ele>499.7</ele>
        <time>2021-03-29T14:39:27Z</time>
      </trkpt>
      <trkpt lat="46.70656" lon="5.63678">
        <ele>500.2</ele>
        <time>2021-03-29T14:39:32Z</time>
      </trkpt>
      <trkpt lat="46.70651" lon="5.63676">
        <ele>500.1</ele>
        <time>2021-03-29T14:39:42Z</time>
      </trkpt>
      <trkpt lat="46.70645" lon="5.63673">
        <ele>500.3</ele>
        <time>2021-03-29T14:39:46Z</time>
      </trkpt>
      <trkpt lat="46.70641" lon="5.63671">
        <ele>500.1</ele>
        <time>2021-03-29T14:39:50Z</time>
      </trkpt>
      <trkpt lat="46.70636" lon="5.6367">
        <ele>500</ele>
        <time>2021-03-29T14:39:54Z</time>
      </trkpt>
      <trkpt lat="46.70631" lon="5.63668">
        <ele>500.3</ele>
        <time>2021-03-29T14:39:58Z</time>
      </trkpt>
      <trkpt lat="46.70626" lon="5.63666">
        <ele>500.8</ele>
        <time>2021-03-29T14:40:02Z</time>
      </trkpt>
      <trkpt lat="46.70622" lon="5.63663">
        <ele>501.2</ele>
        <time>2021-03-29T14:40:06Z</time>
      </trkpt>
      <trkpt lat="46.70618" lon="5.63659">
        <ele>501</ele>
        <time>2021-03-29T14:40:12Z</time>
      </trkpt>
      <trkpt lat="46.70614" lon="5.63654">
        <ele>500.2</ele>
        <time>2021-03-29T14:40:17Z</time>
      </trkpt>
      <trkpt lat="46.70609" lon="5.63651">
        <ele>499.3</ele>
        <time>2021-03-29T14:40:23Z</time>
      </trkpt>
      <trkpt lat="46.70604" lon="5.63647">
        <ele>498.2</ele>
        <time>2021-03-29T14:40:28Z</time>
      </trkpt>
      <trkpt lat="46.706" lon="5.63644">
        <ele>497.2</ele>
        <time>2021-03-29T14:40:32Z</time>
      </trkpt>
      <trkpt lat="46.70595" lon="5.63642">
        <ele>496.2</ele>
        <time>2021-03-29T14:40:36Z</time>
      </trkpt>
      <trkpt lat="46.7059" lon="5.63639">
        <ele>495.5</ele>
        <time>2021-03-29T14:40:40Z</time>
      </trkpt>
      <trkpt lat="46.70586" lon="5.63637">
        <ele>495.2</ele>
        <time>2021-03-29T14:40:44Z</time>
      </trkpt>
      <trkpt lat="46.70581" lon="5.63635">
        <ele>494.6</ele>
        <time>2021-03-29T14:40:50Z</time>
      </trkpt>
      <trkpt lat="46.70576" lon="5.63632">
        <ele>493.9</ele>
        <time>2021-03-29T14:40:56Z</time>
      </trkpt>
      <trkpt lat="46.70571" lon="5.63631">
        <ele>493.3</ele>
        <time>2021-03-29T14:41:01Z</time>
      </trkpt>
      <trkpt lat="46.70565" lon="5.63628">
        <ele>493.6</ele>
        <time>2021-03-29T14:41:05Z</time>
      </trkpt>
      <trkpt lat="46.70561" lon="5.63626">
        <ele>494</ele>
        <time>2021-03-29T14:41:09Z</time>
      </trkpt>
      <trkpt lat="46.70556" lon="5.63625">
        <ele>494.6</ele>
        <time>2021-03-29T14:41:13Z</time>
      </trkpt>
      <trkpt lat="46.70551" lon="5.63625">
        <ele>495.7</ele>
        <time>2021-03-29T14:41:17Z</time>
      </trkpt>
      <trkpt lat="46.70546" lon="5.63625">
        <ele>497</ele>
        <time>2021-03-29T14:41:23Z</time>
      </trkpt>
      <trkpt lat="46.70541" lon="5.63625">
        <ele>498.4</ele>
        <time>2021-03-29T14:41:30Z</time>
      </trkpt>
      <trkpt lat="46.70536" lon="5.63624">
        <ele>499.2</ele>
        <time>2021-03-29T14:41:35Z</time>
      </trkpt>
      <trkpt lat="46.70532" lon="5.63623">
        <ele>500</ele>
        <time>2021-03-29T14:41:39Z</time>
      </trkpt>
      <trkpt lat="46.70527" lon="5.63622">
        <ele>500.9</ele>
        <time>2021-03-29T14:41:44Z</time>
      </trkpt>
      <trkpt lat="46.70522" lon="5.63621">
        <ele>502</ele>
        <time>2021-03-29T14:41:50Z</time>
      </trkpt>
      <trkpt lat="46.70518" lon="5.63619">
        <ele>502.8</ele>
        <time>2021-03-29T14:41:55Z</time>
      </trkpt>
      <trkpt lat="46.70513" lon="5.63616">
        <ele>503.3</ele>
        <time>2021-03-29T14:41:59Z</time>
      </trkpt>
      <trkpt lat="46.70506" lon="5.63614">
        <ele>503.7</ele>
        <time>2021-03-29T14:42:03Z</time>
      </trkpt>
      <trkpt lat="46.70501" lon="5.63612">
        <ele>504</ele>
        <time>2021-03-29T14:42:07Z</time>
      </trkpt>
      <trkpt lat="46.70497" lon="5.6361">
        <ele>504.5</ele>
        <time>2021-03-29T14:42:12Z</time>
      </trkpt>
      <trkpt lat="46.70491" lon="5.63609">
        <ele>505.3</ele>
        <time>2021-03-29T14:42:16Z</time>
      </trkpt>
      <trkpt lat="46.70487" lon="5.63608">
        <ele>505.9</ele>
        <time>2021-03-29T14:42:20Z</time>
      </trkpt>
      <trkpt lat="46.7048" lon="5.63605">
        <ele>506.7</ele>
        <time>2021-03-29T14:42:24Z</time>
      </trkpt>
      <trkpt lat="46.70474" lon="5.63603">
        <ele>507.9</ele>
        <time>2021-03-29T14:42:28Z</time>
      </trkpt>
      <trkpt lat="46.70468" lon="5.63601">
        <ele>509.1</ele>
        <time>2021-03-29T14:42:33Z</time>
      </trkpt>
      <trkpt lat="46.70463" lon="5.63598">
        <ele>509.8</ele>
        <time>2021-03-29T14:42:37Z</time>
      </trkpt>
      <trkpt lat="46.70459" lon="5.63597">
        <ele>510.1</ele>
        <time>2021-03-29T14:42:41Z</time>
      </trkpt>
      <trkpt lat="46.70454" lon="5.63594">
        <ele>510.1</ele>
        <time>2021-03-29T14:42:46Z</time>
      </trkpt>
      <trkpt lat="46.7045" lon="5.63592">
        <ele>510</ele>
        <time>2021-03-29T14:42:51Z</time>
      </trkpt>
      <trkpt lat="46.70444" lon="5.63588">
        <ele>509.9</ele>
        <time>2021-03-29T14:42:56Z</time>
      </trkpt>
      <trkpt lat="46.70439" lon="5.63587">
        <ele>509.7</ele>
        <time>2021-03-29T14:43:00Z</time>
      </trkpt>
      <trkpt lat="46.70434" lon="5.63586">
        <ele>509.1</ele>
        <time>2021-03-29T14:43:04Z</time>
      </trkpt>
      <trkpt lat="46.70428" lon="5.63583">
        <ele>508.2</ele>
        <time>2021-03-29T14:43:08Z</time>
      </trkpt>
      <trkpt lat="46.70423" lon="5.63581">
        <ele>507.3</ele>
        <time>2021-03-29T14:43:12Z</time>
      </trkpt>
      <trkpt lat="46.70417" lon="5.63578">
        <ele>506.7</ele>
        <time>2021-03-29T14:43:16Z</time>
      </trkpt>
      <trkpt lat="46.70413" lon="5.63575">
        <ele>506.5</ele>
        <time>2021-03-29T14:43:20Z</time>
      </trkpt>
      <trkpt lat="46.7041" lon="5.6357">
        <ele>505</ele>
        <time>2021-03-29T14:43:26Z</time>
      </trkpt>
      <trkpt lat="46.70405" lon="5.63566">
        <ele>504.2</ele>
        <time>2021-03-29T14:43:42Z</time>
      </trkpt>
      <trkpt lat="46.704" lon="5.63561">
        <ele>503.8</ele>
        <time>2021-03-29T14:43:46Z</time>
      </trkpt>
      <trkpt lat="46.70395" lon="5.63558">
        <ele>503.2</ele>
        <time>2021-03-29T14:43:51Z</time>
      </trkpt>
      <trkpt lat="46.7039" lon="5.63555">
        <ele>502.7</ele>
        <time>2021-03-29T14:43:56Z</time>
      </trkpt>
      <trkpt lat="46.70385" lon="5.63552">
        <ele>502.5</ele>
        <time>2021-03-29T14:44:01Z</time>
      </trkpt>
      <trkpt lat="46.7038" lon="5.63551">
        <ele>502.6</ele>
        <time>2021-03-29T14:44:05Z</time>
      </trkpt>
      <trkpt lat="46.70375" lon="5.63548">
        <ele>502.8</ele>
        <time>2021-03-29T14:44:10Z</time>
      </trkpt>
      <trkpt lat="46.7037" lon="5.63546">
        <ele>503.4</ele>
        <time>2021-03-29T14:44:15Z</time>
      </trkpt>
      <trkpt lat="46.70366" lon="5.63543">
        <ele>503.7</ele>
        <time>2021-03-29T14:44:21Z</time>
      </trkpt>
      <trkpt lat="46.70361" lon="5.63541">
        <ele>503.5</ele>
        <time>2021-03-29T14:44:27Z</time>
      </trkpt>
      <trkpt lat="46.70355" lon="5.6354">
        <ele>503</ele>
        <time>2021-03-29T14:44:32Z</time>
      </trkpt>
      <trkpt lat="46.7035" lon="5.63539">
        <ele>502.7</ele>
        <time>2021-03-29T14:44:36Z</time>
      </trkpt>
      <trkpt lat="46.70346" lon="5.63536">
        <ele>502.5</ele>
        <time>2021-03-29T14:44:41Z</time>
      </trkpt>
      <trkpt lat="46.7034" lon="5.63535">
        <ele>502.1</ele>
        <time>2021-03-29T14:44:47Z</time>
      </trkpt>
      <trkpt lat="46.70334" lon="5.63535">
        <ele>502.2</ele>
        <time>2021-03-29T14:44:51Z</time>
      </trkpt>
      <trkpt lat="46.70329" lon="5.63533">
        <ele>502.3</ele>
        <time>2021-03-29T14:44:56Z</time>
      </trkpt>
      <trkpt lat="46.70325" lon="5.63532">
        <ele>502.2</ele>
        <time>2021-03-29T14:45:01Z</time>
      </trkpt>
      <trkpt lat="46.7032" lon="5.6353">
        <ele>502</ele>
        <time>2021-03-29T14:45:08Z</time>
      </trkpt>
      <trkpt lat="46.70315" lon="5.63528">
        <ele>501.8</ele>
        <time>2021-03-29T14:45:12Z</time>
      </trkpt>
      <trkpt lat="46.70311" lon="5.63526">
        <ele>501.6</ele>
        <time>2021-03-29T14:45:17Z</time>
      </trkpt>
      <trkpt lat="46.70306" lon="5.63522">
        <ele>501.3</ele>
        <time>2021-03-29T14:45:24Z</time>
      </trkpt>
      <trkpt lat="46.70302" lon="5.63519">
        <ele>501.1</ele>
        <time>2021-03-29T14:45:31Z</time>
      </trkpt>
      <trkpt lat="46.70297" lon="5.63517">
        <ele>501</ele>
        <time>2021-03-29T14:45:37Z</time>
      </trkpt>
      <trkpt lat="46.70292" lon="5.6352">
        <ele>501</ele>
        <time>2021-03-29T14:45:43Z</time>
      </trkpt>
      <trkpt lat="46.70287" lon="5.63521">
        <ele>501.2</ele>
        <time>2021-03-29T14:45:49Z</time>
      </trkpt>
      <trkpt lat="46.70283" lon="5.6352">
        <ele>501.1</ele>
        <time>2021-03-29T14:45:53Z</time>
      </trkpt>
      <trkpt lat="46.70275" lon="5.63521">
        <ele>501.2</ele>
        <time>2021-03-29T14:45:57Z</time>
      </trkpt>
      <trkpt lat="46.70266" lon="5.63523">
        <ele>501.2</ele>
        <time>2021-03-29T14:46:01Z</time>
      </trkpt>
      <trkpt lat="46.7026" lon="5.63525">
        <ele>501</ele>
        <time>2021-03-29T14:46:05Z</time>
      </trkpt>
      <trkpt lat="46.70254" lon="5.63526">
        <ele>500.9</ele>
        <time>2021-03-29T14:46:09Z</time>
      </trkpt>
      <trkpt lat="46.70249" lon="5.63526">
        <ele>500.3</ele>
        <time>2021-03-29T14:46:13Z</time>
      </trkpt>
      <trkpt lat="46.70245" lon="5.63527">
        <ele>499.7</ele>
        <time>2021-03-29T14:46:17Z</time>
      </trkpt>
      <trkpt lat="46.7024" lon="5.63527">
        <ele>499.2</ele>
        <time>2021-03-29T14:46:21Z</time>
      </trkpt>
      <trkpt lat="46.70234" lon="5.63527">
        <ele>498.9</ele>
        <time>2021-03-29T14:46:25Z</time>
      </trkpt>
      <trkpt lat="46.70228" lon="5.63527">
        <ele>498.6</ele>
        <time>2021-03-29T14:46:29Z</time>
      </trkpt>
      <trkpt lat="46.70222" lon="5.63529">
        <ele>498.4</ele>
        <time>2021-03-29T14:46:34Z</time>
      </trkpt>
      <trkpt lat="46.70217" lon="5.6353">
        <ele>498.6</ele>
        <time>2021-03-29T14:46:39Z</time>
      </trkpt>
      <trkpt lat="46.70213" lon="5.63534">
        <ele>498.6</ele>
        <time>2021-03-29T14:46:48Z</time>
      </trkpt>
      <trkpt lat="46.70209" lon="5.63538">
        <ele>498.6</ele>
        <time>2021-03-29T14:46:55Z</time>
      </trkpt>
      <trkpt lat="46.70205" lon="5.63542">
        <ele>498.5</ele>
        <time>2021-03-29T14:47:00Z</time>
      </trkpt>
      <trkpt lat="46.702" lon="5.6355">
        <ele>498.6</ele>
        <time>2021-03-29T14:47:04Z</time>
      </trkpt>
      <trkpt lat="46.70196" lon="5.63555">
        <ele>498.7</ele>
        <time>2021-03-29T14:47:08Z</time>
      </trkpt>
      <trkpt lat="46.70192" lon="5.63559">
        <ele>498.7</ele>
        <time>2021-03-29T14:47:13Z</time>
      </trkpt>
      <trkpt lat="46.70187" lon="5.63569">
        <ele>500.4</ele>
        <time>2021-03-29T14:47:17Z</time>
      </trkpt>
      <trkpt lat="46.70184" lon="5.63576">
        <ele>502</ele>
        <time>2021-03-29T14:47:21Z</time>
      </trkpt>
      <trkpt lat="46.70182" lon="5.63582">
        <ele>503.3</ele>
        <time>2021-03-29T14:47:27Z</time>
      </trkpt>
      <trkpt lat="46.7018" lon="5.63588">
        <ele>503.6</ele>
        <time>2021-03-29T14:47:33Z</time>
      </trkpt>
      <trkpt lat="46.70177" lon="5.63594">
        <ele>503.7</ele>
        <time>2021-03-29T14:47:38Z</time>
      </trkpt>
      <trkpt lat="46.70174" lon="5.636">
        <ele>503.4</ele>
        <time>2021-03-29T14:47:43Z</time>
      </trkpt>
      <trkpt lat="46.7017" lon="5.63604">
        <ele>502.7</ele>
        <time>2021-03-29T14:47:48Z</time>
      </trkpt>
      <trkpt lat="46.70165" lon="5.63608">
        <ele>501.7</ele>
        <time>2021-03-29T14:47:53Z</time>
      </trkpt>
      <trkpt lat="46.70162" lon="5.63613">
        <ele>500.9</ele>
        <time>2021-03-29T14:47:57Z</time>
      </trkpt>
      <trkpt lat="46.70158" lon="5.63617">
        <ele>499.9</ele>
        <time>2021-03-29T14:48:02Z</time>
      </trkpt>
      <trkpt lat="46.70154" lon="5.63622">
        <ele>498.5</ele>
        <time>2021-03-29T14:48:06Z</time>
      </trkpt>
      <trkpt lat="46.7015" lon="5.63626">
        <ele>497.2</ele>
        <time>2021-03-29T14:48:10Z</time>
      </trkpt>
      <trkpt lat="46.70145" lon="5.63629">
        <ele>496.3</ele>
        <time>2021-03-29T14:48:15Z</time>
      </trkpt>
      <trkpt lat="46.70141" lon="5.63631">
        <ele>496.4</ele>
        <time>2021-03-29T14:48:19Z</time>
      </trkpt>
      <trkpt lat="46.70136" lon="5.63633">
        <ele>496.4</ele>
        <time>2021-03-29T14:48:23Z</time>
      </trkpt>
      <trkpt lat="46.70131" lon="5.63635">
        <ele>496.3</ele>
        <time>2021-03-29T14:48:27Z</time>
      </trkpt>
      <trkpt lat="46.70126" lon="5.63637">
        <ele>496.2</ele>
        <time>2021-03-29T14:48:31Z</time>
      </trkpt>
      <trkpt lat="46.70122" lon="5.63639">
        <ele>496.2</ele>
        <time>2021-03-29T14:48:35Z</time>
      </trkpt>
      <trkpt lat="46.70117" lon="5.63641">
        <ele>496.4</ele>
        <time>2021-03-29T14:48:40Z</time>
      </trkpt>
      <trkpt lat="46.70113" lon="5.63644">
        <ele>496.6</ele>
        <time>2021-03-29T14:48:45Z</time>
      </trkpt>
      <trkpt lat="46.70108" lon="5.63647">
        <ele>497.4</ele>
        <time>2021-03-29T14:48:49Z</time>
      </trkpt>
      <trkpt lat="46.70103" lon="5.63649">
        <ele>497.9</ele>
        <time>2021-03-29T14:48:53Z</time>
      </trkpt>
      <trkpt lat="46.70099" lon="5.63651">
        <ele>498.3</ele>
        <time>2021-03-29T14:48:57Z</time>
      </trkpt>
      <trkpt lat="46.70094" lon="5.63653">
        <ele>498.7</ele>
        <time>2021-03-29T14:49:01Z</time>
      </trkpt>
      <trkpt lat="46.70089" lon="5.63653">
        <ele>499.3</ele>
        <time>2021-03-29T14:49:05Z</time>
      </trkpt>
      <trkpt lat="46.70083" lon="5.63652">
        <ele>499.6</ele>
        <time>2021-03-29T14:49:10Z</time>
      </trkpt>
      <trkpt lat="46.70078" lon="5.63652">
        <ele>499.5</ele>
        <time>2021-03-29T14:49:15Z</time>
      </trkpt>
      <trkpt lat="46.70074" lon="5.6365">
        <ele>499</ele>
        <time>2021-03-29T14:49:20Z</time>
      </trkpt>
      <trkpt lat="46.70069" lon="5.63647">
        <ele>498.5</ele>
        <time>2021-03-29T14:49:24Z</time>
      </trkpt>
      <trkpt lat="46.70065" lon="5.63644">
        <ele>497.7</ele>
        <time>2021-03-29T14:49:28Z</time>
      </trkpt>
      <trkpt lat="46.70059" lon="5.63642">
        <ele>497.3</ele>
        <time>2021-03-29T14:49:33Z</time>
      </trkpt>
      <trkpt lat="46.70055" lon="5.63641">
        <ele>498</ele>
        <time>2021-03-29T14:49:38Z</time>
      </trkpt>
      <trkpt lat="46.7005" lon="5.63638">
        <ele>498.3</ele>
        <time>2021-03-29T14:49:43Z</time>
      </trkpt>
      <trkpt lat="46.70045" lon="5.63637">
        <ele>498.2</ele>
        <time>2021-03-29T14:49:48Z</time>
      </trkpt>
      <trkpt lat="46.7004" lon="5.63635">
        <ele>498</ele>
        <time>2021-03-29T14:49:52Z</time>
      </trkpt>
      <trkpt lat="46.70035" lon="5.63632">
        <ele>497.9</ele>
        <time>2021-03-29T14:49:56Z</time>
      </trkpt>
      <trkpt lat="46.7003" lon="5.63629">
        <ele>498.1</ele>
        <time>2021-03-29T14:50:00Z</time>
      </trkpt>
      <trkpt lat="46.70026" lon="5.63625">
        <ele>498.1</ele>
        <time>2021-03-29T14:50:05Z</time>
      </trkpt>
      <trkpt lat="46.70023" lon="5.63621">
        <ele>497.8</ele>
        <time>2021-03-29T14:50:10Z</time>
      </trkpt>
      <trkpt lat="46.70018" lon="5.63616">
        <ele>497.4</ele>
        <time>2021-03-29T14:50:15Z</time>
      </trkpt>
      <trkpt lat="46.70014" lon="5.63611">
        <ele>496.9</ele>
        <time>2021-03-29T14:50:19Z</time>
      </trkpt>
      <trkpt lat="46.70009" lon="5.63609">
        <ele>496.3</ele>
        <time>2021-03-29T14:50:25Z</time>
      </trkpt>
      <trkpt lat="46.70005" lon="5.63607">
        <ele>496</ele>
        <time>2021-03-29T14:50:30Z</time>
      </trkpt>
      <trkpt lat="46.70001" lon="5.6361">
        <ele>496.8</ele>
        <time>2021-03-29T14:50:38Z</time>
      </trkpt>
      <trkpt lat="46.70006" lon="5.63606">
        <ele>498.3</ele>
        <time>2021-03-29T14:51:28Z</time>
      </trkpt>
      <trkpt lat="46.70008" lon="5.636">
        <ele>498.2</ele>
        <time>2021-03-29T14:51:36Z</time>
      </trkpt>
      <trkpt lat="46.7001" lon="5.63595">
        <ele>497.7</ele>
        <time>2021-03-29T14:51:43Z</time>
      </trkpt>
      <trkpt lat="46.70014" lon="5.6359">
        <ele>497.1</ele>
        <time>2021-03-29T14:51:50Z</time>
      </trkpt>
      <trkpt lat="46.70018" lon="5.63586">
        <ele>496.6</ele>
        <time>2021-03-29T14:51:55Z</time>
      </trkpt>
      <trkpt lat="46.70022" lon="5.63582">
        <ele>496</ele>
        <time>2021-03-29T14:52:00Z</time>
      </trkpt>
      <trkpt lat="46.70025" lon="5.63578">
        <ele>495.4</ele>
        <time>2021-03-29T14:52:05Z</time>
      </trkpt>
      <trkpt lat="46.70027" lon="5.63572">
        <ele>494.9</ele>
        <time>2021-03-29T14:52:11Z</time>
      </trkpt>
      <trkpt lat="46.7003" lon="5.63566">
        <ele>494.3</ele>
        <time>2021-03-29T14:52:17Z</time>
      </trkpt>
      <trkpt lat="46.70033" lon="5.6356">
        <ele>493.9</ele>
        <time>2021-03-29T14:52:22Z</time>
      </trkpt>
      <trkpt lat="46.70035" lon="5.63553">
        <ele>493.6</ele>
        <time>2021-03-29T14:52:27Z</time>
      </trkpt>
      <trkpt lat="46.70038" lon="5.63547">
        <ele>493.2</ele>
        <time>2021-03-29T14:52:32Z</time>
      </trkpt>
      <trkpt lat="46.70041" lon="5.63541">
        <ele>492.6</ele>
        <time>2021-03-29T14:52:38Z</time>
      </trkpt>
      <trkpt lat="46.70043" lon="5.63527">
        <ele>495.3</ele>
        <time>2021-03-29T14:52:43Z</time>
      </trkpt>
      <trkpt lat="46.70045" lon="5.63517">
        <ele>498.4</ele>
        <time>2021-03-29T14:52:47Z</time>
      </trkpt>
      <trkpt lat="46.70049" lon="5.63514">
        <ele>501.7</ele>
        <time>2021-03-29T14:52:54Z</time>
      </trkpt>
      <trkpt lat="46.70054" lon="5.63512">
        <ele>503.3</ele>
        <time>2021-03-29T14:53:00Z</time>
      </trkpt>
      <trkpt lat="46.70058" lon="5.63508">
        <ele>504.5</ele>
        <time>2021-03-29T14:53:06Z</time>
      </trkpt>
      <trkpt lat="46.70066" lon="5.63503">
        <ele>506.6</ele>
        <time>2021-03-29T14:53:10Z</time>
      </trkpt>
      <trkpt lat="46.7007" lon="5.635">
        <ele>508.3</ele>
        <time>2021-03-29T14:53:14Z</time>
      </trkpt>
      <trkpt lat="46.70075" lon="5.63499">
        <ele>510</ele>
        <time>2021-03-29T14:53:20Z</time>
      </trkpt>
      <trkpt lat="46.70079" lon="5.63497">
        <ele>511</ele>
        <time>2021-03-29T14:53:26Z</time>
      </trkpt>
      <trkpt lat="46.70083" lon="5.63493">
        <ele>511.5</ele>
        <time>2021-03-29T14:53:33Z</time>
      </trkpt>
      <trkpt lat="46.70088" lon="5.63488">
        <ele>511.1</ele>
        <time>2021-03-29T14:53:38Z</time>
      </trkpt>
      <trkpt lat="46.70093" lon="5.63483">
        <ele>510.5</ele>
        <time>2021-03-29T14:53:42Z</time>
      </trkpt>
      <trkpt lat="46.70098" lon="5.6348">
        <ele>509.8</ele>
        <time>2021-03-29T14:53:48Z</time>
      </trkpt>
      <trkpt lat="46.70103" lon="5.63478">
        <ele>509.1</ele>
        <time>2021-03-29T14:53:54Z</time>
      </trkpt>
      <trkpt lat="46.70107" lon="5.63475">
        <ele>508.7</ele>
        <time>2021-03-29T14:53:58Z</time>
      </trkpt>
      <trkpt lat="46.70111" lon="5.63472">
        <ele>508</ele>
        <time>2021-03-29T14:54:02Z</time>
      </trkpt>
      <trkpt lat="46.70115" lon="5.63468">
        <ele>506.7</ele>
        <time>2021-03-29T14:54:07Z</time>
      </trkpt>
      <trkpt lat="46.70119" lon="5.63463">
        <ele>505.4</ele>
        <time>2021-03-29T14:54:12Z</time>
      </trkpt>
      <trkpt lat="46.70123" lon="5.6346">
        <ele>504.1</ele>
        <time>2021-03-29T14:54:17Z</time>
      </trkpt>
      <trkpt lat="46.70127" lon="5.63456">
        <ele>502.9</ele>
        <time>2021-03-29T14:54:23Z</time>
      </trkpt>
      <trkpt lat="46.70131" lon="5.63452">
        <ele>501.5</ele>
        <time>2021-03-29T14:54:31Z</time>
      </trkpt>
      <trkpt lat="46.70136" lon="5.6345">
        <ele>500.8</ele>
        <time>2021-03-29T14:54:36Z</time>
      </trkpt>
      <trkpt lat="46.7014" lon="5.63448">
        <ele>500.6</ele>
        <time>2021-03-29T14:54:41Z</time>
      </trkpt>
      <trkpt lat="46.70145" lon="5.63445">
        <ele>500.9</ele>
        <time>2021-03-29T14:54:48Z</time>
      </trkpt>
      <trkpt lat="46.70152" lon="5.63443">
        <ele>501.3</ele>
        <time>2021-03-29T14:54:52Z</time>
      </trkpt>
      <trkpt lat="46.70157" lon="5.63442">
        <ele>501.7</ele>
        <time>2021-03-29T14:54:56Z</time>
      </trkpt>
      <trkpt lat="46.70162" lon="5.63443">
        <ele>502.1</ele>
        <time>2021-03-29T14:55:01Z</time>
      </trkpt>
      <trkpt lat="46.70166" lon="5.63442">
        <ele>501.1</ele>
        <time>2021-03-29T14:55:09Z</time>
      </trkpt>
      <trkpt lat="46.70171" lon="5.63439">
        <ele>500</ele>
        <time>2021-03-29T14:55:14Z</time>
      </trkpt>
      <trkpt lat="46.70176" lon="5.63437">
        <ele>499.1</ele>
        <time>2021-03-29T14:55:18Z</time>
      </trkpt>
      <trkpt lat="46.70181" lon="5.63437">
        <ele>498.4</ele>
        <time>2021-03-29T14:55:22Z</time>
      </trkpt>
      <trkpt lat="46.70186" lon="5.63438">
        <ele>497.7</ele>
        <time>2021-03-29T14:55:26Z</time>
      </trkpt>
      <trkpt lat="46.7019" lon="5.6344">
        <ele>496.6</ele>
        <time>2021-03-29T14:55:34Z</time>
      </trkpt>
      <trkpt lat="46.70197" lon="5.63438">
        <ele>495.7</ele>
        <time>2021-03-29T14:55:54Z</time>
      </trkpt>
      <trkpt lat="46.70202" lon="5.63433">
        <ele>495.5</ele>
        <time>2021-03-29T14:55:58Z</time>
      </trkpt>
      <trkpt lat="46.70205" lon="5.63427">
        <ele>495.4</ele>
        <time>2021-03-29T14:56:05Z</time>
      </trkpt>
      <trkpt lat="46.7021" lon="5.63432">
        <ele>495</ele>
        <time>2021-03-29T14:56:18Z</time>
      </trkpt>
      <trkpt lat="46.70217" lon="5.63436">
        <ele>494.6</ele>
        <time>2021-03-29T14:56:22Z</time>
      </trkpt>
      <trkpt lat="46.70222" lon="5.63437">
        <ele>494.6</ele>
        <time>2021-03-29T14:56:26Z</time>
      </trkpt>
      <trkpt lat="46.70227" lon="5.6344">
        <ele>494.9</ele>
        <time>2021-03-29T14:56:31Z</time>
      </trkpt>
      <trkpt lat="46.70231" lon="5.63439">
        <ele>493.6</ele>
        <time>2021-03-29T14:56:45Z</time>
      </trkpt>
      <trkpt lat="46.70235" lon="5.63437">
        <ele>492.7</ele>
        <time>2021-03-29T14:56:57Z</time>
      </trkpt>
      <trkpt lat="46.7024" lon="5.63435">
        <ele>493.1</ele>
        <time>2021-03-29T14:57:09Z</time>
      </trkpt>
      <trkpt lat="46.70244" lon="5.63435">
        <ele>492.4</ele>
        <time>2021-03-29T14:57:18Z</time>
      </trkpt>
      <trkpt lat="46.7025" lon="5.63437">
        <ele>492.4</ele>
        <time>2021-03-29T14:57:34Z</time>
      </trkpt>
      <trkpt lat="46.70258" lon="5.63439">
        <ele>491.4</ele>
        <time>2021-03-29T14:57:55Z</time>
      </trkpt>
      <trkpt lat="46.70263" lon="5.63439">
        <ele>490.5</ele>
        <time>2021-03-29T14:57:59Z</time>
      </trkpt>
      <trkpt lat="46.7027" lon="5.6344">
        <ele>489.4</ele>
        <time>2021-03-29T14:58:04Z</time>
      </trkpt>
      <trkpt lat="46.70275" lon="5.63441">
        <ele>488.4</ele>
        <time>2021-03-29T14:58:09Z</time>
      </trkpt>
      <trkpt lat="46.7028" lon="5.6344">
        <ele>487.5</ele>
        <time>2021-03-29T14:58:17Z</time>
      </trkpt>
      <trkpt lat="46.70284" lon="5.63439">
        <ele>487.2</ele>
        <time>2021-03-29T14:58:25Z</time>
      </trkpt>
      <trkpt lat="46.70289" lon="5.63437">
        <ele>487.3</ele>
        <time>2021-03-29T14:58:30Z</time>
      </trkpt>
      <trkpt lat="46.70301" lon="5.6344">
        <ele>484.6</ele>
        <time>2021-03-29T14:58:50Z</time>
      </trkpt>
      <trkpt lat="46.70312" lon="5.63445">
        <ele>482.6</ele>
        <time>2021-03-29T14:58:54Z</time>
      </trkpt>
      <trkpt lat="46.70316" lon="5.63446">
        <ele>480.8</ele>
        <time>2021-03-29T14:58:59Z</time>
      </trkpt>
      <trkpt lat="46.70321" lon="5.63448">
        <ele>479.4</ele>
        <time>2021-03-29T14:59:05Z</time>
      </trkpt>
      <trkpt lat="46.70325" lon="5.63445">
        <ele>477.6</ele>
        <time>2021-03-29T14:59:19Z</time>
      </trkpt>
      <trkpt lat="46.7033" lon="5.63443">
        <ele>477.1</ele>
        <time>2021-03-29T14:59:34Z</time>
      </trkpt>
      <trkpt lat="46.70336" lon="5.63444">
        <ele>477.1</ele>
        <time>2021-03-29T14:59:38Z</time>
      </trkpt>
      <trkpt lat="46.7034" lon="5.63445">
        <ele>477.3</ele>
        <time>2021-03-29T14:59:44Z</time>
      </trkpt>
      <trkpt lat="46.70345" lon="5.63447">
        <ele>477</ele>
        <time>2021-03-29T14:59:50Z</time>
      </trkpt>
      <trkpt lat="46.7035" lon="5.63448">
        <ele>476.9</ele>
        <time>2021-03-29T14:59:55Z</time>
      </trkpt>
      <trkpt lat="46.70354" lon="5.63451">
        <ele>475.4</ele>
        <time>2021-03-29T14:59:59Z</time>
      </trkpt>
      <trkpt lat="46.70358" lon="5.63454">
        <ele>472.3</ele>
        <time>2021-03-29T15:00:06Z</time>
      </trkpt>
      <trkpt lat="46.70363" lon="5.63452">
        <ele>469.3</ele>
        <time>2021-03-29T15:00:16Z</time>
      </trkpt>
      <trkpt lat="46.70367" lon="5.6345">
        <ele>469.5</ele>
        <time>2021-03-29T15:00:21Z</time>
      </trkpt>
      <trkpt lat="46.70372" lon="5.6345">
        <ele>470.2</ele>
        <time>2021-03-29T15:00:27Z</time>
      </trkpt>
      <trkpt lat="46.70377" lon="5.63449">
        <ele>471.2</ele>
        <time>2021-03-29T15:00:35Z</time>
      </trkpt>
      <trkpt lat="46.70381" lon="5.6345">
        <ele>471.5</ele>
        <time>2021-03-29T15:00:41Z</time>
      </trkpt>
      <trkpt lat="46.70386" lon="5.63449">
        <ele>471.9</ele>
        <time>2021-03-29T15:00:50Z</time>
      </trkpt>
      <trkpt lat="46.70391" lon="5.6345">
        <ele>472.4</ele>
        <time>2021-03-29T15:00:57Z</time>
      </trkpt>
      <trkpt lat="46.70396" lon="5.63448">
        <ele>472.4</ele>
        <time>2021-03-29T15:01:04Z</time>
      </trkpt>
      <trkpt lat="46.704" lon="5.63448">
        <ele>471.9</ele>
        <time>2021-03-29T15:01:10Z</time>
      </trkpt>
      <trkpt lat="46.70405" lon="5.63447">
        <ele>471.3</ele>
        <time>2021-03-29T15:01:15Z</time>
      </trkpt>
      <trkpt lat="46.70409" lon="5.63446">
        <ele>470.9</ele>
        <time>2021-03-29T15:01:19Z</time>
      </trkpt>
      <trkpt lat="46.70414" lon="5.63446">
        <ele>470.5</ele>
        <time>2021-03-29T15:01:24Z</time>
      </trkpt>
      <trkpt lat="46.70419" lon="5.63448">
        <ele>470.1</ele>
        <time>2021-03-29T15:01:29Z</time>
      </trkpt>
      <trkpt lat="46.70423" lon="5.63446">
        <ele>469.9</ele>
        <time>2021-03-29T15:01:37Z</time>
      </trkpt>
      <trkpt lat="46.70428" lon="5.63446">
        <ele>469.7</ele>
        <time>2021-03-29T15:01:52Z</time>
      </trkpt>
      <trkpt lat="46.70433" lon="5.63448">
        <ele>469.3</ele>
        <time>2021-03-29T15:01:58Z</time>
      </trkpt>
      <trkpt lat="46.70438" lon="5.63448">
        <ele>468.9</ele>
        <time>2021-03-29T15:02:03Z</time>
      </trkpt>
      <trkpt lat="46.70443" lon="5.63448">
        <ele>468.6</ele>
        <time>2021-03-29T15:02:14Z</time>
      </trkpt>
      <trkpt lat="46.70447" lon="5.63446">
        <ele>470.4</ele>
        <time>2021-03-29T15:02:20Z</time>
      </trkpt>
      <trkpt lat="46.70452" lon="5.63445">
        <ele>471.3</ele>
        <time>2021-03-29T15:02:26Z</time>
      </trkpt>
      <trkpt lat="46.70457" lon="5.6345">
        <ele>471.3</ele>
        <time>2021-03-29T15:02:46Z</time>
      </trkpt>
      <trkpt lat="46.70462" lon="5.63449">
        <ele>470.7</ele>
        <time>2021-03-29T15:03:52Z</time>
      </trkpt>
      <trkpt lat="46.70466" lon="5.63446">
        <ele>469.7</ele>
        <time>2021-03-29T15:03:58Z</time>
      </trkpt>
      <trkpt lat="46.70471" lon="5.63448">
        <ele>465.5</ele>
        <time>2021-03-29T15:05:03Z</time>
      </trkpt>
      <trkpt lat="46.70476" lon="5.6345">
        <ele>464.1</ele>
        <time>2021-03-29T15:05:10Z</time>
      </trkpt>
      <trkpt lat="46.7048" lon="5.63452">
        <ele>462.7</ele>
        <time>2021-03-29T15:05:18Z</time>
      </trkpt>
      <trkpt lat="46.70485" lon="5.63453">
        <ele>461.7</ele>
        <time>2021-03-29T15:05:26Z</time>
      </trkpt>
      <trkpt lat="46.7049" lon="5.63453">
        <ele>461.3</ele>
        <time>2021-03-29T15:05:31Z</time>
      </trkpt>
      <trkpt lat="46.70495" lon="5.63455">
        <ele>460.9</ele>
        <time>2021-03-29T15:05:36Z</time>
      </trkpt>
      <trkpt lat="46.70499" lon="5.63458">
        <ele>460.4</ele>
        <time>2021-03-29T15:05:42Z</time>
      </trkpt>
      <trkpt lat="46.70504" lon="5.63458">
        <ele>459.4</ele>
        <time>2021-03-29T15:05:51Z</time>
      </trkpt>
      <trkpt lat="46.70509" lon="5.63457">
        <ele>458.9</ele>
        <time>2021-03-29T15:05:57Z</time>
      </trkpt>
      <trkpt lat="46.70513" lon="5.6346">
        <ele>458.3</ele>
        <time>2021-03-29T15:06:03Z</time>
      </trkpt>
      <trkpt lat="46.70518" lon="5.63463">
        <ele>457.1</ele>
        <time>2021-03-29T15:06:09Z</time>
      </trkpt>
      <trkpt lat="46.70522" lon="5.63464">
        <ele>455.8</ele>
        <time>2021-03-29T15:06:15Z</time>
      </trkpt>
      <trkpt lat="46.70527" lon="5.63466">
        <ele>454.5</ele>
        <time>2021-03-29T15:06:21Z</time>
      </trkpt>
      <trkpt lat="46.70532" lon="5.63465">
        <ele>454</ele>
        <time>2021-03-29T15:06:25Z</time>
      </trkpt>
      <trkpt lat="46.70536" lon="5.63466">
        <ele>453.4</ele>
        <time>2021-03-29T15:06:29Z</time>
      </trkpt>
      <trkpt lat="46.70542" lon="5.63465">
        <ele>453.3</ele>
        <time>2021-03-29T15:06:34Z</time>
      </trkpt>
      <trkpt lat="46.70547" lon="5.63465">
        <ele>453</ele>
        <time>2021-03-29T15:06:40Z</time>
      </trkpt>
      <trkpt lat="46.70552" lon="5.63467">
        <ele>452.6</ele>
        <time>2021-03-29T15:06:45Z</time>
      </trkpt>
      <trkpt lat="46.70557" lon="5.63469">
        <ele>452.7</ele>
        <time>2021-03-29T15:06:52Z</time>
      </trkpt>
      <trkpt lat="46.70561" lon="5.63469">
        <ele>452.9</ele>
        <time>2021-03-29T15:07:00Z</time>
      </trkpt>
      <trkpt lat="46.70567" lon="5.6347">
        <ele>449</ele>
        <time>2021-03-29T15:07:06Z</time>
      </trkpt>
      <trkpt lat="46.70573" lon="5.63472">
        <ele>445.1</ele>
        <time>2021-03-29T15:07:10Z</time>
      </trkpt>
      <trkpt lat="46.70577" lon="5.63474">
        <ele>441.2</ele>
        <time>2021-03-29T15:07:17Z</time>
      </trkpt>
      <trkpt lat="46.70584" lon="5.63475">
        <ele>439.2</ele>
        <time>2021-03-29T15:07:29Z</time>
      </trkpt>
      <trkpt lat="46.7059" lon="5.63475">
        <ele>439.1</ele>
        <time>2021-03-29T15:07:33Z</time>
      </trkpt>
      <trkpt lat="46.70595" lon="5.63476">
        <ele>439</ele>
        <time>2021-03-29T15:07:39Z</time>
      </trkpt>
      <trkpt lat="46.706" lon="5.63477">
        <ele>438.6</ele>
        <time>2021-03-29T15:07:46Z</time>
      </trkpt>
      <trkpt lat="46.70605" lon="5.63478">
        <ele>438.2</ele>
        <time>2021-03-29T15:07:54Z</time>
      </trkpt>
      <trkpt lat="46.7061" lon="5.63479">
        <ele>438.1</ele>
        <time>2021-03-29T15:07:58Z</time>
      </trkpt>
      <trkpt lat="46.70616" lon="5.63479">
        <ele>437.9</ele>
        <time>2021-03-29T15:08:02Z</time>
      </trkpt>
      <trkpt lat="46.70621" lon="5.63478">
        <ele>436.4</ele>
        <time>2021-03-29T15:08:06Z</time>
      </trkpt>
      <trkpt lat="46.70626" lon="5.63477">
        <ele>434.4</ele>
        <time>2021-03-29T15:08:12Z</time>
      </trkpt>
      <trkpt lat="46.7063" lon="5.6348">
        <ele>433.2</ele>
        <time>2021-03-29T15:08:18Z</time>
      </trkpt>
      <trkpt lat="46.70635" lon="5.6348">
        <ele>432.5</ele>
        <time>2021-03-29T15:08:23Z</time>
      </trkpt>
      <trkpt lat="46.70639" lon="5.63482">
        <ele>431.4</ele>
        <time>2021-03-29T15:08:32Z</time>
      </trkpt>
      <trkpt lat="46.70647" lon="5.63482">
        <ele>430.1</ele>
        <time>2021-03-29T15:08:44Z</time>
      </trkpt>
      <trkpt lat="46.70651" lon="5.63483">
        <ele>429.8</ele>
        <time>2021-03-29T15:08:48Z</time>
      </trkpt>
      <trkpt lat="46.70657" lon="5.63482">
        <ele>429.7</ele>
        <time>2021-03-29T15:08:59Z</time>
      </trkpt>
      <trkpt lat="46.70662" lon="5.6348">
        <ele>429.7</ele>
        <time>2021-03-29T15:09:03Z</time>
      </trkpt>
      <trkpt lat="46.70666" lon="5.63478">
        <ele>429.5</ele>
        <time>2021-03-29T15:09:10Z</time>
      </trkpt>
      <trkpt lat="46.70673" lon="5.63477">
        <ele>429.1</ele>
        <time>2021-03-29T15:09:18Z</time>
      </trkpt>
      <trkpt lat="46.70679" lon="5.63477">
        <ele>428.6</ele>
        <time>2021-03-29T15:09:22Z</time>
      </trkpt>
      <trkpt lat="46.70683" lon="5.63476">
        <ele>427.8</ele>
        <time>2021-03-29T15:09:26Z</time>
      </trkpt>
      <trkpt lat="46.70689" lon="5.63478">
        <ele>427.2</ele>
        <time>2021-03-29T15:09:32Z</time>
      </trkpt>
      <trkpt lat="46.70693" lon="5.6348">
        <ele>426.8</ele>
        <time>2021-03-29T15:09:36Z</time>
      </trkpt>
      <trkpt lat="46.70698" lon="5.63481">
        <ele>426.3</ele>
        <time>2021-03-29T15:09:40Z</time>
      </trkpt>
      <trkpt lat="46.70704" lon="5.63482">
        <ele>425.9</ele>
        <time>2021-03-29T15:09:44Z</time>
      </trkpt>
      <trkpt lat="46.70709" lon="5.63484">
        <ele>425.5</ele>
        <time>2021-03-29T15:09:48Z</time>
      </trkpt>
      <trkpt lat="46.70714" lon="5.63485">
        <ele>425.1</ele>
        <time>2021-03-29T15:09:53Z</time>
      </trkpt>
      <trkpt lat="46.70718" lon="5.63485">
        <ele>424.4</ele>
        <time>2021-03-29T15:09:58Z</time>
      </trkpt>
      <trkpt lat="46.70723" lon="5.63484">
        <ele>423.7</ele>
        <time>2021-03-29T15:10:02Z</time>
      </trkpt>
      <trkpt lat="46.70727" lon="5.63483">
        <ele>422.6</ele>
        <time>2021-03-29T15:10:07Z</time>
      </trkpt>
      <trkpt lat="46.70732" lon="5.63485">
        <ele>421.9</ele>
        <time>2021-03-29T15:10:11Z</time>
      </trkpt>
      <trkpt lat="46.70736" lon="5.63488">
        <ele>421</ele>
        <time>2021-03-29T15:10:16Z</time>
      </trkpt>
      <trkpt lat="46.70741" lon="5.63489">
        <ele>420.2</ele>
        <time>2021-03-29T15:10:23Z</time>
      </trkpt>
      <trkpt lat="46.70746" lon="5.63487">
        <ele>420</ele>
        <time>2021-03-29T15:10:30Z</time>
      </trkpt>
      <trkpt lat="46.7075" lon="5.63485">
        <ele>420</ele>
        <time>2021-03-29T15:10:37Z</time>
      </trkpt>
      <trkpt lat="46.70756" lon="5.63485">
        <ele>419.9</ele>
        <time>2021-03-29T15:10:42Z</time>
      </trkpt>
      <trkpt lat="46.70761" lon="5.63485">
        <ele>419.8</ele>
        <time>2021-03-29T15:10:47Z</time>
      </trkpt>
      <trkpt lat="46.70766" lon="5.63485">
        <ele>419.4</ele>
        <time>2021-03-29T15:10:52Z</time>
      </trkpt>
      <trkpt lat="46.70771" lon="5.63484">
        <ele>419</ele>
        <time>2021-03-29T15:10:56Z</time>
      </trkpt>
      <trkpt lat="46.70776" lon="5.63485">
        <ele>418.2</ele>
        <time>2021-03-29T15:11:01Z</time>
      </trkpt>
      <trkpt lat="46.70781" lon="5.63485">
        <ele>417.6</ele>
        <time>2021-03-29T15:11:06Z</time>
      </trkpt>
      <trkpt lat="46.70786" lon="5.63484">
        <ele>416.8</ele>
        <time>2021-03-29T15:11:11Z</time>
      </trkpt>
      <trkpt lat="46.70791" lon="5.63483">
        <ele>415.8</ele>
        <time>2021-03-29T15:11:15Z</time>
      </trkpt>
      <trkpt lat="46.70796" lon="5.63484">
        <ele>414.7</ele>
        <time>2021-03-29T15:11:21Z</time>
      </trkpt>
      <trkpt lat="46.70801" lon="5.63484">
        <ele>414</ele>
        <time>2021-03-29T15:11:26Z</time>
      </trkpt>
      <trkpt lat="46.70805" lon="5.63483">
        <ele>414.2</ele>
        <time>2021-03-29T15:11:31Z</time>
      </trkpt>
      <trkpt lat="46.7081" lon="5.63484">
        <ele>415.1</ele>
        <time>2021-03-29T15:11:38Z</time>
      </trkpt>
      <trkpt lat="46.70816" lon="5.63484">
        <ele>415.5</ele>
        <time>2021-03-29T15:11:44Z</time>
      </trkpt>
      <trkpt lat="46.70821" lon="5.63485">
        <ele>415.9</ele>
        <time>2021-03-29T15:11:51Z</time>
      </trkpt>
      <trkpt lat="46.70826" lon="5.63485">
        <ele>411.4</ele>
        <time>2021-03-29T15:11:56Z</time>
      </trkpt>
      <trkpt lat="46.70831" lon="5.63487">
        <ele>401.4</ele>
        <time>2021-03-29T15:12:02Z</time>
      </trkpt>
      <trkpt lat="46.70835" lon="5.63485">
        <ele>396.2</ele>
        <time>2021-03-29T15:12:09Z</time>
      </trkpt>
      <trkpt lat="46.7084" lon="5.63486">
        <ele>394.1</ele>
        <time>2021-03-29T15:12:15Z</time>
      </trkpt>
      <trkpt lat="46.70845" lon="5.63489">
        <ele>393</ele>
        <time>2021-03-29T15:12:20Z</time>
      </trkpt>
      <trkpt lat="46.7085" lon="5.63489">
        <ele>392.1</ele>
        <time>2021-03-29T15:12:25Z</time>
      </trkpt>
      <trkpt lat="46.70855" lon="5.63489">
        <ele>391.7</ele>
        <time>2021-03-29T15:12:31Z</time>
      </trkpt>
      <trkpt lat="46.7086" lon="5.6349">
        <ele>390.6</ele>
        <time>2021-03-29T15:12:41Z</time>
      </trkpt>
      <trkpt lat="46.70867" lon="5.63486">
        <ele>391.3</ele>
        <time>2021-03-29T15:12:45Z</time>
      </trkpt>
      <trkpt lat="46.70873" lon="5.63486">
        <ele>391.7</ele>
        <time>2021-03-29T15:12:49Z</time>
      </trkpt>
      <trkpt lat="46.70878" lon="5.63487">
        <ele>392.2</ele>
        <time>2021-03-29T15:12:54Z</time>
      </trkpt>
      <trkpt lat="46.70882" lon="5.6349">
        <ele>393</ele>
        <time>2021-03-29T15:13:00Z</time>
      </trkpt>
      <trkpt lat="46.70887" lon="5.63489">
        <ele>394.3</ele>
        <time>2021-03-29T15:13:08Z</time>
      </trkpt>
      <trkpt lat="46.70892" lon="5.63491">
        <ele>395.2</ele>
        <time>2021-03-29T15:13:21Z</time>
      </trkpt>
      <trkpt lat="46.70897" lon="5.63493">
        <ele>395</ele>
        <time>2021-03-29T15:13:27Z</time>
      </trkpt>
      <trkpt lat="46.70902" lon="5.63495">
        <ele>394.7</ele>
        <time>2021-03-29T15:13:32Z</time>
      </trkpt>
      <trkpt lat="46.70911" lon="5.63494">
        <ele>395.4</ele>
        <time>2021-03-29T15:13:36Z</time>
      </trkpt>
      <trkpt lat="46.7092" lon="5.63493">
        <ele>395.8</ele>
        <time>2021-03-29T15:13:40Z</time>
      </trkpt>
      <trkpt lat="46.70925" lon="5.63494">
        <ele>396.3</ele>
        <time>2021-03-29T15:13:50Z</time>
      </trkpt>
      <trkpt lat="46.7093" lon="5.63493">
        <ele>396.1</ele>
        <time>2021-03-29T15:14:10Z</time>
      </trkpt>
      <trkpt lat="46.70935" lon="5.63495">
        <ele>396</ele>
        <time>2021-03-29T15:14:18Z</time>
      </trkpt>
      <trkpt lat="46.7094" lon="5.63497">
        <ele>395.9</ele>
        <time>2021-03-29T15:14:23Z</time>
      </trkpt>
      <trkpt lat="46.70945" lon="5.63497">
        <ele>395.9</ele>
        <time>2021-03-29T15:14:27Z</time>
      </trkpt>
      <trkpt lat="46.7095" lon="5.63499">
        <ele>395.7</ele>
        <time>2021-03-29T15:14:32Z</time>
      </trkpt>
      <trkpt lat="46.70954" lon="5.63502">
        <ele>395.4</ele>
        <time>2021-03-29T15:14:36Z</time>
      </trkpt>
      <trkpt lat="46.70958" lon="5.63505">
        <ele>395.1</ele>
        <time>2021-03-29T15:14:41Z</time>
      </trkpt>
      <trkpt lat="46.70963" lon="5.63506">
        <ele>394.7</ele>
        <time>2021-03-29T15:14:50Z</time>
      </trkpt>
      <trkpt lat="46.70967" lon="5.63503">
        <ele>394.1</ele>
        <time>2021-03-29T15:14:59Z</time>
      </trkpt>
      <trkpt lat="46.70965" lon="5.63496">
        <ele>393.7</ele>
        <time>2021-03-29T15:15:14Z</time>
      </trkpt>
      <trkpt lat="46.70961" lon="5.63491">
        <ele>393.4</ele>
        <time>2021-03-29T15:15:19Z</time>
      </trkpt>
      <trkpt lat="46.70958" lon="5.63486">
        <ele>393.1</ele>
        <time>2021-03-29T15:15:23Z</time>
      </trkpt>
      <trkpt lat="46.70954" lon="5.63481">
        <ele>392.7</ele>
        <time>2021-03-29T15:15:27Z</time>
      </trkpt>
      <trkpt lat="46.7095" lon="5.63477">
        <ele>392.1</ele>
        <time>2021-03-29T15:15:31Z</time>
      </trkpt>
      <trkpt lat="46.70946" lon="5.63473">
        <ele>391.7</ele>
        <time>2021-03-29T15:15:35Z</time>
      </trkpt>
      <trkpt lat="46.70941" lon="5.6347">
        <ele>390.9</ele>
        <time>2021-03-29T15:15:41Z</time>
      </trkpt>
      <trkpt lat="46.70936" lon="5.6347">
        <ele>389.8</ele>
        <time>2021-03-29T15:15:48Z</time>
      </trkpt>
      <trkpt lat="46.70931" lon="5.63467">
        <ele>388.8</ele>
        <time>2021-03-29T15:15:54Z</time>
      </trkpt>
      <trkpt lat="46.70927" lon="5.63463">
        <ele>387.6</ele>
        <time>2021-03-29T15:16:01Z</time>
      </trkpt>
      <trkpt lat="46.70922" lon="5.63462">
        <ele>386.9</ele>
        <time>2021-03-29T15:16:06Z</time>
      </trkpt>
      <trkpt lat="46.70918" lon="5.63457">
        <ele>385.2</ele>
        <time>2021-03-29T15:16:12Z</time>
      </trkpt>
      <trkpt lat="46.70913" lon="5.63456">
        <ele>382.9</ele>
        <time>2021-03-29T15:16:18Z</time>
      </trkpt>
      <trkpt lat="46.70911" lon="5.63449">
        <ele>379</ele>
        <time>2021-03-29T15:16:40Z</time>
      </trkpt>
      <trkpt lat="46.70906" lon="5.63445">
        <ele>372.4</ele>
        <time>2021-03-29T15:16:47Z</time>
      </trkpt>
      <trkpt lat="46.70904" lon="5.6344">
        <ele>371.5</ele>
        <time>2021-03-29T15:16:51Z</time>
      </trkpt>
      <trkpt lat="46.709" lon="5.63436">
        <ele>372.2</ele>
        <time>2021-03-29T15:16:56Z</time>
      </trkpt>
      <trkpt lat="46.70895" lon="5.63433">
        <ele>373.4</ele>
        <time>2021-03-29T15:17:02Z</time>
      </trkpt>
      <trkpt lat="46.70891" lon="5.63433">
        <ele>373.7</ele>
        <time>2021-03-29T15:17:07Z</time>
      </trkpt>
      <trkpt lat="46.70886" lon="5.63429">
        <ele>373.5</ele>
        <time>2021-03-29T15:17:13Z</time>
      </trkpt>
      <trkpt lat="46.70883" lon="5.63424">
        <ele>373.4</ele>
        <time>2021-03-29T15:17:17Z</time>
      </trkpt>
      <trkpt lat="46.7088" lon="5.63419">
        <ele>373</ele>
        <time>2021-03-29T15:17:21Z</time>
      </trkpt>
      <trkpt lat="46.70875" lon="5.63417">
        <ele>372.8</ele>
        <time>2021-03-29T15:17:26Z</time>
      </trkpt>
      <trkpt lat="46.7087" lon="5.63415">
        <ele>374</ele>
        <time>2021-03-29T15:17:33Z</time>
      </trkpt>
      <trkpt lat="46.70866" lon="5.63413">
        <ele>376.5</ele>
        <time>2021-03-29T15:17:42Z</time>
      </trkpt>
      <trkpt lat="46.70861" lon="5.63412">
        <ele>378.3</ele>
        <time>2021-03-29T15:17:49Z</time>
      </trkpt>
      <trkpt lat="46.70853" lon="5.63389">
        <ele>381</ele>
        <time>2021-03-29T15:17:53Z</time>
      </trkpt>
      <trkpt lat="46.70851" lon="5.63381">
        <ele>383.5</ele>
        <time>2021-03-29T15:17:57Z</time>
      </trkpt>
      <trkpt lat="46.70847" lon="5.63376">
        <ele>388.4</ele>
        <time>2021-03-29T15:18:06Z</time>
      </trkpt>
      <trkpt lat="46.70842" lon="5.63374">
        <ele>390.5</ele>
        <time>2021-03-29T15:18:11Z</time>
      </trkpt>
      <trkpt lat="46.70837" lon="5.63373">
        <ele>390.9</ele>
        <time>2021-03-29T15:18:16Z</time>
      </trkpt>
      <trkpt lat="46.70834" lon="5.63367">
        <ele>388</ele>
        <time>2021-03-29T15:18:29Z</time>
      </trkpt>
      <trkpt lat="46.70839" lon="5.63365">
        <ele>379.6</ele>
        <time>2021-03-29T15:18:39Z</time>
      </trkpt>
      <trkpt lat="46.70842" lon="5.6337">
        <ele>374.5</ele>
        <time>2021-03-29T15:18:47Z</time>
      </trkpt>
      <trkpt lat="46.70847" lon="5.63374">
        <ele>371.9</ele>
        <time>2021-03-29T15:18:52Z</time>
      </trkpt>
      <trkpt lat="46.70851" lon="5.63375">
        <ele>368.9</ele>
        <time>2021-03-29T15:18:58Z</time>
      </trkpt>
      <trkpt lat="46.70856" lon="5.63379">
        <ele>366.1</ele>
        <time>2021-03-29T15:19:04Z</time>
      </trkpt>
      <trkpt lat="46.70861" lon="5.63381">
        <ele>364.7</ele>
        <time>2021-03-29T15:19:08Z</time>
      </trkpt>
      <trkpt lat="46.70866" lon="5.63382">
        <ele>362.9</ele>
        <time>2021-03-29T15:19:14Z</time>
      </trkpt>
      <trkpt lat="46.70871" lon="5.63382">
        <ele>361.4</ele>
        <time>2021-03-29T15:19:20Z</time>
      </trkpt>
      <trkpt lat="46.70876" lon="5.63383">
        <ele>360.5</ele>
        <time>2021-03-29T15:19:24Z</time>
      </trkpt>
      <trkpt lat="46.7088" lon="5.63382">
        <ele>359.3</ele>
        <time>2021-03-29T15:19:29Z</time>
      </trkpt>
      <trkpt lat="46.70885" lon="5.63382">
        <ele>357.9</ele>
        <time>2021-03-29T15:19:34Z</time>
      </trkpt>
      <trkpt lat="46.70897" lon="5.63381">
        <ele>354.9</ele>
        <time>2021-03-29T15:19:38Z</time>
      </trkpt>
      <trkpt lat="46.70902" lon="5.63381">
        <ele>352.1</ele>
        <time>2021-03-29T15:19:43Z</time>
      </trkpt>
      <trkpt lat="46.70907" lon="5.63382">
        <ele>348.8</ele>
        <time>2021-03-29T15:19:52Z</time>
      </trkpt>
      <trkpt lat="46.70912" lon="5.63383">
        <ele>347.2</ele>
        <time>2021-03-29T15:19:58Z</time>
      </trkpt>
      <trkpt lat="46.70917" lon="5.63384">
        <ele>346</ele>
        <time>2021-03-29T15:20:04Z</time>
      </trkpt>
      <trkpt lat="46.70922" lon="5.63387">
        <ele>345.4</ele>
        <time>2021-03-29T15:20:09Z</time>
      </trkpt>
      <trkpt lat="46.70926" lon="5.63388">
        <ele>344.5</ele>
        <time>2021-03-29T15:20:14Z</time>
      </trkpt>
      <trkpt lat="46.70931" lon="5.63391">
        <ele>343.5</ele>
        <time>2021-03-29T15:20:19Z</time>
      </trkpt>
      <trkpt lat="46.70936" lon="5.63394">
        <ele>342.9</ele>
        <time>2021-03-29T15:20:24Z</time>
      </trkpt>
      <trkpt lat="46.70939" lon="5.63398">
        <ele>342.8</ele>
        <time>2021-03-29T15:20:28Z</time>
      </trkpt>
      <trkpt lat="46.70944" lon="5.63403">
        <ele>342.7</ele>
        <time>2021-03-29T15:20:33Z</time>
      </trkpt>
      <trkpt lat="46.70949" lon="5.63404">
        <ele>342.5</ele>
        <time>2021-03-29T15:20:39Z</time>
      </trkpt>
      <trkpt lat="46.70955" lon="5.63404">
        <ele>342.2</ele>
        <time>2021-03-29T15:20:43Z</time>
      </trkpt>
      <trkpt lat="46.70961" lon="5.63405">
        <ele>342.2</ele>
        <time>2021-03-29T15:20:47Z</time>
      </trkpt>
      <trkpt lat="46.70967" lon="5.63408">
        <ele>342.6</ele>
        <time>2021-03-29T15:20:51Z</time>
      </trkpt>
      <trkpt lat="46.70972" lon="5.6341">
        <ele>343.2</ele>
        <time>2021-03-29T15:20:55Z</time>
      </trkpt>
      <trkpt lat="46.70977" lon="5.63411">
        <ele>344.1</ele>
        <time>2021-03-29T15:21:01Z</time>
      </trkpt>
      <trkpt lat="46.70982" lon="5.63413">
        <ele>345</ele>
        <time>2021-03-29T15:21:10Z</time>
      </trkpt>
      <trkpt lat="46.70986" lon="5.63416">
        <ele>345</ele>
        <time>2021-03-29T15:21:20Z</time>
      </trkpt>
      <trkpt lat="46.70992" lon="5.63421">
        <ele>345.5</ele>
        <time>2021-03-29T15:21:25Z</time>
      </trkpt>
      <trkpt lat="46.70995" lon="5.63428">
        <ele>346.2</ele>
        <time>2021-03-29T15:21:29Z</time>
      </trkpt>
      <trkpt lat="46.70999" lon="5.63431">
        <ele>347.3</ele>
        <time>2021-03-29T15:21:38Z</time>
      </trkpt>
      <trkpt lat="46.71004" lon="5.6343">
        <ele>347.7</ele>
        <time>2021-03-29T15:21:44Z</time>
      </trkpt>
      <trkpt lat="46.71007" lon="5.63435">
        <ele>347.9</ele>
        <time>2021-03-29T15:21:58Z</time>
      </trkpt>
      <trkpt lat="46.71011" lon="5.6343">
        <ele>349.2</ele>
        <time>2021-03-29T15:22:53Z</time>
      </trkpt>
      <trkpt lat="46.71013" lon="5.63423">
        <ele>350.4</ele>
        <time>2021-03-29T15:23:05Z</time>
      </trkpt>
      <trkpt lat="46.71013" lon="5.63416">
        <ele>349.3</ele>
        <time>2021-03-29T15:23:54Z</time>
      </trkpt>
      <trkpt lat="46.71014" lon="5.63423">
        <ele>349</ele>
        <time>2021-03-29T15:24:13Z</time>
      </trkpt>
      <trkpt lat="46.71016" lon="5.63429">
        <ele>349.2</ele>
        <time>2021-03-29T15:24:20Z</time>
      </trkpt>
      <trkpt lat="46.7102" lon="5.63434">
        <ele>349.6</ele>
        <time>2021-03-29T15:24:27Z</time>
      </trkpt>
      <trkpt lat="46.71022" lon="5.6344">
        <ele>350</ele>
        <time>2021-03-29T15:24:35Z</time>
      </trkpt>
      <trkpt lat="46.71027" lon="5.63451">
        <ele>352.1</ele>
        <time>2021-03-29T15:24:48Z</time>
      </trkpt>
      <trkpt lat="46.7103" lon="5.63465">
        <ele>354.4</ele>
        <time>2021-03-29T15:24:52Z</time>
      </trkpt>
      <trkpt lat="46.71032" lon="5.63471">
        <ele>357.7</ele>
        <time>2021-03-29T15:25:00Z</time>
      </trkpt>
      <trkpt lat="46.71032" lon="5.63478">
        <ele>359.6</ele>
        <time>2021-03-29T15:25:10Z</time>
      </trkpt>
      <trkpt lat="46.71031" lon="5.63484">
        <ele>359.8</ele>
        <time>2021-03-29T15:25:16Z</time>
      </trkpt>
      <trkpt lat="46.71033" lon="5.6349">
        <ele>359.6</ele>
        <time>2021-03-29T15:25:22Z</time>
      </trkpt>
      <trkpt lat="46.71035" lon="5.63497">
        <ele>359.5</ele>
        <time>2021-03-29T15:25:27Z</time>
      </trkpt>
      <trkpt lat="46.71043" lon="5.63506">
        <ele>361.8</ele>
        <time>2021-03-29T15:25:31Z</time>
      </trkpt>
      <trkpt lat="46.71045" lon="5.63511">
        <ele>363.8</ele>
        <time>2021-03-29T15:25:36Z</time>
      </trkpt>
      <trkpt lat="46.71047" lon="5.63518">
        <ele>365.5</ele>
        <time>2021-03-29T15:25:43Z</time>
      </trkpt>
      <trkpt lat="46.71051" lon="5.63521">
        <ele>366.5</ele>
        <time>2021-03-29T15:25:50Z</time>
      </trkpt>
      <trkpt lat="46.71055" lon="5.63525">
        <ele>366.9</ele>
        <time>2021-03-29T15:25:55Z</time>
      </trkpt>
      <trkpt lat="46.71058" lon="5.6353">
        <ele>367.5</ele>
        <time>2021-03-29T15:26:01Z</time>
      </trkpt>
      <trkpt lat="46.7106" lon="5.63536">
        <ele>367.8</ele>
        <time>2021-03-29T15:26:10Z</time>
      </trkpt>
      <trkpt lat="46.71066" lon="5.63535">
        <ele>364.5</ele>
        <time>2021-03-29T15:26:20Z</time>
      </trkpt>
      <trkpt lat="46.71073" lon="5.63534">
        <ele>361.1</ele>
        <time>2021-03-29T15:26:24Z</time>
      </trkpt>
      <trkpt lat="46.71077" lon="5.63538">
        <ele>357.3</ele>
        <time>2021-03-29T15:26:32Z</time>
      </trkpt>
      <trkpt lat="46.71081" lon="5.63542">
        <ele>355.4</ele>
        <time>2021-03-29T15:26:40Z</time>
      </trkpt>
      <trkpt lat="46.71085" lon="5.63545">
        <ele>354</ele>
        <time>2021-03-29T15:26:46Z</time>
      </trkpt>
      <trkpt lat="46.71088" lon="5.6355">
        <ele>351.9</ele>
        <time>2021-03-29T15:26:55Z</time>
      </trkpt>
      <trkpt lat="46.71094" lon="5.63554">
        <ele>348.1</ele>
        <time>2021-03-29T15:26:59Z</time>
      </trkpt>
      <trkpt lat="46.711" lon="5.63557">
        <ele>344.4</ele>
        <time>2021-03-29T15:27:03Z</time>
      </trkpt>
      <trkpt lat="46.71104" lon="5.63559">
        <ele>340.3</ele>
        <time>2021-03-29T15:27:10Z</time>
      </trkpt>
      <trkpt lat="46.71108" lon="5.63563">
        <ele>338.2</ele>
        <time>2021-03-29T15:27:18Z</time>
      </trkpt>
      <trkpt lat="46.71112" lon="5.63567">
        <ele>337.1</ele>
        <time>2021-03-29T15:27:23Z</time>
      </trkpt>
      <trkpt lat="46.71116" lon="5.63571">
        <ele>336.1</ele>
        <time>2021-03-29T15:27:28Z</time>
      </trkpt>
      <trkpt lat="46.7112" lon="5.63576">
        <ele>334.9</ele>
        <time>2021-03-29T15:27:33Z</time>
      </trkpt>
      <trkpt lat="46.71123" lon="5.63582">
        <ele>333.3</ele>
        <time>2021-03-29T15:27:40Z</time>
      </trkpt>
      <trkpt lat="46.71126" lon="5.63587">
        <ele>331.8</ele>
        <time>2021-03-29T15:27:46Z</time>
      </trkpt>
      <trkpt lat="46.71129" lon="5.63592">
        <ele>330.4</ele>
        <time>2021-03-29T15:27:53Z</time>
      </trkpt>
      <trkpt lat="46.71131" lon="5.63599">
        <ele>329.8</ele>
        <time>2021-03-29T15:27:58Z</time>
      </trkpt>
      <trkpt lat="46.71132" lon="5.63605">
        <ele>329.3</ele>
        <time>2021-03-29T15:28:04Z</time>
      </trkpt>
      <trkpt lat="46.71134" lon="5.63613">
        <ele>328.7</ele>
        <time>2021-03-29T15:28:10Z</time>
      </trkpt>
      <trkpt lat="46.71134" lon="5.6362">
        <ele>327.8</ele>
        <time>2021-03-29T15:28:16Z</time>
      </trkpt>
      <trkpt lat="46.71136" lon="5.63626">
        <ele>326.3</ele>
        <time>2021-03-29T15:28:24Z</time>
      </trkpt>
      <trkpt lat="46.71137" lon="5.63633">
        <ele>325.9</ele>
        <time>2021-03-29T15:28:29Z</time>
      </trkpt>
      <trkpt lat="46.7114" lon="5.6364">
        <ele>326.7</ele>
        <time>2021-03-29T15:28:33Z</time>
      </trkpt>
      <trkpt lat="46.71142" lon="5.63651">
        <ele>330.1</ele>
        <time>2021-03-29T15:28:38Z</time>
      </trkpt>
      <trkpt lat="46.71144" lon="5.63659">
        <ele>333.4</ele>
        <time>2021-03-29T15:28:42Z</time>
      </trkpt>
      <trkpt lat="46.71145" lon="5.63666">
        <ele>336.5</ele>
        <time>2021-03-29T15:28:51Z</time>
      </trkpt>
      <trkpt lat="46.71146" lon="5.63673">
        <ele>337.2</ele>
        <time>2021-03-29T15:28:57Z</time>
      </trkpt>
      <trkpt lat="46.71145" lon="5.63679">
        <ele>337.6</ele>
        <time>2021-03-29T15:29:04Z</time>
      </trkpt>
      <trkpt lat="46.71143" lon="5.63687">
        <ele>337.5</ele>
        <time>2021-03-29T15:29:12Z</time>
      </trkpt>
      <trkpt lat="46.71142" lon="5.63694">
        <ele>336.9</ele>
        <time>2021-03-29T15:29:18Z</time>
      </trkpt>
      <trkpt lat="46.71139" lon="5.63702">
        <ele>336.6</ele>
        <time>2021-03-29T15:29:23Z</time>
      </trkpt>
      <trkpt lat="46.71137" lon="5.63708">
        <ele>336.7</ele>
        <time>2021-03-29T15:29:27Z</time>
      </trkpt>
      <trkpt lat="46.71136" lon="5.63715">
        <ele>337.2</ele>
        <time>2021-03-29T15:29:33Z</time>
      </trkpt>
      <trkpt lat="46.71136" lon="5.63721">
        <ele>337.9</ele>
        <time>2021-03-29T15:29:38Z</time>
      </trkpt>
      <trkpt lat="46.71138" lon="5.63728">
        <ele>338.5</ele>
        <time>2021-03-29T15:29:44Z</time>
      </trkpt>
      <trkpt lat="46.7114" lon="5.63734">
        <ele>339.4</ele>
        <time>2021-03-29T15:29:52Z</time>
      </trkpt>
      <trkpt lat="46.7114" lon="5.63741">
        <ele>340</ele>
        <time>2021-03-29T15:29:59Z</time>
      </trkpt>
      <trkpt lat="46.71142" lon="5.63748">
        <ele>340.2</ele>
        <time>2021-03-29T15:30:03Z</time>
      </trkpt>
      <trkpt lat="46.71143" lon="5.63758">
        <ele>340.2</ele>
        <time>2021-03-29T15:30:07Z</time>
      </trkpt>
      <trkpt lat="46.7114" lon="5.63766">
        <ele>339.9</ele>
        <time>2021-03-29T15:30:11Z</time>
      </trkpt>
      <trkpt lat="46.71138" lon="5.63774">
        <ele>339.4</ele>
        <time>2021-03-29T15:30:15Z</time>
      </trkpt>
      <trkpt lat="46.71135" lon="5.63779">
        <ele>338.2</ele>
        <time>2021-03-29T15:30:22Z</time>
      </trkpt>
      <trkpt lat="46.71133" lon="5.63786">
        <ele>336.7</ele>
        <time>2021-03-29T15:30:31Z</time>
      </trkpt>
      <trkpt lat="46.71132" lon="5.63793">
        <ele>335.6</ele>
        <time>2021-03-29T15:30:36Z</time>
      </trkpt>
      <trkpt lat="46.7113" lon="5.63801">
        <ele>334.6</ele>
        <time>2021-03-29T15:30:40Z</time>
      </trkpt>
      <trkpt lat="46.71126" lon="5.63809">
        <ele>333.2</ele>
        <time>2021-03-29T15:30:44Z</time>
      </trkpt>
      <trkpt lat="46.71124" lon="5.63816">
        <ele>331.9</ele>
        <time>2021-03-29T15:30:48Z</time>
      </trkpt>
      <trkpt lat="46.71124" lon="5.63824">
        <ele>329.7</ele>
        <time>2021-03-29T15:30:53Z</time>
      </trkpt>
      <trkpt lat="46.71125" lon="5.6383">
        <ele>328</ele>
        <time>2021-03-29T15:30:58Z</time>
      </trkpt>
      <trkpt lat="46.71124" lon="5.63838">
        <ele>326</ele>
        <time>2021-03-29T15:31:05Z</time>
      </trkpt>
      <trkpt lat="46.71126" lon="5.63844">
        <ele>324.4</ele>
        <time>2021-03-29T15:31:13Z</time>
      </trkpt>
      <trkpt lat="46.71128" lon="5.63851">
        <ele>324.1</ele>
        <time>2021-03-29T15:31:20Z</time>
      </trkpt>
      <trkpt lat="46.7113" lon="5.63859">
        <ele>325.5</ele>
        <time>2021-03-29T15:31:24Z</time>
      </trkpt>
      <trkpt lat="46.7113" lon="5.63866">
        <ele>325.9</ele>
        <time>2021-03-29T15:31:29Z</time>
      </trkpt>
      <trkpt lat="46.71131" lon="5.63873">
        <ele>326.2</ele>
        <time>2021-03-29T15:31:35Z</time>
      </trkpt>
      <trkpt lat="46.71131" lon="5.6388">
        <ele>326.4</ele>
        <time>2021-03-29T15:31:41Z</time>
      </trkpt>
      <trkpt lat="46.71129" lon="5.63888">
        <ele>325.8</ele>
        <time>2021-03-29T15:31:46Z</time>
      </trkpt>
      <trkpt lat="46.71128" lon="5.63894">
        <ele>325.1</ele>
        <time>2021-03-29T15:31:53Z</time>
      </trkpt>
      <trkpt lat="46.71128" lon="5.63902">
        <ele>324.9</ele>
        <time>2021-03-29T15:31:58Z</time>
      </trkpt>
      <trkpt lat="46.71129" lon="5.63909">
        <ele>324.8</ele>
        <time>2021-03-29T15:32:03Z</time>
      </trkpt>
      <trkpt lat="46.71129" lon="5.63917">
        <ele>324.8</ele>
        <time>2021-03-29T15:32:09Z</time>
      </trkpt>
      <trkpt lat="46.71128" lon="5.63923">
        <ele>324.8</ele>
        <time>2021-03-29T15:32:13Z</time>
      </trkpt>
      <trkpt lat="46.71126" lon="5.63932">
        <ele>324.7</ele>
        <time>2021-03-29T15:32:18Z</time>
      </trkpt>
      <trkpt lat="46.71127" lon="5.63939">
        <ele>324.4</ele>
        <time>2021-03-29T15:32:23Z</time>
      </trkpt>
      <trkpt lat="46.71128" lon="5.63946">
        <ele>324</ele>
        <time>2021-03-29T15:32:28Z</time>
      </trkpt>
      <trkpt lat="46.71125" lon="5.63957">
        <ele>321.5</ele>
        <time>2021-03-29T15:32:32Z</time>
      </trkpt>
      <trkpt lat="46.71122" lon="5.63966">
        <ele>317.1</ele>
        <time>2021-03-29T15:32:36Z</time>
      </trkpt>
      <trkpt lat="46.71124" lon="5.63973">
        <ele>316.5</ele>
        <time>2021-03-29T15:32:40Z</time>
      </trkpt>
      <trkpt lat="46.71125" lon="5.6398">
        <ele>315.9</ele>
        <time>2021-03-29T15:32:48Z</time>
      </trkpt>
      <trkpt lat="46.71124" lon="5.63987">
        <ele>314.8</ele>
        <time>2021-03-29T15:32:57Z</time>
      </trkpt>
      <trkpt lat="46.71118" lon="5.63995">
        <ele>314.3</ele>
        <time>2021-03-29T15:33:01Z</time>
      </trkpt>
      <trkpt lat="46.71118" lon="5.64003">
        <ele>314.4</ele>
        <time>2021-03-29T15:33:08Z</time>
      </trkpt>
      <trkpt lat="46.71119" lon="5.64009">
        <ele>314.9</ele>
        <time>2021-03-29T15:33:13Z</time>
      </trkpt>
      <trkpt lat="46.71121" lon="5.64016">
        <ele>315.4</ele>
        <time>2021-03-29T15:33:18Z</time>
      </trkpt>
      <trkpt lat="46.71122" lon="5.64022">
        <ele>315.8</ele>
        <time>2021-03-29T15:33:23Z</time>
      </trkpt>
      <trkpt lat="46.71124" lon="5.64029">
        <ele>315.4</ele>
        <time>2021-03-29T15:33:28Z</time>
      </trkpt>
      <trkpt lat="46.71126" lon="5.64035">
        <ele>314.6</ele>
        <time>2021-03-29T15:33:34Z</time>
      </trkpt>
      <trkpt lat="46.71126" lon="5.64043">
        <ele>313.6</ele>
        <time>2021-03-29T15:33:39Z</time>
      </trkpt>
      <trkpt lat="46.71127" lon="5.6405">
        <ele>312.9</ele>
        <time>2021-03-29T15:33:44Z</time>
      </trkpt>
      <trkpt lat="46.71128" lon="5.64057">
        <ele>312.1</ele>
        <time>2021-03-29T15:33:49Z</time>
      </trkpt>
      <trkpt lat="46.7113" lon="5.64064">
        <ele>310.9</ele>
        <time>2021-03-29T15:33:54Z</time>
      </trkpt>
      <trkpt lat="46.71131" lon="5.6407">
        <ele>309.3</ele>
        <time>2021-03-29T15:33:59Z</time>
      </trkpt>
      <trkpt lat="46.71132" lon="5.64078">
        <ele>307.4</ele>
        <time>2021-03-29T15:34:04Z</time>
      </trkpt>
      <trkpt lat="46.71133" lon="5.64086">
        <ele>305.5</ele>
        <time>2021-03-29T15:34:09Z</time>
      </trkpt>
      <trkpt lat="46.71134" lon="5.64093">
        <ele>304.2</ele>
        <time>2021-03-29T15:34:14Z</time>
      </trkpt>
      <trkpt lat="46.71138" lon="5.64099">
        <ele>304.3</ele>
        <time>2021-03-29T15:34:19Z</time>
      </trkpt>
      <trkpt lat="46.71147" lon="5.64104">
        <ele>305.8</ele>
        <time>2021-03-29T15:34:23Z</time>
      </trkpt>
      <trkpt lat="46.71151" lon="5.64108">
        <ele>306.9</ele>
        <time>2021-03-29T15:34:27Z</time>
      </trkpt>
      <trkpt lat="46.71147" lon="5.64116">
        <ele>303</ele>
        <time>2021-03-29T15:34:31Z</time>
      </trkpt>
      <trkpt lat="46.71146" lon="5.64123">
        <ele>298.7</ele>
        <time>2021-03-29T15:34:37Z</time>
      </trkpt>
      <trkpt lat="46.71143" lon="5.64129">
        <ele>295.8</ele>
        <time>2021-03-29T15:34:45Z</time>
      </trkpt>
      <trkpt lat="46.71143" lon="5.64137">
        <ele>294.8</ele>
        <time>2021-03-29T15:34:52Z</time>
      </trkpt>
      <trkpt lat="46.71141" lon="5.64143">
        <ele>294.4</ele>
        <time>2021-03-29T15:34:56Z</time>
      </trkpt>
      <trkpt lat="46.71137" lon="5.64154">
        <ele>292.1</ele>
        <time>2021-03-29T15:35:00Z</time>
      </trkpt>
      <trkpt lat="46.71137" lon="5.64146">
        <ele>293.6</ele>
        <time>2021-03-29T15:35:12Z</time>
      </trkpt>
      <trkpt lat="46.71139" lon="5.6414">
        <ele>294.9</ele>
        <time>2021-03-29T15:35:18Z</time>
      </trkpt>
      <trkpt lat="46.71143" lon="5.64136">
        <ele>295.9</ele>
        <time>2021-03-29T15:35:24Z</time>
      </trkpt>
      <trkpt lat="46.71148" lon="5.64136">
        <ele>296.6</ele>
        <time>2021-03-29T15:35:28Z</time>
      </trkpt>
      <trkpt lat="46.71153" lon="5.64134">
        <ele>297.4</ele>
        <time>2021-03-29T15:35:33Z</time>
      </trkpt>
      <trkpt lat="46.71158" lon="5.64131">
        <ele>298.2</ele>
        <time>2021-03-29T15:35:39Z</time>
      </trkpt>
      <trkpt lat="46.71163" lon="5.6413">
        <ele>290.8</ele>
        <time>2021-03-29T15:35:46Z</time>
      </trkpt>
      <trkpt lat="46.71166" lon="5.64136">
        <ele>291.1</ele>
        <time>2021-03-29T15:36:30Z</time>
      </trkpt>
      <trkpt lat="46.71162" lon="5.64141">
        <ele>290.7</ele>
        <time>2021-03-29T15:37:33Z</time>
      </trkpt>
      <trkpt lat="46.71159" lon="5.64136">
        <ele>291</ele>
        <time>2021-03-29T15:37:44Z</time>
      </trkpt>
    </trkseg>
  </trk>
</gpx>